<?xml version="1.0" encoding="UTF-8" standalone="no" ?>
<gpx xmlns="http://www.topografix.com/GPX/1/1" xmlns:xsi="http://www.w3.org/2001/XMLSchema-instance" xsi:schemaLocation="http://www.topografix.com/GPX/1/1 http://www.topografix.com/GPX/1/1/gpx.xsd" version="1.1" creator="VisuGPX - https://www.visugpx.com">
  <metadata>
    <name>170329HR3ROBJeunes</name>
    <desc><![CDATA[Excellente sortie beau temps et beau soleil]]></desc>
  </metadata>
  <trk>
    <name><![CDATA[170329HR3ROBJeunes]]></name>
    <trkseg>
      <trkpt lat="43.41582" lon="6.07042">
        <ele>213.39999389648</ele>
        <time>2017-03-29T12:03:57Z</time>
      </trkpt>
      <trkpt lat="43.41582" lon="6.07042">
        <ele>201.80000305176</ele>
        <time>2017-03-29T12:04:01Z</time>
      </trkpt>
      <trkpt lat="43.41579" lon="6.07041">
        <ele>202</ele>
        <time>2017-03-29T12:04:11Z</time>
      </trkpt>
      <trkpt lat="43.41579" lon="6.07041">
        <ele>201.60000610352</ele>
        <time>2017-03-29T12:04:17Z</time>
      </trkpt>
      <trkpt lat="43.41579" lon="6.07042">
        <ele>201.39999389648</ele>
        <time>2017-03-29T12:04:21Z</time>
      </trkpt>
      <trkpt lat="43.41579" lon="6.07042">
        <ele>201.39999389648</ele>
        <time>2017-03-29T12:04:30Z</time>
      </trkpt>
      <trkpt lat="43.41578" lon="6.07042">
        <ele>201.19999694824</ele>
        <time>2017-03-29T12:04:41Z</time>
      </trkpt>
      <trkpt lat="43.41578" lon="6.07042">
        <ele>201.39999389648</ele>
        <time>2017-03-29T12:04:43Z</time>
      </trkpt>
      <trkpt lat="43.41578" lon="6.07042">
        <ele>201.60000610352</ele>
        <time>2017-03-29T12:04:51Z</time>
      </trkpt>
      <trkpt lat="43.41578" lon="6.07042">
        <ele>201.39999389648</ele>
        <time>2017-03-29T12:05:01Z</time>
      </trkpt>
      <trkpt lat="43.41578" lon="6.07042">
        <ele>201.39999389648</ele>
        <time>2017-03-29T12:05:11Z</time>
      </trkpt>
      <trkpt lat="43.41579" lon="6.07042">
        <ele>201.60000610352</ele>
        <time>2017-03-29T12:05:21Z</time>
      </trkpt>
      <trkpt lat="43.41579" lon="6.07042">
        <ele>201.19999694824</ele>
        <time>2017-03-29T12:05:51Z</time>
      </trkpt>
      <trkpt lat="43.41579" lon="6.07041">
        <ele>201.19999694824</ele>
        <time>2017-03-29T12:06:21Z</time>
      </trkpt>
      <trkpt lat="43.41579" lon="6.07041">
        <ele>201.19999694824</ele>
        <time>2017-03-29T12:07:01Z</time>
      </trkpt>
      <trkpt lat="43.4158" lon="6.07043">
        <ele>201.19999694824</ele>
        <time>2017-03-29T12:07:21Z</time>
      </trkpt>
      <trkpt lat="43.41581" lon="6.07048">
        <ele>201</ele>
        <time>2017-03-29T12:07:25Z</time>
      </trkpt>
      <trkpt lat="43.41581" lon="6.0705">
        <ele>200.80000305176</ele>
        <time>2017-03-29T12:07:26Z</time>
      </trkpt>
      <trkpt lat="43.41581" lon="6.07064">
        <ele>200.39999389648</ele>
        <time>2017-03-29T12:07:31Z</time>
      </trkpt>
      <trkpt lat="43.41585" lon="6.07099">
        <ele>200.60000610352</ele>
        <time>2017-03-29T12:07:41Z</time>
      </trkpt>
      <trkpt lat="43.41585" lon="6.07102">
        <ele>200.60000610352</ele>
        <time>2017-03-29T12:07:42Z</time>
      </trkpt>
      <trkpt lat="43.41581" lon="6.07108">
        <ele>200.60000610352</ele>
        <time>2017-03-29T12:07:46Z</time>
      </trkpt>
      <trkpt lat="43.4157" lon="6.07114">
        <ele>200.39999389648</ele>
        <time>2017-03-29T12:07:51Z</time>
      </trkpt>
      <trkpt lat="43.41553" lon="6.07118">
        <ele>200.60000610352</ele>
        <time>2017-03-29T12:07:57Z</time>
      </trkpt>
      <trkpt lat="43.41549" lon="6.07114">
        <ele>200.39999389648</ele>
        <time>2017-03-29T12:07:59Z</time>
      </trkpt>
      <trkpt lat="43.41548" lon="6.07108">
        <ele>200.39999389648</ele>
        <time>2017-03-29T12:08:01Z</time>
      </trkpt>
      <trkpt lat="43.41533" lon="6.07078">
        <ele>200.60000610352</ele>
        <time>2017-03-29T12:08:11Z</time>
      </trkpt>
      <trkpt lat="43.41518" lon="6.07081">
        <ele>199.80000305176</ele>
        <time>2017-03-29T12:08:15Z</time>
      </trkpt>
      <trkpt lat="43.41497" lon="6.07083">
        <ele>199</ele>
        <time>2017-03-29T12:08:21Z</time>
      </trkpt>
      <trkpt lat="43.41473" lon="6.07073">
        <ele>199.19999694824</ele>
        <time>2017-03-29T12:08:31Z</time>
      </trkpt>
      <trkpt lat="43.4147" lon="6.07071">
        <ele>199</ele>
        <time>2017-03-29T12:08:38Z</time>
      </trkpt>
      <trkpt lat="43.4147" lon="6.07068">
        <ele>199.19999694824</ele>
        <time>2017-03-29T12:08:40Z</time>
      </trkpt>
      <trkpt lat="43.4147" lon="6.07065">
        <ele>199.19999694824</ele>
        <time>2017-03-29T12:08:41Z</time>
      </trkpt>
      <trkpt lat="43.41482" lon="6.07036">
        <ele>199.19999694824</ele>
        <time>2017-03-29T12:08:48Z</time>
      </trkpt>
      <trkpt lat="43.41484" lon="6.07031">
        <ele>199.19999694824</ele>
        <time>2017-03-29T12:08:49Z</time>
      </trkpt>
      <trkpt lat="43.41486" lon="6.07026">
        <ele>199.19999694824</ele>
        <time>2017-03-29T12:08:50Z</time>
      </trkpt>
      <trkpt lat="43.41489" lon="6.07021">
        <ele>199.39999389648</ele>
        <time>2017-03-29T12:08:51Z</time>
      </trkpt>
      <trkpt lat="43.41494" lon="6.07005">
        <ele>199.80000305176</ele>
        <time>2017-03-29T12:08:54Z</time>
      </trkpt>
      <trkpt lat="43.41495" lon="6.06993">
        <ele>200</ele>
        <time>2017-03-29T12:08:56Z</time>
      </trkpt>
      <trkpt lat="43.41494" lon="6.06981">
        <ele>200</ele>
        <time>2017-03-29T12:08:58Z</time>
      </trkpt>
      <trkpt lat="43.41488" lon="6.06966">
        <ele>200.19999694824</ele>
        <time>2017-03-29T12:09:01Z</time>
      </trkpt>
      <trkpt lat="43.4148" lon="6.06952">
        <ele>200.80000305176</ele>
        <time>2017-03-29T12:09:06Z</time>
      </trkpt>
      <trkpt lat="43.41476" lon="6.06948">
        <ele>200.80000305176</ele>
        <time>2017-03-29T12:09:11Z</time>
      </trkpt>
      <trkpt lat="43.41474" lon="6.06945">
        <ele>201.19999694824</ele>
        <time>2017-03-29T12:09:19Z</time>
      </trkpt>
      <trkpt lat="43.4147" lon="6.06938">
        <ele>201.39999389648</ele>
        <time>2017-03-29T12:09:26Z</time>
      </trkpt>
      <trkpt lat="43.41469" lon="6.06937">
        <ele>201.19999694824</ele>
        <time>2017-03-29T12:09:31Z</time>
      </trkpt>
      <trkpt lat="43.41469" lon="6.06936">
        <ele>201</ele>
        <time>2017-03-29T12:09:35Z</time>
      </trkpt>
      <trkpt lat="43.41469" lon="6.06937">
        <ele>201</ele>
        <time>2017-03-29T12:09:39Z</time>
      </trkpt>
      <trkpt lat="43.41469" lon="6.06936">
        <ele>201.19999694824</ele>
        <time>2017-03-29T12:09:41Z</time>
      </trkpt>
      <trkpt lat="43.41467" lon="6.06932">
        <ele>201.39999389648</ele>
        <time>2017-03-29T12:09:44Z</time>
      </trkpt>
      <trkpt lat="43.41462" lon="6.06926">
        <ele>201.39999389648</ele>
        <time>2017-03-29T12:09:51Z</time>
      </trkpt>
      <trkpt lat="43.41461" lon="6.06923">
        <ele>201.60000610352</ele>
        <time>2017-03-29T12:09:58Z</time>
      </trkpt>
      <trkpt lat="43.41461" lon="6.06917">
        <ele>201.60000610352</ele>
        <time>2017-03-29T12:10:00Z</time>
      </trkpt>
      <trkpt lat="43.41461" lon="6.06913">
        <ele>201.80000305176</ele>
        <time>2017-03-29T12:10:01Z</time>
      </trkpt>
      <trkpt lat="43.41465" lon="6.06891">
        <ele>202</ele>
        <time>2017-03-29T12:10:05Z</time>
      </trkpt>
      <trkpt lat="43.41463" lon="6.06879">
        <ele>202</ele>
        <time>2017-03-29T12:10:07Z</time>
      </trkpt>
      <trkpt lat="43.41456" lon="6.06867">
        <ele>202</ele>
        <time>2017-03-29T12:10:09Z</time>
      </trkpt>
      <trkpt lat="43.41445" lon="6.06861">
        <ele>202</ele>
        <time>2017-03-29T12:10:11Z</time>
      </trkpt>
      <trkpt lat="43.41433" lon="6.06859">
        <ele>202</ele>
        <time>2017-03-29T12:10:13Z</time>
      </trkpt>
      <trkpt lat="43.41421" lon="6.06859">
        <ele>201.80000305176</ele>
        <time>2017-03-29T12:10:15Z</time>
      </trkpt>
      <trkpt lat="43.41411" lon="6.06854">
        <ele>201.60000610352</ele>
        <time>2017-03-29T12:10:17Z</time>
      </trkpt>
      <trkpt lat="43.41393" lon="6.06839">
        <ele>201.60000610352</ele>
        <time>2017-03-29T12:10:21Z</time>
      </trkpt>
      <trkpt lat="43.4138" lon="6.06829">
        <ele>202</ele>
        <time>2017-03-29T12:10:24Z</time>
      </trkpt>
      <trkpt lat="43.41345" lon="6.06812">
        <ele>202.39999389648</ele>
        <time>2017-03-29T12:10:31Z</time>
      </trkpt>
      <trkpt lat="43.41317" lon="6.06796">
        <ele>201.60000610352</ele>
        <time>2017-03-29T12:10:36Z</time>
      </trkpt>
      <trkpt lat="43.41295" lon="6.06776">
        <ele>201</ele>
        <time>2017-03-29T12:10:40Z</time>
      </trkpt>
      <trkpt lat="43.4129" lon="6.06769">
        <ele>200.80000305176</ele>
        <time>2017-03-29T12:10:41Z</time>
      </trkpt>
      <trkpt lat="43.41286" lon="6.06762">
        <ele>200.80000305176</ele>
        <time>2017-03-29T12:10:42Z</time>
      </trkpt>
      <trkpt lat="43.41279" lon="6.06745">
        <ele>200.39999389648</ele>
        <time>2017-03-29T12:10:44Z</time>
      </trkpt>
      <trkpt lat="43.41275" lon="6.06728">
        <ele>200.19999694824</ele>
        <time>2017-03-29T12:10:46Z</time>
      </trkpt>
      <trkpt lat="43.4127" lon="6.06695">
        <ele>200.39999389648</ele>
        <time>2017-03-29T12:10:50Z</time>
      </trkpt>
      <trkpt lat="43.41268" lon="6.06689">
        <ele>200.39999389648</ele>
        <time>2017-03-29T12:10:51Z</time>
      </trkpt>
      <trkpt lat="43.41263" lon="6.06686">
        <ele>200.60000610352</ele>
        <time>2017-03-29T12:10:52Z</time>
      </trkpt>
      <trkpt lat="43.41249" lon="6.06689">
        <ele>200.19999694824</ele>
        <time>2017-03-29T12:10:56Z</time>
      </trkpt>
      <trkpt lat="43.41244" lon="6.06692">
        <ele>199.60000610352</ele>
        <time>2017-03-29T12:10:59Z</time>
      </trkpt>
      <trkpt lat="43.41243" lon="6.06695">
        <ele>199.39999389648</ele>
        <time>2017-03-29T12:11:01Z</time>
      </trkpt>
      <trkpt lat="43.41242" lon="6.06696">
        <ele>199.19999694824</ele>
        <time>2017-03-29T12:11:02Z</time>
      </trkpt>
      <trkpt lat="43.41242" lon="6.06703">
        <ele>199.19999694824</ele>
        <time>2017-03-29T12:11:05Z</time>
      </trkpt>
      <trkpt lat="43.41246" lon="6.06713">
        <ele>199.60000610352</ele>
        <time>2017-03-29T12:11:11Z</time>
      </trkpt>
      <trkpt lat="43.41246" lon="6.06715">
        <ele>199.39999389648</ele>
        <time>2017-03-29T12:11:16Z</time>
      </trkpt>
      <trkpt lat="43.41235" lon="6.06717">
        <ele>199</ele>
        <time>2017-03-29T12:11:20Z</time>
      </trkpt>
      <trkpt lat="43.41231" lon="6.06718">
        <ele>198.80000305176</ele>
        <time>2017-03-29T12:11:21Z</time>
      </trkpt>
      <trkpt lat="43.41226" lon="6.0672">
        <ele>198.39999389648</ele>
        <time>2017-03-29T12:11:22Z</time>
      </trkpt>
      <trkpt lat="43.41209" lon="6.06723">
        <ele>197.39999389648</ele>
        <time>2017-03-29T12:11:26Z</time>
      </trkpt>
      <trkpt lat="43.41204" lon="6.06723">
        <ele>197.39999389648</ele>
        <time>2017-03-29T12:11:27Z</time>
      </trkpt>
      <trkpt lat="43.41193" lon="6.06723">
        <ele>197.39999389648</ele>
        <time>2017-03-29T12:11:29Z</time>
      </trkpt>
      <trkpt lat="43.41182" lon="6.06722">
        <ele>197</ele>
        <time>2017-03-29T12:11:31Z</time>
      </trkpt>
      <trkpt lat="43.4114" lon="6.06729">
        <ele>197.19999694824</ele>
        <time>2017-03-29T12:11:38Z</time>
      </trkpt>
      <trkpt lat="43.41122" lon="6.06736">
        <ele>197</ele>
        <time>2017-03-29T12:11:41Z</time>
      </trkpt>
      <trkpt lat="43.41111" lon="6.06742">
        <ele>197</ele>
        <time>2017-03-29T12:11:43Z</time>
      </trkpt>
      <trkpt lat="43.41093" lon="6.06757">
        <ele>196.60000610352</ele>
        <time>2017-03-29T12:11:47Z</time>
      </trkpt>
      <trkpt lat="43.41086" lon="6.06767">
        <ele>196.39999389648</ele>
        <time>2017-03-29T12:11:49Z</time>
      </trkpt>
      <trkpt lat="43.41081" lon="6.06802">
        <ele>196.60000610352</ele>
        <time>2017-03-29T12:11:54Z</time>
      </trkpt>
      <trkpt lat="43.41068" lon="6.06845">
        <ele>197.19999694824</ele>
        <time>2017-03-29T12:12:01Z</time>
      </trkpt>
      <trkpt lat="43.41066" lon="6.06862">
        <ele>197.80000305176</ele>
        <time>2017-03-29T12:12:09Z</time>
      </trkpt>
      <trkpt lat="43.41066" lon="6.06862">
        <ele>198</ele>
        <time>2017-03-29T12:12:11Z</time>
      </trkpt>
      <trkpt lat="43.41065" lon="6.06865">
        <ele>198.19999694824</ele>
        <time>2017-03-29T12:12:21Z</time>
      </trkpt>
      <trkpt lat="43.41065" lon="6.06869">
        <ele>198.39999389648</ele>
        <time>2017-03-29T12:12:26Z</time>
      </trkpt>
      <trkpt lat="43.41064" lon="6.06871">
        <ele>198.39999389648</ele>
        <time>2017-03-29T12:12:35Z</time>
      </trkpt>
      <trkpt lat="43.41063" lon="6.06871">
        <ele>198.60000610352</ele>
        <time>2017-03-29T12:12:41Z</time>
      </trkpt>
      <trkpt lat="43.41063" lon="6.06871">
        <ele>198</ele>
        <time>2017-03-29T12:12:51Z</time>
      </trkpt>
      <trkpt lat="43.41063" lon="6.06871">
        <ele>198.39999389648</ele>
        <time>2017-03-29T12:12:59Z</time>
      </trkpt>
      <trkpt lat="43.41061" lon="6.06871">
        <ele>198.19999694824</ele>
        <time>2017-03-29T12:13:01Z</time>
      </trkpt>
      <trkpt lat="43.4106" lon="6.06872">
        <ele>198</ele>
        <time>2017-03-29T12:13:04Z</time>
      </trkpt>
      <trkpt lat="43.41057" lon="6.06874">
        <ele>198.19999694824</ele>
        <time>2017-03-29T12:13:06Z</time>
      </trkpt>
      <trkpt lat="43.41044" lon="6.0688">
        <ele>198.19999694824</ele>
        <time>2017-03-29T12:13:11Z</time>
      </trkpt>
      <trkpt lat="43.41027" lon="6.06888">
        <ele>197.39999389648</ele>
        <time>2017-03-29T12:13:15Z</time>
      </trkpt>
      <trkpt lat="43.41019" lon="6.0689">
        <ele>196.80000305176</ele>
        <time>2017-03-29T12:13:19Z</time>
      </trkpt>
      <trkpt lat="43.41017" lon="6.06894">
        <ele>196.80000305176</ele>
        <time>2017-03-29T12:13:21Z</time>
      </trkpt>
      <trkpt lat="43.41002" lon="6.06919">
        <ele>196.39999389648</ele>
        <time>2017-03-29T12:13:29Z</time>
      </trkpt>
      <trkpt lat="43.40998" lon="6.06921">
        <ele>196.19999694824</ele>
        <time>2017-03-29T12:13:30Z</time>
      </trkpt>
      <trkpt lat="43.40994" lon="6.06923">
        <ele>196.19999694824</ele>
        <time>2017-03-29T12:13:31Z</time>
      </trkpt>
      <trkpt lat="43.40945" lon="6.06942">
        <ele>196.39999389648</ele>
        <time>2017-03-29T12:13:41Z</time>
      </trkpt>
      <trkpt lat="43.40914" lon="6.06955">
        <ele>196.60000610352</ele>
        <time>2017-03-29T12:13:47Z</time>
      </trkpt>
      <trkpt lat="43.40907" lon="6.06965">
        <ele>196.60000610352</ele>
        <time>2017-03-29T12:13:49Z</time>
      </trkpt>
      <trkpt lat="43.40902" lon="6.06985">
        <ele>196.80000305176</ele>
        <time>2017-03-29T12:13:52Z</time>
      </trkpt>
      <trkpt lat="43.40895" lon="6.06995">
        <ele>197</ele>
        <time>2017-03-29T12:13:54Z</time>
      </trkpt>
      <trkpt lat="43.40886" lon="6.07">
        <ele>197</ele>
        <time>2017-03-29T12:13:56Z</time>
      </trkpt>
      <trkpt lat="43.40862" lon="6.07006">
        <ele>197</ele>
        <time>2017-03-29T12:14:01Z</time>
      </trkpt>
      <trkpt lat="43.40845" lon="6.07009">
        <ele>197.19999694824</ele>
        <time>2017-03-29T12:14:06Z</time>
      </trkpt>
      <trkpt lat="43.40842" lon="6.07012">
        <ele>197.39999389648</ele>
        <time>2017-03-29T12:14:07Z</time>
      </trkpt>
      <trkpt lat="43.4084" lon="6.07022">
        <ele>197.39999389648</ele>
        <time>2017-03-29T12:14:09Z</time>
      </trkpt>
      <trkpt lat="43.40841" lon="6.07034">
        <ele>197.39999389648</ele>
        <time>2017-03-29T12:14:11Z</time>
      </trkpt>
      <trkpt lat="43.40844" lon="6.07054">
        <ele>197.39999389648</ele>
        <time>2017-03-29T12:14:14Z</time>
      </trkpt>
      <trkpt lat="43.40845" lon="6.07069">
        <ele>197.39999389648</ele>
        <time>2017-03-29T12:14:16Z</time>
      </trkpt>
      <trkpt lat="43.40845" lon="6.07085">
        <ele>197.39999389648</ele>
        <time>2017-03-29T12:14:18Z</time>
      </trkpt>
      <trkpt lat="43.40845" lon="6.0711">
        <ele>197.19999694824</ele>
        <time>2017-03-29T12:14:21Z</time>
      </trkpt>
      <trkpt lat="43.40841" lon="6.07134">
        <ele>197.19999694824</ele>
        <time>2017-03-29T12:14:24Z</time>
      </trkpt>
      <trkpt lat="43.40824" lon="6.07183">
        <ele>197.60000610352</ele>
        <time>2017-03-29T12:14:31Z</time>
      </trkpt>
      <trkpt lat="43.408" lon="6.07218">
        <ele>197.80000305176</ele>
        <time>2017-03-29T12:14:37Z</time>
      </trkpt>
      <trkpt lat="43.40782" lon="6.07237">
        <ele>197.80000305176</ele>
        <time>2017-03-29T12:14:41Z</time>
      </trkpt>
      <trkpt lat="43.40731" lon="6.07269">
        <ele>198</ele>
        <time>2017-03-29T12:14:51Z</time>
      </trkpt>
      <trkpt lat="43.40716" lon="6.07277">
        <ele>198.39999389648</ele>
        <time>2017-03-29T12:14:54Z</time>
      </trkpt>
      <trkpt lat="43.40694" lon="6.07289">
        <ele>199.39999389648</ele>
        <time>2017-03-29T12:14:59Z</time>
      </trkpt>
      <trkpt lat="43.40685" lon="6.07295">
        <ele>199.80000305176</ele>
        <time>2017-03-29T12:15:01Z</time>
      </trkpt>
      <trkpt lat="43.40656" lon="6.07313">
        <ele>200.60000610352</ele>
        <time>2017-03-29T12:15:08Z</time>
      </trkpt>
      <trkpt lat="43.40643" lon="6.07319">
        <ele>201</ele>
        <time>2017-03-29T12:15:11Z</time>
      </trkpt>
      <trkpt lat="43.40628" lon="6.07329">
        <ele>201.60000610352</ele>
        <time>2017-03-29T12:15:15Z</time>
      </trkpt>
      <trkpt lat="43.40623" lon="6.07338">
        <ele>202</ele>
        <time>2017-03-29T12:15:17Z</time>
      </trkpt>
      <trkpt lat="43.40631" lon="6.07357">
        <ele>202</ele>
        <time>2017-03-29T12:15:21Z</time>
      </trkpt>
      <trkpt lat="43.40662" lon="6.07412">
        <ele>201.80000305176</ele>
        <time>2017-03-29T12:15:31Z</time>
      </trkpt>
      <trkpt lat="43.4068" lon="6.07448">
        <ele>201.19999694824</ele>
        <time>2017-03-29T12:15:37Z</time>
      </trkpt>
      <trkpt lat="43.4069" lon="6.07494">
        <ele>200.60000610352</ele>
        <time>2017-03-29T12:15:43Z</time>
      </trkpt>
      <trkpt lat="43.40702" lon="6.07563">
        <ele>200</ele>
        <time>2017-03-29T12:15:51Z</time>
      </trkpt>
      <trkpt lat="43.40718" lon="6.07647">
        <ele>198.80000305176</ele>
        <time>2017-03-29T12:16:01Z</time>
      </trkpt>
      <trkpt lat="43.40725" lon="6.07662">
        <ele>198.60000610352</ele>
        <time>2017-03-29T12:16:03Z</time>
      </trkpt>
      <trkpt lat="43.40735" lon="6.07674">
        <ele>198.60000610352</ele>
        <time>2017-03-29T12:16:05Z</time>
      </trkpt>
      <trkpt lat="43.40752" lon="6.07686">
        <ele>198.19999694824</ele>
        <time>2017-03-29T12:16:08Z</time>
      </trkpt>
      <trkpt lat="43.40771" lon="6.07693">
        <ele>198</ele>
        <time>2017-03-29T12:16:11Z</time>
      </trkpt>
      <trkpt lat="43.40826" lon="6.07725">
        <ele>197.39999389648</ele>
        <time>2017-03-29T12:16:20Z</time>
      </trkpt>
      <trkpt lat="43.40873" lon="6.07779">
        <ele>197.19999694824</ele>
        <time>2017-03-29T12:16:29Z</time>
      </trkpt>
      <trkpt lat="43.40883" lon="6.07791">
        <ele>197.19999694824</ele>
        <time>2017-03-29T12:16:31Z</time>
      </trkpt>
      <trkpt lat="43.40937" lon="6.07825">
        <ele>197.19999694824</ele>
        <time>2017-03-29T12:16:40Z</time>
      </trkpt>
      <trkpt lat="43.40944" lon="6.07829">
        <ele>197.19999694824</ele>
        <time>2017-03-29T12:16:41Z</time>
      </trkpt>
      <trkpt lat="43.40982" lon="6.07853">
        <ele>197.39999389648</ele>
        <time>2017-03-29T12:16:48Z</time>
      </trkpt>
      <trkpt lat="43.40993" lon="6.0787">
        <ele>197.60000610352</ele>
        <time>2017-03-29T12:16:51Z</time>
      </trkpt>
      <trkpt lat="43.41011" lon="6.07912">
        <ele>198.39999389648</ele>
        <time>2017-03-29T12:16:58Z</time>
      </trkpt>
      <trkpt lat="43.41022" lon="6.07936">
        <ele>199.60000610352</ele>
        <time>2017-03-29T12:17:03Z</time>
      </trkpt>
      <trkpt lat="43.41026" lon="6.07944">
        <ele>200.39999389648</ele>
        <time>2017-03-29T12:17:05Z</time>
      </trkpt>
      <trkpt lat="43.41038" lon="6.07968">
        <ele>202</ele>
        <time>2017-03-29T12:17:11Z</time>
      </trkpt>
      <trkpt lat="43.41045" lon="6.07983">
        <ele>203</ele>
        <time>2017-03-29T12:17:15Z</time>
      </trkpt>
      <trkpt lat="43.41049" lon="6.0799">
        <ele>203.60000610352</ele>
        <time>2017-03-29T12:17:17Z</time>
      </trkpt>
      <trkpt lat="43.41055" lon="6.08003">
        <ele>204.39999389648</ele>
        <time>2017-03-29T12:17:21Z</time>
      </trkpt>
      <trkpt lat="43.41061" lon="6.08017">
        <ele>205.39999389648</ele>
        <time>2017-03-29T12:17:25Z</time>
      </trkpt>
      <trkpt lat="43.41068" lon="6.0803">
        <ele>206.19999694824</ele>
        <time>2017-03-29T12:17:30Z</time>
      </trkpt>
      <trkpt lat="43.41068" lon="6.08032">
        <ele>206.39999389648</ele>
        <time>2017-03-29T12:17:31Z</time>
      </trkpt>
      <trkpt lat="43.41068" lon="6.08036">
        <ele>206.39999389648</ele>
        <time>2017-03-29T12:17:33Z</time>
      </trkpt>
      <trkpt lat="43.41067" lon="6.08037">
        <ele>206.39999389648</ele>
        <time>2017-03-29T12:17:34Z</time>
      </trkpt>
      <trkpt lat="43.41063" lon="6.0804">
        <ele>206.39999389648</ele>
        <time>2017-03-29T12:17:36Z</time>
      </trkpt>
      <trkpt lat="43.41058" lon="6.08043">
        <ele>206.19999694824</ele>
        <time>2017-03-29T12:17:38Z</time>
      </trkpt>
      <trkpt lat="43.41048" lon="6.08048">
        <ele>205.60000610352</ele>
        <time>2017-03-29T12:17:41Z</time>
      </trkpt>
      <trkpt lat="43.41043" lon="6.08051">
        <ele>205.39999389648</ele>
        <time>2017-03-29T12:17:42Z</time>
      </trkpt>
      <trkpt lat="43.41022" lon="6.08064">
        <ele>204.39999389648</ele>
        <time>2017-03-29T12:17:47Z</time>
      </trkpt>
      <trkpt lat="43.41011" lon="6.08071">
        <ele>204.19999694824</ele>
        <time>2017-03-29T12:17:50Z</time>
      </trkpt>
      <trkpt lat="43.41007" lon="6.08073">
        <ele>204.39999389648</ele>
        <time>2017-03-29T12:17:51Z</time>
      </trkpt>
      <trkpt lat="43.40998" lon="6.0808">
        <ele>204.60000610352</ele>
        <time>2017-03-29T12:17:54Z</time>
      </trkpt>
      <trkpt lat="43.4099" lon="6.08086">
        <ele>205</ele>
        <time>2017-03-29T12:17:57Z</time>
      </trkpt>
      <trkpt lat="43.40978" lon="6.08093">
        <ele>205.39999389648</ele>
        <time>2017-03-29T12:18:01Z</time>
      </trkpt>
      <trkpt lat="43.4097" lon="6.08099">
        <ele>205.60000610352</ele>
        <time>2017-03-29T12:18:04Z</time>
      </trkpt>
      <trkpt lat="43.40949" lon="6.08114">
        <ele>206</ele>
        <time>2017-03-29T12:18:11Z</time>
      </trkpt>
      <trkpt lat="43.40936" lon="6.08122">
        <ele>206</ele>
        <time>2017-03-29T12:18:15Z</time>
      </trkpt>
      <trkpt lat="43.40919" lon="6.08129">
        <ele>205.19999694824</ele>
        <time>2017-03-29T12:18:19Z</time>
      </trkpt>
      <trkpt lat="43.40909" lon="6.08133">
        <ele>205</ele>
        <time>2017-03-29T12:18:21Z</time>
      </trkpt>
      <trkpt lat="43.40892" lon="6.08139">
        <ele>204.19999694824</ele>
        <time>2017-03-29T12:18:24Z</time>
      </trkpt>
      <trkpt lat="43.40881" lon="6.08144">
        <ele>203.19999694824</ele>
        <time>2017-03-29T12:18:26Z</time>
      </trkpt>
      <trkpt lat="43.40876" lon="6.08148">
        <ele>202.60000610352</ele>
        <time>2017-03-29T12:18:27Z</time>
      </trkpt>
      <trkpt lat="43.40867" lon="6.08159">
        <ele>202.19999694824</ele>
        <time>2017-03-29T12:18:29Z</time>
      </trkpt>
      <trkpt lat="43.4086" lon="6.08185">
        <ele>202.19999694824</ele>
        <time>2017-03-29T12:18:33Z</time>
      </trkpt>
      <trkpt lat="43.40854" lon="6.08202">
        <ele>202.60000610352</ele>
        <time>2017-03-29T12:18:36Z</time>
      </trkpt>
      <trkpt lat="43.40845" lon="6.08218">
        <ele>202.80000305176</ele>
        <time>2017-03-29T12:18:39Z</time>
      </trkpt>
      <trkpt lat="43.4084" lon="6.08227">
        <ele>202.80000305176</ele>
        <time>2017-03-29T12:18:41Z</time>
      </trkpt>
      <trkpt lat="43.40828" lon="6.08245">
        <ele>203.19999694824</ele>
        <time>2017-03-29T12:18:45Z</time>
      </trkpt>
      <trkpt lat="43.4081" lon="6.08272">
        <ele>203.80000305176</ele>
        <time>2017-03-29T12:18:51Z</time>
      </trkpt>
      <trkpt lat="43.40794" lon="6.08301">
        <ele>204</ele>
        <time>2017-03-29T12:18:57Z</time>
      </trkpt>
      <trkpt lat="43.40785" lon="6.08322">
        <ele>204</ele>
        <time>2017-03-29T12:19:01Z</time>
      </trkpt>
      <trkpt lat="43.40775" lon="6.0835">
        <ele>204.19999694824</ele>
        <time>2017-03-29T12:19:06Z</time>
      </trkpt>
      <trkpt lat="43.40769" lon="6.08371">
        <ele>205.19999694824</ele>
        <time>2017-03-29T12:19:10Z</time>
      </trkpt>
      <trkpt lat="43.4077" lon="6.08389">
        <ele>206.39999389648</ele>
        <time>2017-03-29T12:19:14Z</time>
      </trkpt>
      <trkpt lat="43.40773" lon="6.084">
        <ele>207.19999694824</ele>
        <time>2017-03-29T12:19:17Z</time>
      </trkpt>
      <trkpt lat="43.40774" lon="6.08404">
        <ele>207.60000610352</ele>
        <time>2017-03-29T12:19:18Z</time>
      </trkpt>
      <trkpt lat="43.40777" lon="6.08415">
        <ele>208.39999389648</ele>
        <time>2017-03-29T12:19:21Z</time>
      </trkpt>
      <trkpt lat="43.40782" lon="6.08432">
        <ele>209.60000610352</ele>
        <time>2017-03-29T12:19:26Z</time>
      </trkpt>
      <trkpt lat="43.40783" lon="6.08439">
        <ele>209.80000305176</ele>
        <time>2017-03-29T12:19:28Z</time>
      </trkpt>
      <trkpt lat="43.40785" lon="6.08448">
        <ele>210.19999694824</ele>
        <time>2017-03-29T12:19:31Z</time>
      </trkpt>
      <trkpt lat="43.40785" lon="6.08457">
        <ele>211</ele>
        <time>2017-03-29T12:19:34Z</time>
      </trkpt>
      <trkpt lat="43.40788" lon="6.08475">
        <ele>212.19999694824</ele>
        <time>2017-03-29T12:19:40Z</time>
      </trkpt>
      <trkpt lat="43.40788" lon="6.08478">
        <ele>212.39999389648</ele>
        <time>2017-03-29T12:19:41Z</time>
      </trkpt>
      <trkpt lat="43.40791" lon="6.08494">
        <ele>213</ele>
        <time>2017-03-29T12:19:47Z</time>
      </trkpt>
      <trkpt lat="43.40791" lon="6.08497">
        <ele>213.19999694824</ele>
        <time>2017-03-29T12:19:48Z</time>
      </trkpt>
      <trkpt lat="43.40792" lon="6.08505">
        <ele>213.60000610352</ele>
        <time>2017-03-29T12:19:51Z</time>
      </trkpt>
      <trkpt lat="43.40794" lon="6.08513">
        <ele>214.19999694824</ele>
        <time>2017-03-29T12:19:54Z</time>
      </trkpt>
      <trkpt lat="43.40799" lon="6.08533">
        <ele>215</ele>
        <time>2017-03-29T12:20:01Z</time>
      </trkpt>
      <trkpt lat="43.40804" lon="6.08551">
        <ele>215.39999389648</ele>
        <time>2017-03-29T12:20:07Z</time>
      </trkpt>
      <trkpt lat="43.40806" lon="6.08564">
        <ele>215.80000305176</ele>
        <time>2017-03-29T12:20:11Z</time>
      </trkpt>
      <trkpt lat="43.4081" lon="6.08596">
        <ele>217.19999694824</ele>
        <time>2017-03-29T12:20:21Z</time>
      </trkpt>
      <trkpt lat="43.40813" lon="6.08609">
        <ele>217.39999389648</ele>
        <time>2017-03-29T12:20:25Z</time>
      </trkpt>
      <trkpt lat="43.40823" lon="6.0864">
        <ele>219.60000610352</ele>
        <time>2017-03-29T12:20:36Z</time>
      </trkpt>
      <trkpt lat="43.40827" lon="6.08653">
        <ele>220.19999694824</ele>
        <time>2017-03-29T12:20:41Z</time>
      </trkpt>
      <trkpt lat="43.40829" lon="6.08658">
        <ele>220.60000610352</ele>
        <time>2017-03-29T12:20:43Z</time>
      </trkpt>
      <trkpt lat="43.40833" lon="6.08678">
        <ele>221.60000610352</ele>
        <time>2017-03-29T12:20:51Z</time>
      </trkpt>
      <trkpt lat="43.40836" lon="6.08696">
        <ele>222.80000305176</ele>
        <time>2017-03-29T12:20:57Z</time>
      </trkpt>
      <trkpt lat="43.40835" lon="6.08708">
        <ele>223.19999694824</ele>
        <time>2017-03-29T12:21:01Z</time>
      </trkpt>
      <trkpt lat="43.40833" lon="6.08728">
        <ele>223.80000305176</ele>
        <time>2017-03-29T12:21:08Z</time>
      </trkpt>
      <trkpt lat="43.40832" lon="6.08738">
        <ele>224</ele>
        <time>2017-03-29T12:21:11Z</time>
      </trkpt>
      <trkpt lat="43.40829" lon="6.08761">
        <ele>223.39999389648</ele>
        <time>2017-03-29T12:21:16Z</time>
      </trkpt>
      <trkpt lat="43.40824" lon="6.08786">
        <ele>223.60000610352</ele>
        <time>2017-03-29T12:21:21Z</time>
      </trkpt>
      <trkpt lat="43.40819" lon="6.08803">
        <ele>223.80000305176</ele>
        <time>2017-03-29T12:21:24Z</time>
      </trkpt>
      <trkpt lat="43.40815" lon="6.08818">
        <ele>223.80000305176</ele>
        <time>2017-03-29T12:21:27Z</time>
      </trkpt>
      <trkpt lat="43.40807" lon="6.08838">
        <ele>223.60000610352</ele>
        <time>2017-03-29T12:21:31Z</time>
      </trkpt>
      <trkpt lat="43.40792" lon="6.08882">
        <ele>223.60000610352</ele>
        <time>2017-03-29T12:21:40Z</time>
      </trkpt>
      <trkpt lat="43.40791" lon="6.08887">
        <ele>223.80000305176</ele>
        <time>2017-03-29T12:21:41Z</time>
      </trkpt>
      <trkpt lat="43.40778" lon="6.08921">
        <ele>224.60000610352</ele>
        <time>2017-03-29T12:21:50Z</time>
      </trkpt>
      <trkpt lat="43.40777" lon="6.08922">
        <ele>224.80000305176</ele>
        <time>2017-03-29T12:21:51Z</time>
      </trkpt>
      <trkpt lat="43.40773" lon="6.08924">
        <ele>225</ele>
        <time>2017-03-29T12:21:53Z</time>
      </trkpt>
      <trkpt lat="43.40759" lon="6.08928">
        <ele>226</ele>
        <time>2017-03-29T12:21:59Z</time>
      </trkpt>
      <trkpt lat="43.40753" lon="6.0893">
        <ele>226.19999694824</ele>
        <time>2017-03-29T12:22:01Z</time>
      </trkpt>
      <trkpt lat="43.4072" lon="6.08948">
        <ele>226</ele>
        <time>2017-03-29T12:22:11Z</time>
      </trkpt>
      <trkpt lat="43.40704" lon="6.08958">
        <ele>225.19999694824</ele>
        <time>2017-03-29T12:22:15Z</time>
      </trkpt>
      <trkpt lat="43.407" lon="6.0896">
        <ele>224.80000305176</ele>
        <time>2017-03-29T12:22:16Z</time>
      </trkpt>
      <trkpt lat="43.4069" lon="6.0897">
        <ele>224.39999389648</ele>
        <time>2017-03-29T12:22:21Z</time>
      </trkpt>
      <trkpt lat="43.40697" lon="6.09008">
        <ele>224.60000610352</ele>
        <time>2017-03-29T12:22:29Z</time>
      </trkpt>
      <trkpt lat="43.40699" lon="6.09018">
        <ele>224.80000305176</ele>
        <time>2017-03-29T12:22:31Z</time>
      </trkpt>
      <trkpt lat="43.40708" lon="6.09056">
        <ele>226</ele>
        <time>2017-03-29T12:22:39Z</time>
      </trkpt>
      <trkpt lat="43.4071" lon="6.09065">
        <ele>226.39999389648</ele>
        <time>2017-03-29T12:22:41Z</time>
      </trkpt>
      <trkpt lat="43.40715" lon="6.09085">
        <ele>227.19999694824</ele>
        <time>2017-03-29T12:22:46Z</time>
      </trkpt>
      <trkpt lat="43.4072" lon="6.09106">
        <ele>227.80000305176</ele>
        <time>2017-03-29T12:22:51Z</time>
      </trkpt>
      <trkpt lat="43.40723" lon="6.09122">
        <ele>228.19999694824</ele>
        <time>2017-03-29T12:22:55Z</time>
      </trkpt>
      <trkpt lat="43.40729" lon="6.09144">
        <ele>229</ele>
        <time>2017-03-29T12:23:01Z</time>
      </trkpt>
      <trkpt lat="43.40735" lon="6.09168">
        <ele>230.39999389648</ele>
        <time>2017-03-29T12:23:08Z</time>
      </trkpt>
      <trkpt lat="43.40737" lon="6.09178">
        <ele>230.60000610352</ele>
        <time>2017-03-29T12:23:11Z</time>
      </trkpt>
      <trkpt lat="43.40742" lon="6.09202">
        <ele>231.60000610352</ele>
        <time>2017-03-29T12:23:18Z</time>
      </trkpt>
      <trkpt lat="43.40744" lon="6.09212">
        <ele>232</ele>
        <time>2017-03-29T12:23:21Z</time>
      </trkpt>
      <trkpt lat="43.40749" lon="6.09246">
        <ele>233</ele>
        <time>2017-03-29T12:23:31Z</time>
      </trkpt>
      <trkpt lat="43.40752" lon="6.09271">
        <ele>233.80000305176</ele>
        <time>2017-03-29T12:23:38Z</time>
      </trkpt>
      <trkpt lat="43.40757" lon="6.09301">
        <ele>235</ele>
        <time>2017-03-29T12:23:47Z</time>
      </trkpt>
      <trkpt lat="43.40759" lon="6.09315">
        <ele>235.39999389648</ele>
        <time>2017-03-29T12:23:51Z</time>
      </trkpt>
      <trkpt lat="43.40761" lon="6.09338">
        <ele>235.39999389648</ele>
        <time>2017-03-29T12:23:57Z</time>
      </trkpt>
      <trkpt lat="43.40762" lon="6.09362">
        <ele>236</ele>
        <time>2017-03-29T12:24:03Z</time>
      </trkpt>
      <trkpt lat="43.40768" lon="6.09394">
        <ele>236.60000610352</ele>
        <time>2017-03-29T12:24:11Z</time>
      </trkpt>
      <trkpt lat="43.40783" lon="6.09438">
        <ele>236.80000305176</ele>
        <time>2017-03-29T12:24:21Z</time>
      </trkpt>
      <trkpt lat="43.40789" lon="6.09472">
        <ele>236.39999389648</ele>
        <time>2017-03-29T12:24:27Z</time>
      </trkpt>
      <trkpt lat="43.4079" lon="6.09479">
        <ele>236.19999694824</ele>
        <time>2017-03-29T12:24:28Z</time>
      </trkpt>
      <trkpt lat="43.40794" lon="6.09498">
        <ele>235.39999389648</ele>
        <time>2017-03-29T12:24:31Z</time>
      </trkpt>
      <trkpt lat="43.408" lon="6.09512">
        <ele>234.80000305176</ele>
        <time>2017-03-29T12:24:33Z</time>
      </trkpt>
      <trkpt lat="43.40811" lon="6.0952">
        <ele>234</ele>
        <time>2017-03-29T12:24:35Z</time>
      </trkpt>
      <trkpt lat="43.40817" lon="6.09523">
        <ele>233.60000610352</ele>
        <time>2017-03-29T12:24:36Z</time>
      </trkpt>
      <trkpt lat="43.40842" lon="6.09535">
        <ele>232.80000305176</ele>
        <time>2017-03-29T12:24:40Z</time>
      </trkpt>
      <trkpt lat="43.40849" lon="6.09537">
        <ele>232.80000305176</ele>
        <time>2017-03-29T12:24:41Z</time>
      </trkpt>
      <trkpt lat="43.40888" lon="6.09555">
        <ele>234</ele>
        <time>2017-03-29T12:24:50Z</time>
      </trkpt>
      <trkpt lat="43.40894" lon="6.09558">
        <ele>234.80000305176</ele>
        <time>2017-03-29T12:24:52Z</time>
      </trkpt>
      <trkpt lat="43.40905" lon="6.09564">
        <ele>236.19999694824</ele>
        <time>2017-03-29T12:24:56Z</time>
      </trkpt>
      <trkpt lat="43.40916" lon="6.09568">
        <ele>237</ele>
        <time>2017-03-29T12:25:00Z</time>
      </trkpt>
      <trkpt lat="43.40926" lon="6.09572">
        <ele>238.39999389648</ele>
        <time>2017-03-29T12:25:04Z</time>
      </trkpt>
      <trkpt lat="43.40928" lon="6.09573">
        <ele>238.60000610352</ele>
        <time>2017-03-29T12:25:05Z</time>
      </trkpt>
      <trkpt lat="43.40933" lon="6.09576">
        <ele>239.39999389648</ele>
        <time>2017-03-29T12:25:07Z</time>
      </trkpt>
      <trkpt lat="43.4094" lon="6.09581">
        <ele>240.39999389648</ele>
        <time>2017-03-29T12:25:10Z</time>
      </trkpt>
      <trkpt lat="43.40943" lon="6.09582">
        <ele>240.80000305176</ele>
        <time>2017-03-29T12:25:11Z</time>
      </trkpt>
      <trkpt lat="43.4095" lon="6.09585">
        <ele>241.60000610352</ele>
        <time>2017-03-29T12:25:14Z</time>
      </trkpt>
      <trkpt lat="43.40955" lon="6.09587">
        <ele>242.19999694824</ele>
        <time>2017-03-29T12:25:16Z</time>
      </trkpt>
      <trkpt lat="43.40959" lon="6.09589">
        <ele>242.60000610352</ele>
        <time>2017-03-29T12:25:18Z</time>
      </trkpt>
      <trkpt lat="43.40966" lon="6.09592">
        <ele>243.39999389648</ele>
        <time>2017-03-29T12:25:21Z</time>
      </trkpt>
      <trkpt lat="43.40968" lon="6.09593">
        <ele>243.80000305176</ele>
        <time>2017-03-29T12:25:22Z</time>
      </trkpt>
      <trkpt lat="43.40972" lon="6.09595">
        <ele>244.39999389648</ele>
        <time>2017-03-29T12:25:25Z</time>
      </trkpt>
      <trkpt lat="43.40975" lon="6.09597">
        <ele>244.80000305176</ele>
        <time>2017-03-29T12:25:27Z</time>
      </trkpt>
      <trkpt lat="43.40982" lon="6.096">
        <ele>245.80000305176</ele>
        <time>2017-03-29T12:25:31Z</time>
      </trkpt>
      <trkpt lat="43.40988" lon="6.09603">
        <ele>246.39999389648</ele>
        <time>2017-03-29T12:25:34Z</time>
      </trkpt>
      <trkpt lat="43.40992" lon="6.09605">
        <ele>246.80000305176</ele>
        <time>2017-03-29T12:25:36Z</time>
      </trkpt>
      <trkpt lat="43.40995" lon="6.09608">
        <ele>247.19999694824</ele>
        <time>2017-03-29T12:25:38Z</time>
      </trkpt>
      <trkpt lat="43.41001" lon="6.09611">
        <ele>248</ele>
        <time>2017-03-29T12:25:42Z</time>
      </trkpt>
      <trkpt lat="43.41004" lon="6.09613">
        <ele>248.39999389648</ele>
        <time>2017-03-29T12:25:44Z</time>
      </trkpt>
      <trkpt lat="43.41007" lon="6.09614">
        <ele>249</ele>
        <time>2017-03-29T12:25:46Z</time>
      </trkpt>
      <trkpt lat="43.4101" lon="6.09616">
        <ele>249.39999389648</ele>
        <time>2017-03-29T12:25:48Z</time>
      </trkpt>
      <trkpt lat="43.41014" lon="6.09618">
        <ele>249.80000305176</ele>
        <time>2017-03-29T12:25:51Z</time>
      </trkpt>
      <trkpt lat="43.41016" lon="6.09619">
        <ele>250</ele>
        <time>2017-03-29T12:25:52Z</time>
      </trkpt>
      <trkpt lat="43.41018" lon="6.0962">
        <ele>250.19999694824</ele>
        <time>2017-03-29T12:25:53Z</time>
      </trkpt>
      <trkpt lat="43.41021" lon="6.09621">
        <ele>250.60000610352</ele>
        <time>2017-03-29T12:25:55Z</time>
      </trkpt>
      <trkpt lat="43.41026" lon="6.09626">
        <ele>251.19999694824</ele>
        <time>2017-03-29T12:25:59Z</time>
      </trkpt>
      <trkpt lat="43.41029" lon="6.09627">
        <ele>251.80000305176</ele>
        <time>2017-03-29T12:26:01Z</time>
      </trkpt>
      <trkpt lat="43.41039" lon="6.09635">
        <ele>253.19999694824</ele>
        <time>2017-03-29T12:26:08Z</time>
      </trkpt>
      <trkpt lat="43.41042" lon="6.09637">
        <ele>253.60000610352</ele>
        <time>2017-03-29T12:26:10Z</time>
      </trkpt>
      <trkpt lat="43.41051" lon="6.09643">
        <ele>254.80000305176</ele>
        <time>2017-03-29T12:26:16Z</time>
      </trkpt>
      <trkpt lat="43.41058" lon="6.09648">
        <ele>255.39999389648</ele>
        <time>2017-03-29T12:26:21Z</time>
      </trkpt>
      <trkpt lat="43.41064" lon="6.09652">
        <ele>256</ele>
        <time>2017-03-29T12:26:25Z</time>
      </trkpt>
      <trkpt lat="43.41071" lon="6.09658">
        <ele>256.60000610352</ele>
        <time>2017-03-29T12:26:30Z</time>
      </trkpt>
      <trkpt lat="43.41072" lon="6.09659">
        <ele>256.79998779297</ele>
        <time>2017-03-29T12:26:31Z</time>
      </trkpt>
      <trkpt lat="43.41076" lon="6.09663">
        <ele>257</ele>
        <time>2017-03-29T12:26:33Z</time>
      </trkpt>
      <trkpt lat="43.41084" lon="6.09675">
        <ele>258</ele>
        <time>2017-03-29T12:26:41Z</time>
      </trkpt>
      <trkpt lat="43.41089" lon="6.09684">
        <ele>258.39999389648</ele>
        <time>2017-03-29T12:26:47Z</time>
      </trkpt>
      <trkpt lat="43.41094" lon="6.09692">
        <ele>258.39999389648</ele>
        <time>2017-03-29T12:26:51Z</time>
      </trkpt>
      <trkpt lat="43.41105" lon="6.09713">
        <ele>258.20001220703</ele>
        <time>2017-03-29T12:26:58Z</time>
      </trkpt>
      <trkpt lat="43.41111" lon="6.09727">
        <ele>258.20001220703</ele>
        <time>2017-03-29T12:27:01Z</time>
      </trkpt>
      <trkpt lat="43.41116" lon="6.09743">
        <ele>258</ele>
        <time>2017-03-29T12:27:04Z</time>
      </trkpt>
      <trkpt lat="43.41119" lon="6.09754">
        <ele>258</ele>
        <time>2017-03-29T12:27:06Z</time>
      </trkpt>
      <trkpt lat="43.41122" lon="6.09764">
        <ele>257.79998779297</ele>
        <time>2017-03-29T12:27:08Z</time>
      </trkpt>
      <trkpt lat="43.41124" lon="6.09769">
        <ele>257.60000610352</ele>
        <time>2017-03-29T12:27:09Z</time>
      </trkpt>
      <trkpt lat="43.41129" lon="6.09779">
        <ele>257.20001220703</ele>
        <time>2017-03-29T12:27:11Z</time>
      </trkpt>
      <trkpt lat="43.41137" lon="6.09794">
        <ele>256.79998779297</ele>
        <time>2017-03-29T12:27:14Z</time>
      </trkpt>
      <trkpt lat="43.41151" lon="6.09815">
        <ele>256.20001220703</ele>
        <time>2017-03-29T12:27:18Z</time>
      </trkpt>
      <trkpt lat="43.41162" lon="6.09832">
        <ele>255.80000305176</ele>
        <time>2017-03-29T12:27:21Z</time>
      </trkpt>
      <trkpt lat="43.41174" lon="6.09852">
        <ele>254.19999694824</ele>
        <time>2017-03-29T12:27:24Z</time>
      </trkpt>
      <trkpt lat="43.41203" lon="6.09892">
        <ele>254.19999694824</ele>
        <time>2017-03-29T12:27:31Z</time>
      </trkpt>
      <trkpt lat="43.4123" lon="6.09924">
        <ele>255.19999694824</ele>
        <time>2017-03-29T12:27:38Z</time>
      </trkpt>
      <trkpt lat="43.4124" lon="6.09936">
        <ele>255.80000305176</ele>
        <time>2017-03-29T12:27:41Z</time>
      </trkpt>
      <trkpt lat="43.41256" lon="6.09958">
        <ele>256.20001220703</ele>
        <time>2017-03-29T12:27:46Z</time>
      </trkpt>
      <trkpt lat="43.41271" lon="6.09984">
        <ele>255.80000305176</ele>
        <time>2017-03-29T12:27:51Z</time>
      </trkpt>
      <trkpt lat="43.41273" lon="6.09996">
        <ele>255.60000610352</ele>
        <time>2017-03-29T12:27:53Z</time>
      </trkpt>
      <trkpt lat="43.41247" lon="6.10018">
        <ele>256.79998779297</ele>
        <time>2017-03-29T12:28:01Z</time>
      </trkpt>
      <trkpt lat="43.41238" lon="6.10023">
        <ele>257.39999389648</ele>
        <time>2017-03-29T12:28:04Z</time>
      </trkpt>
      <trkpt lat="43.41226" lon="6.1003">
        <ele>258.39999389648</ele>
        <time>2017-03-29T12:28:08Z</time>
      </trkpt>
      <trkpt lat="43.41218" lon="6.10036">
        <ele>259.20001220703</ele>
        <time>2017-03-29T12:28:11Z</time>
      </trkpt>
      <trkpt lat="43.41217" lon="6.10039">
        <ele>259.39999389648</ele>
        <time>2017-03-29T12:28:12Z</time>
      </trkpt>
      <trkpt lat="43.41221" lon="6.10058">
        <ele>260.39999389648</ele>
        <time>2017-03-29T12:28:17Z</time>
      </trkpt>
      <trkpt lat="43.41227" lon="6.10076">
        <ele>260.39999389648</ele>
        <time>2017-03-29T12:28:21Z</time>
      </trkpt>
      <trkpt lat="43.4123" lon="6.1009">
        <ele>260.20001220703</ele>
        <time>2017-03-29T12:28:24Z</time>
      </trkpt>
      <trkpt lat="43.41234" lon="6.10105">
        <ele>259.79998779297</ele>
        <time>2017-03-29T12:28:27Z</time>
      </trkpt>
      <trkpt lat="43.4124" lon="6.10128">
        <ele>259.20001220703</ele>
        <time>2017-03-29T12:28:31Z</time>
      </trkpt>
      <trkpt lat="43.41258" lon="6.1018">
        <ele>259</ele>
        <time>2017-03-29T12:28:39Z</time>
      </trkpt>
      <trkpt lat="43.41262" lon="6.10194">
        <ele>259.20001220703</ele>
        <time>2017-03-29T12:28:41Z</time>
      </trkpt>
      <trkpt lat="43.41271" lon="6.10219">
        <ele>258.79998779297</ele>
        <time>2017-03-29T12:28:44Z</time>
      </trkpt>
      <trkpt lat="43.41279" lon="6.10243">
        <ele>258.39999389648</ele>
        <time>2017-03-29T12:28:47Z</time>
      </trkpt>
      <trkpt lat="43.41281" lon="6.10251">
        <ele>258</ele>
        <time>2017-03-29T12:28:48Z</time>
      </trkpt>
      <trkpt lat="43.41286" lon="6.10266">
        <ele>257.79998779297</ele>
        <time>2017-03-29T12:28:50Z</time>
      </trkpt>
      <trkpt lat="43.4129" lon="6.10273">
        <ele>257.60000610352</ele>
        <time>2017-03-29T12:28:51Z</time>
      </trkpt>
      <trkpt lat="43.41292" lon="6.1028">
        <ele>257.60000610352</ele>
        <time>2017-03-29T12:28:52Z</time>
      </trkpt>
      <trkpt lat="43.41304" lon="6.10304">
        <ele>258.39999389648</ele>
        <time>2017-03-29T12:28:57Z</time>
      </trkpt>
      <trkpt lat="43.41307" lon="6.10311">
        <ele>259.39999389648</ele>
        <time>2017-03-29T12:28:59Z</time>
      </trkpt>
      <trkpt lat="43.4131" lon="6.10317">
        <ele>260</ele>
        <time>2017-03-29T12:29:01Z</time>
      </trkpt>
      <trkpt lat="43.41313" lon="6.10324">
        <ele>260.60000610352</ele>
        <time>2017-03-29T12:29:03Z</time>
      </trkpt>
      <trkpt lat="43.41322" lon="6.10342">
        <ele>261.60000610352</ele>
        <time>2017-03-29T12:29:07Z</time>
      </trkpt>
      <trkpt lat="43.41331" lon="6.10363">
        <ele>261.39999389648</ele>
        <time>2017-03-29T12:29:11Z</time>
      </trkpt>
      <trkpt lat="43.41339" lon="6.1038">
        <ele>261.60000610352</ele>
        <time>2017-03-29T12:29:15Z</time>
      </trkpt>
      <trkpt lat="43.41343" lon="6.10386">
        <ele>262.79998779297</ele>
        <time>2017-03-29T12:29:17Z</time>
      </trkpt>
      <trkpt lat="43.4135" lon="6.10399">
        <ele>263.39999389648</ele>
        <time>2017-03-29T12:29:21Z</time>
      </trkpt>
      <trkpt lat="43.4136" lon="6.1042">
        <ele>263.79998779297</ele>
        <time>2017-03-29T12:29:28Z</time>
      </trkpt>
      <trkpt lat="43.41366" lon="6.10431">
        <ele>264</ele>
        <time>2017-03-29T12:29:31Z</time>
      </trkpt>
      <trkpt lat="43.41379" lon="6.1047">
        <ele>263.79998779297</ele>
        <time>2017-03-29T12:29:41Z</time>
      </trkpt>
      <trkpt lat="43.41391" lon="6.10492">
        <ele>263.39999389648</ele>
        <time>2017-03-29T12:29:46Z</time>
      </trkpt>
      <trkpt lat="43.41399" lon="6.10511">
        <ele>262.79998779297</ele>
        <time>2017-03-29T12:29:50Z</time>
      </trkpt>
      <trkpt lat="43.41401" lon="6.10516">
        <ele>262.60000610352</ele>
        <time>2017-03-29T12:29:51Z</time>
      </trkpt>
      <trkpt lat="43.41422" lon="6.10557">
        <ele>262.39999389648</ele>
        <time>2017-03-29T12:30:00Z</time>
      </trkpt>
      <trkpt lat="43.41424" lon="6.10562">
        <ele>262.20001220703</ele>
        <time>2017-03-29T12:30:01Z</time>
      </trkpt>
      <trkpt lat="43.41428" lon="6.1057">
        <ele>262</ele>
        <time>2017-03-29T12:30:03Z</time>
      </trkpt>
      <trkpt lat="43.4143" lon="6.10572">
        <ele>261.79998779297</ele>
        <time>2017-03-29T12:30:04Z</time>
      </trkpt>
      <trkpt lat="43.41442" lon="6.10578">
        <ele>260.39999389648</ele>
        <time>2017-03-29T12:30:08Z</time>
      </trkpt>
      <trkpt lat="43.41444" lon="6.10591">
        <ele>259.79998779297</ele>
        <time>2017-03-29T12:30:11Z</time>
      </trkpt>
      <trkpt lat="43.41447" lon="6.10609">
        <ele>259.20001220703</ele>
        <time>2017-03-29T12:30:15Z</time>
      </trkpt>
      <trkpt lat="43.41447" lon="6.10615">
        <ele>258.60000610352</ele>
        <time>2017-03-29T12:30:16Z</time>
      </trkpt>
      <trkpt lat="43.41448" lon="6.10623">
        <ele>257.79998779297</ele>
        <time>2017-03-29T12:30:17Z</time>
      </trkpt>
      <trkpt lat="43.41449" lon="6.10639">
        <ele>256.60000610352</ele>
        <time>2017-03-29T12:30:19Z</time>
      </trkpt>
      <trkpt lat="43.4145" lon="6.10657">
        <ele>255.80000305176</ele>
        <time>2017-03-29T12:30:21Z</time>
      </trkpt>
      <trkpt lat="43.41451" lon="6.10666">
        <ele>255.60000610352</ele>
        <time>2017-03-29T12:30:22Z</time>
      </trkpt>
      <trkpt lat="43.41452" lon="6.10674">
        <ele>255.19999694824</ele>
        <time>2017-03-29T12:30:23Z</time>
      </trkpt>
      <trkpt lat="43.41454" lon="6.10682">
        <ele>254.60000610352</ele>
        <time>2017-03-29T12:30:24Z</time>
      </trkpt>
      <trkpt lat="43.41455" lon="6.1069">
        <ele>254.39999389648</ele>
        <time>2017-03-29T12:30:25Z</time>
      </trkpt>
      <trkpt lat="43.41459" lon="6.10704">
        <ele>254.19999694824</ele>
        <time>2017-03-29T12:30:27Z</time>
      </trkpt>
      <trkpt lat="43.41465" lon="6.10726">
        <ele>254.39999389648</ele>
        <time>2017-03-29T12:30:31Z</time>
      </trkpt>
      <trkpt lat="43.41474" lon="6.10758">
        <ele>255</ele>
        <time>2017-03-29T12:30:37Z</time>
      </trkpt>
      <trkpt lat="43.41478" lon="6.10772">
        <ele>254.60000610352</ele>
        <time>2017-03-29T12:30:39Z</time>
      </trkpt>
      <trkpt lat="43.41477" lon="6.10787">
        <ele>254.19999694824</ele>
        <time>2017-03-29T12:30:41Z</time>
      </trkpt>
      <trkpt lat="43.41475" lon="6.10799">
        <ele>253.60000610352</ele>
        <time>2017-03-29T12:30:43Z</time>
      </trkpt>
      <trkpt lat="43.41472" lon="6.10805">
        <ele>253.19999694824</ele>
        <time>2017-03-29T12:30:44Z</time>
      </trkpt>
      <trkpt lat="43.41471" lon="6.10811">
        <ele>252.80000305176</ele>
        <time>2017-03-29T12:30:45Z</time>
      </trkpt>
      <trkpt lat="43.41464" lon="6.10831">
        <ele>252</ele>
        <time>2017-03-29T12:30:48Z</time>
      </trkpt>
      <trkpt lat="43.41459" lon="6.10844">
        <ele>251.60000610352</ele>
        <time>2017-03-29T12:30:50Z</time>
      </trkpt>
      <trkpt lat="43.41455" lon="6.10849">
        <ele>251.19999694824</ele>
        <time>2017-03-29T12:30:51Z</time>
      </trkpt>
      <trkpt lat="43.41452" lon="6.10853">
        <ele>251</ele>
        <time>2017-03-29T12:30:52Z</time>
      </trkpt>
      <trkpt lat="43.41437" lon="6.10858">
        <ele>249.80000305176</ele>
        <time>2017-03-29T12:30:56Z</time>
      </trkpt>
      <trkpt lat="43.41423" lon="6.10859">
        <ele>249.19999694824</ele>
        <time>2017-03-29T12:30:59Z</time>
      </trkpt>
      <trkpt lat="43.41418" lon="6.10859">
        <ele>248.60000610352</ele>
        <time>2017-03-29T12:31:00Z</time>
      </trkpt>
      <trkpt lat="43.41415" lon="6.1086">
        <ele>247.80000305176</ele>
        <time>2017-03-29T12:31:01Z</time>
      </trkpt>
      <trkpt lat="43.4141" lon="6.10861">
        <ele>247.19999694824</ele>
        <time>2017-03-29T12:31:02Z</time>
      </trkpt>
      <trkpt lat="43.41403" lon="6.10863">
        <ele>246</ele>
        <time>2017-03-29T12:31:04Z</time>
      </trkpt>
      <trkpt lat="43.41393" lon="6.10866">
        <ele>244.19999694824</ele>
        <time>2017-03-29T12:31:07Z</time>
      </trkpt>
      <trkpt lat="43.41385" lon="6.10869">
        <ele>242.60000610352</ele>
        <time>2017-03-29T12:31:09Z</time>
      </trkpt>
      <trkpt lat="43.41376" lon="6.10874">
        <ele>238.60000610352</ele>
        <time>2017-03-29T12:31:12Z</time>
      </trkpt>
      <trkpt lat="43.41373" lon="6.10876">
        <ele>237</ele>
        <time>2017-03-29T12:31:13Z</time>
      </trkpt>
      <trkpt lat="43.41365" lon="6.10885">
        <ele>235</ele>
        <time>2017-03-29T12:31:16Z</time>
      </trkpt>
      <trkpt lat="43.41357" lon="6.10895">
        <ele>233.19999694824</ele>
        <time>2017-03-29T12:31:19Z</time>
      </trkpt>
      <trkpt lat="43.41356" lon="6.10899">
        <ele>232</ele>
        <time>2017-03-29T12:31:20Z</time>
      </trkpt>
      <trkpt lat="43.41353" lon="6.10905">
        <ele>230.39999389648</ele>
        <time>2017-03-29T12:31:22Z</time>
      </trkpt>
      <trkpt lat="43.41347" lon="6.10914">
        <ele>229.19999694824</ele>
        <time>2017-03-29T12:31:25Z</time>
      </trkpt>
      <trkpt lat="43.41335" lon="6.10929">
        <ele>228</ele>
        <time>2017-03-29T12:31:29Z</time>
      </trkpt>
      <trkpt lat="43.41329" lon="6.1094">
        <ele>227.39999389648</ele>
        <time>2017-03-29T12:31:31Z</time>
      </trkpt>
      <trkpt lat="43.41326" lon="6.10945">
        <ele>226.60000610352</ele>
        <time>2017-03-29T12:31:32Z</time>
      </trkpt>
      <trkpt lat="43.4132" lon="6.10953">
        <ele>224.80000305176</ele>
        <time>2017-03-29T12:31:34Z</time>
      </trkpt>
      <trkpt lat="43.41312" lon="6.10961">
        <ele>223.19999694824</ele>
        <time>2017-03-29T12:31:36Z</time>
      </trkpt>
      <trkpt lat="43.41307" lon="6.10968">
        <ele>222.39999389648</ele>
        <time>2017-03-29T12:31:38Z</time>
      </trkpt>
      <trkpt lat="43.41302" lon="6.10983">
        <ele>220.39999389648</ele>
        <time>2017-03-29T12:31:41Z</time>
      </trkpt>
      <trkpt lat="43.41299" lon="6.10993">
        <ele>218.80000305176</ele>
        <time>2017-03-29T12:31:43Z</time>
      </trkpt>
      <trkpt lat="43.41295" lon="6.11002">
        <ele>217.60000610352</ele>
        <time>2017-03-29T12:31:45Z</time>
      </trkpt>
      <trkpt lat="43.4129" lon="6.11018">
        <ele>216.80000305176</ele>
        <time>2017-03-29T12:31:48Z</time>
      </trkpt>
      <trkpt lat="43.41288" lon="6.1103">
        <ele>215.19999694824</ele>
        <time>2017-03-29T12:31:50Z</time>
      </trkpt>
      <trkpt lat="43.41288" lon="6.11036">
        <ele>214.19999694824</ele>
        <time>2017-03-29T12:31:51Z</time>
      </trkpt>
      <trkpt lat="43.41288" lon="6.11043">
        <ele>213.19999694824</ele>
        <time>2017-03-29T12:31:52Z</time>
      </trkpt>
      <trkpt lat="43.41286" lon="6.11055">
        <ele>211.39999389648</ele>
        <time>2017-03-29T12:31:54Z</time>
      </trkpt>
      <trkpt lat="43.41283" lon="6.11062">
        <ele>210.19999694824</ele>
        <time>2017-03-29T12:31:56Z</time>
      </trkpt>
      <trkpt lat="43.41277" lon="6.11067">
        <ele>208.60000610352</ele>
        <time>2017-03-29T12:31:58Z</time>
      </trkpt>
      <trkpt lat="43.41272" lon="6.11069">
        <ele>207.80000305176</ele>
        <time>2017-03-29T12:31:59Z</time>
      </trkpt>
      <trkpt lat="43.41267" lon="6.11071">
        <ele>207</ele>
        <time>2017-03-29T12:32:00Z</time>
      </trkpt>
      <trkpt lat="43.41261" lon="6.11072">
        <ele>206.60000610352</ele>
        <time>2017-03-29T12:32:01Z</time>
      </trkpt>
      <trkpt lat="43.41256" lon="6.11074">
        <ele>206</ele>
        <time>2017-03-29T12:32:02Z</time>
      </trkpt>
      <trkpt lat="43.41251" lon="6.11077">
        <ele>205.80000305176</ele>
        <time>2017-03-29T12:32:03Z</time>
      </trkpt>
      <trkpt lat="43.41245" lon="6.11083">
        <ele>204.80000305176</ele>
        <time>2017-03-29T12:32:05Z</time>
      </trkpt>
      <trkpt lat="43.41245" lon="6.11084">
        <ele>203.80000305176</ele>
        <time>2017-03-29T12:32:07Z</time>
      </trkpt>
      <trkpt lat="43.41244" lon="6.11083">
        <ele>203.39999389648</ele>
        <time>2017-03-29T12:32:11Z</time>
      </trkpt>
      <trkpt lat="43.41243" lon="6.11083">
        <ele>203.60000610352</ele>
        <time>2017-03-29T12:32:21Z</time>
      </trkpt>
      <trkpt lat="43.41242" lon="6.11081">
        <ele>203.39999389648</ele>
        <time>2017-03-29T12:32:31Z</time>
      </trkpt>
      <trkpt lat="43.41241" lon="6.1108">
        <ele>203</ele>
        <time>2017-03-29T12:32:41Z</time>
      </trkpt>
      <trkpt lat="43.41242" lon="6.11078">
        <ele>203</ele>
        <time>2017-03-29T12:32:51Z</time>
      </trkpt>
      <trkpt lat="43.41242" lon="6.11078">
        <ele>203</ele>
        <time>2017-03-29T12:33:01Z</time>
      </trkpt>
      <trkpt lat="43.41242" lon="6.11079">
        <ele>202.19999694824</ele>
        <time>2017-03-29T12:33:11Z</time>
      </trkpt>
      <trkpt lat="43.41241" lon="6.11083">
        <ele>202.19999694824</ele>
        <time>2017-03-29T12:33:18Z</time>
      </trkpt>
      <trkpt lat="43.41236" lon="6.11085">
        <ele>202</ele>
        <time>2017-03-29T12:33:21Z</time>
      </trkpt>
      <trkpt lat="43.41208" lon="6.11086">
        <ele>201.60000610352</ele>
        <time>2017-03-29T12:33:29Z</time>
      </trkpt>
      <trkpt lat="43.41198" lon="6.11087">
        <ele>201.19999694824</ele>
        <time>2017-03-29T12:33:31Z</time>
      </trkpt>
      <trkpt lat="43.41174" lon="6.11086">
        <ele>201.39999389648</ele>
        <time>2017-03-29T12:33:36Z</time>
      </trkpt>
      <trkpt lat="43.41161" lon="6.11083">
        <ele>201.80000305176</ele>
        <time>2017-03-29T12:33:39Z</time>
      </trkpt>
      <trkpt lat="43.41153" lon="6.1108">
        <ele>202</ele>
        <time>2017-03-29T12:33:41Z</time>
      </trkpt>
      <trkpt lat="43.41131" lon="6.11072">
        <ele>202.80000305176</ele>
        <time>2017-03-29T12:33:46Z</time>
      </trkpt>
      <trkpt lat="43.41116" lon="6.11065">
        <ele>203.19999694824</ele>
        <time>2017-03-29T12:33:50Z</time>
      </trkpt>
      <trkpt lat="43.41112" lon="6.11064">
        <ele>203.19999694824</ele>
        <time>2017-03-29T12:33:51Z</time>
      </trkpt>
      <trkpt lat="43.41066" lon="6.11046">
        <ele>203.19999694824</ele>
        <time>2017-03-29T12:34:01Z</time>
      </trkpt>
      <trkpt lat="43.41021" lon="6.11031">
        <ele>202.60000610352</ele>
        <time>2017-03-29T12:34:11Z</time>
      </trkpt>
      <trkpt lat="43.40996" lon="6.11023">
        <ele>204.19999694824</ele>
        <time>2017-03-29T12:34:17Z</time>
      </trkpt>
      <trkpt lat="43.40983" lon="6.1102">
        <ele>204.60000610352</ele>
        <time>2017-03-29T12:34:20Z</time>
      </trkpt>
      <trkpt lat="43.40979" lon="6.11019">
        <ele>205</ele>
        <time>2017-03-29T12:34:21Z</time>
      </trkpt>
      <trkpt lat="43.40956" lon="6.11021">
        <ele>204.80000305176</ele>
        <time>2017-03-29T12:34:27Z</time>
      </trkpt>
      <trkpt lat="43.40941" lon="6.11021">
        <ele>204.80000305176</ele>
        <time>2017-03-29T12:34:31Z</time>
      </trkpt>
      <trkpt lat="43.40934" lon="6.11019">
        <ele>205.19999694824</ele>
        <time>2017-03-29T12:34:33Z</time>
      </trkpt>
      <trkpt lat="43.40907" lon="6.1101">
        <ele>206</ele>
        <time>2017-03-29T12:34:41Z</time>
      </trkpt>
      <trkpt lat="43.40889" lon="6.11006">
        <ele>206</ele>
        <time>2017-03-29T12:34:49Z</time>
      </trkpt>
      <trkpt lat="43.40887" lon="6.1101">
        <ele>206.19999694824</ele>
        <time>2017-03-29T12:34:51Z</time>
      </trkpt>
      <trkpt lat="43.40886" lon="6.11013">
        <ele>206.19999694824</ele>
        <time>2017-03-29T12:34:52Z</time>
      </trkpt>
      <trkpt lat="43.40886" lon="6.11034">
        <ele>206.19999694824</ele>
        <time>2017-03-29T12:34:58Z</time>
      </trkpt>
      <trkpt lat="43.40887" lon="6.11047">
        <ele>206.80000305176</ele>
        <time>2017-03-29T12:35:01Z</time>
      </trkpt>
      <trkpt lat="43.40894" lon="6.11064">
        <ele>207</ele>
        <time>2017-03-29T12:35:05Z</time>
      </trkpt>
      <trkpt lat="43.4091" lon="6.11083">
        <ele>206.60000610352</ele>
        <time>2017-03-29T12:35:11Z</time>
      </trkpt>
      <trkpt lat="43.40945" lon="6.111">
        <ele>207.39999389648</ele>
        <time>2017-03-29T12:35:21Z</time>
      </trkpt>
      <trkpt lat="43.40977" lon="6.11103">
        <ele>207.60000610352</ele>
        <time>2017-03-29T12:35:29Z</time>
      </trkpt>
      <trkpt lat="43.40985" lon="6.11103">
        <ele>207.39999389648</ele>
        <time>2017-03-29T12:35:31Z</time>
      </trkpt>
      <trkpt lat="43.40994" lon="6.11103">
        <ele>207.19999694824</ele>
        <time>2017-03-29T12:35:33Z</time>
      </trkpt>
      <trkpt lat="43.41018" lon="6.1112">
        <ele>208.19999694824</ele>
        <time>2017-03-29T12:35:41Z</time>
      </trkpt>
      <trkpt lat="43.4103" lon="6.11144">
        <ele>207.80000305176</ele>
        <time>2017-03-29T12:35:48Z</time>
      </trkpt>
      <trkpt lat="43.41037" lon="6.11152">
        <ele>207.60000610352</ele>
        <time>2017-03-29T12:35:50Z</time>
      </trkpt>
      <trkpt lat="43.41042" lon="6.11156">
        <ele>207.19999694824</ele>
        <time>2017-03-29T12:35:51Z</time>
      </trkpt>
      <trkpt lat="43.41047" lon="6.11161">
        <ele>206.60000610352</ele>
        <time>2017-03-29T12:35:52Z</time>
      </trkpt>
      <trkpt lat="43.41052" lon="6.11166">
        <ele>206.19999694824</ele>
        <time>2017-03-29T12:35:53Z</time>
      </trkpt>
      <trkpt lat="43.41077" lon="6.11197">
        <ele>205.39999389648</ele>
        <time>2017-03-29T12:35:59Z</time>
      </trkpt>
      <trkpt lat="43.41086" lon="6.112">
        <ele>205.60000610352</ele>
        <time>2017-03-29T12:36:01Z</time>
      </trkpt>
      <trkpt lat="43.41105" lon="6.11202">
        <ele>206.80000305176</ele>
        <time>2017-03-29T12:36:06Z</time>
      </trkpt>
      <trkpt lat="43.41112" lon="6.11227">
        <ele>206.80000305176</ele>
        <time>2017-03-29T12:36:11Z</time>
      </trkpt>
      <trkpt lat="43.41107" lon="6.11259">
        <ele>207.19999694824</ele>
        <time>2017-03-29T12:36:17Z</time>
      </trkpt>
      <trkpt lat="43.41102" lon="6.1128">
        <ele>207.39999389648</ele>
        <time>2017-03-29T12:36:21Z</time>
      </trkpt>
      <trkpt lat="43.41097" lon="6.113">
        <ele>208.19999694824</ele>
        <time>2017-03-29T12:36:25Z</time>
      </trkpt>
      <trkpt lat="43.41094" lon="6.11331">
        <ele>209.19999694824</ele>
        <time>2017-03-29T12:36:31Z</time>
      </trkpt>
      <trkpt lat="43.41093" lon="6.11335">
        <ele>209.39999389648</ele>
        <time>2017-03-29T12:36:32Z</time>
      </trkpt>
      <trkpt lat="43.4109" lon="6.11374">
        <ele>210</ele>
        <time>2017-03-29T12:36:40Z</time>
      </trkpt>
      <trkpt lat="43.41088" lon="6.11389">
        <ele>210.60000610352</ele>
        <time>2017-03-29T12:36:43Z</time>
      </trkpt>
      <trkpt lat="43.41085" lon="6.11432">
        <ele>210.80000305176</ele>
        <time>2017-03-29T12:36:51Z</time>
      </trkpt>
      <trkpt lat="43.41093" lon="6.11497">
        <ele>210</ele>
        <time>2017-03-29T12:37:01Z</time>
      </trkpt>
      <trkpt lat="43.41102" lon="6.11503">
        <ele>209.80000305176</ele>
        <time>2017-03-29T12:37:03Z</time>
      </trkpt>
      <trkpt lat="43.41113" lon="6.11507">
        <ele>209.60000610352</ele>
        <time>2017-03-29T12:37:05Z</time>
      </trkpt>
      <trkpt lat="43.41118" lon="6.1151">
        <ele>209.60000610352</ele>
        <time>2017-03-29T12:37:06Z</time>
      </trkpt>
      <trkpt lat="43.41123" lon="6.11514">
        <ele>209.39999389648</ele>
        <time>2017-03-29T12:37:07Z</time>
      </trkpt>
      <trkpt lat="43.41139" lon="6.11537">
        <ele>208.39999389648</ele>
        <time>2017-03-29T12:37:11Z</time>
      </trkpt>
      <trkpt lat="43.41154" lon="6.1156">
        <ele>208.19999694824</ele>
        <time>2017-03-29T12:37:15Z</time>
      </trkpt>
      <trkpt lat="43.41161" lon="6.1158">
        <ele>208.19999694824</ele>
        <time>2017-03-29T12:37:18Z</time>
      </trkpt>
      <trkpt lat="43.41177" lon="6.11656">
        <ele>209.39999389648</ele>
        <time>2017-03-29T12:37:30Z</time>
      </trkpt>
      <trkpt lat="43.41179" lon="6.11661">
        <ele>209.39999389648</ele>
        <time>2017-03-29T12:37:31Z</time>
      </trkpt>
      <trkpt lat="43.41187" lon="6.11669">
        <ele>209.60000610352</ele>
        <time>2017-03-29T12:37:33Z</time>
      </trkpt>
      <trkpt lat="43.41191" lon="6.11672">
        <ele>209.60000610352</ele>
        <time>2017-03-29T12:37:34Z</time>
      </trkpt>
      <trkpt lat="43.41213" lon="6.11684">
        <ele>209.60000610352</ele>
        <time>2017-03-29T12:37:39Z</time>
      </trkpt>
      <trkpt lat="43.4122" lon="6.1169">
        <ele>209.80000305176</ele>
        <time>2017-03-29T12:37:41Z</time>
      </trkpt>
      <trkpt lat="43.41233" lon="6.11702">
        <ele>210.80000305176</ele>
        <time>2017-03-29T12:37:45Z</time>
      </trkpt>
      <trkpt lat="43.41248" lon="6.11714">
        <ele>211.80000305176</ele>
        <time>2017-03-29T12:37:51Z</time>
      </trkpt>
      <trkpt lat="43.41249" lon="6.11716">
        <ele>211.80000305176</ele>
        <time>2017-03-29T12:37:52Z</time>
      </trkpt>
      <trkpt lat="43.41255" lon="6.11726">
        <ele>213</ele>
        <time>2017-03-29T12:37:56Z</time>
      </trkpt>
      <trkpt lat="43.41261" lon="6.11739">
        <ele>214.60000610352</ele>
        <time>2017-03-29T12:38:01Z</time>
      </trkpt>
      <trkpt lat="43.41267" lon="6.11749">
        <ele>215</ele>
        <time>2017-03-29T12:38:05Z</time>
      </trkpt>
      <trkpt lat="43.41269" lon="6.11753">
        <ele>215.39999389648</ele>
        <time>2017-03-29T12:38:07Z</time>
      </trkpt>
      <trkpt lat="43.4127" lon="6.11758">
        <ele>215.60000610352</ele>
        <time>2017-03-29T12:38:09Z</time>
      </trkpt>
      <trkpt lat="43.41269" lon="6.11762">
        <ele>216</ele>
        <time>2017-03-29T12:38:11Z</time>
      </trkpt>
      <trkpt lat="43.41265" lon="6.11809">
        <ele>216</ele>
        <time>2017-03-29T12:38:21Z</time>
      </trkpt>
      <trkpt lat="43.41264" lon="6.11831">
        <ele>215.39999389648</ele>
        <time>2017-03-29T12:38:24Z</time>
      </trkpt>
      <trkpt lat="43.41263" lon="6.11842">
        <ele>215</ele>
        <time>2017-03-29T12:38:26Z</time>
      </trkpt>
      <trkpt lat="43.41261" lon="6.11863">
        <ele>214.39999389648</ele>
        <time>2017-03-29T12:38:31Z</time>
      </trkpt>
      <trkpt lat="43.41256" lon="6.11906">
        <ele>215</ele>
        <time>2017-03-29T12:38:41Z</time>
      </trkpt>
      <trkpt lat="43.41252" lon="6.11948">
        <ele>216</ele>
        <time>2017-03-29T12:38:51Z</time>
      </trkpt>
      <trkpt lat="43.41249" lon="6.11968">
        <ele>216</ele>
        <time>2017-03-29T12:38:56Z</time>
      </trkpt>
      <trkpt lat="43.41247" lon="6.11989">
        <ele>216.39999389648</ele>
        <time>2017-03-29T12:39:01Z</time>
      </trkpt>
      <trkpt lat="43.41255" lon="6.12039">
        <ele>216</ele>
        <time>2017-03-29T12:39:11Z</time>
      </trkpt>
      <trkpt lat="43.41267" lon="6.12082">
        <ele>216.19999694824</ele>
        <time>2017-03-29T12:39:21Z</time>
      </trkpt>
      <trkpt lat="43.41275" lon="6.12107">
        <ele>216.80000305176</ele>
        <time>2017-03-29T12:39:28Z</time>
      </trkpt>
      <trkpt lat="43.41274" lon="6.12122">
        <ele>216.39999389648</ele>
        <time>2017-03-29T12:39:31Z</time>
      </trkpt>
      <trkpt lat="43.41271" lon="6.12131">
        <ele>217.19999694824</ele>
        <time>2017-03-29T12:39:34Z</time>
      </trkpt>
      <trkpt lat="43.41263" lon="6.12151">
        <ele>217.80000305176</ele>
        <time>2017-03-29T12:39:41Z</time>
      </trkpt>
      <trkpt lat="43.4126" lon="6.12171">
        <ele>218.19999694824</ele>
        <time>2017-03-29T12:39:47Z</time>
      </trkpt>
      <trkpt lat="43.41259" lon="6.12184">
        <ele>218.39999389648</ele>
        <time>2017-03-29T12:39:51Z</time>
      </trkpt>
      <trkpt lat="43.4126" lon="6.12199">
        <ele>218.60000610352</ele>
        <time>2017-03-29T12:39:56Z</time>
      </trkpt>
      <trkpt lat="43.41261" lon="6.12213">
        <ele>218.39999389648</ele>
        <time>2017-03-29T12:40:01Z</time>
      </trkpt>
      <trkpt lat="43.41258" lon="6.12252">
        <ele>218.60000610352</ele>
        <time>2017-03-29T12:40:11Z</time>
      </trkpt>
      <trkpt lat="43.41255" lon="6.12276">
        <ele>219</ele>
        <time>2017-03-29T12:40:17Z</time>
      </trkpt>
      <trkpt lat="43.41257" lon="6.12279">
        <ele>219</ele>
        <time>2017-03-29T12:40:19Z</time>
      </trkpt>
      <trkpt lat="43.41259" lon="6.12279">
        <ele>219</ele>
        <time>2017-03-29T12:40:21Z</time>
      </trkpt>
      <trkpt lat="43.41266" lon="6.12277">
        <ele>218.39999389648</ele>
        <time>2017-03-29T12:40:25Z</time>
      </trkpt>
      <trkpt lat="43.41276" lon="6.1229">
        <ele>218.80000305176</ele>
        <time>2017-03-29T12:40:32Z</time>
      </trkpt>
      <trkpt lat="43.41273" lon="6.12321">
        <ele>219</ele>
        <time>2017-03-29T12:40:41Z</time>
      </trkpt>
      <trkpt lat="43.41273" lon="6.12328">
        <ele>219.39999389648</ele>
        <time>2017-03-29T12:40:43Z</time>
      </trkpt>
      <trkpt lat="43.4127" lon="6.12359">
        <ele>220</ele>
        <time>2017-03-29T12:40:51Z</time>
      </trkpt>
      <trkpt lat="43.41267" lon="6.1237">
        <ele>220.39999389648</ele>
        <time>2017-03-29T12:40:54Z</time>
      </trkpt>
      <trkpt lat="43.41263" lon="6.12397">
        <ele>221.39999389648</ele>
        <time>2017-03-29T12:41:01Z</time>
      </trkpt>
      <trkpt lat="43.41261" lon="6.12409">
        <ele>221.60000610352</ele>
        <time>2017-03-29T12:41:04Z</time>
      </trkpt>
      <trkpt lat="43.41257" lon="6.12437">
        <ele>222.39999389648</ele>
        <time>2017-03-29T12:41:11Z</time>
      </trkpt>
      <trkpt lat="43.41256" lon="6.12444">
        <ele>222.60000610352</ele>
        <time>2017-03-29T12:41:13Z</time>
      </trkpt>
      <trkpt lat="43.41256" lon="6.12473">
        <ele>223.60000610352</ele>
        <time>2017-03-29T12:41:21Z</time>
      </trkpt>
      <trkpt lat="43.41261" lon="6.12498">
        <ele>224.80000305176</ele>
        <time>2017-03-29T12:41:28Z</time>
      </trkpt>
      <trkpt lat="43.41263" lon="6.12508">
        <ele>225.39999389648</ele>
        <time>2017-03-29T12:41:31Z</time>
      </trkpt>
      <trkpt lat="43.41273" lon="6.12541">
        <ele>226.39999389648</ele>
        <time>2017-03-29T12:41:41Z</time>
      </trkpt>
      <trkpt lat="43.41274" lon="6.12571">
        <ele>226.80000305176</ele>
        <time>2017-03-29T12:41:49Z</time>
      </trkpt>
      <trkpt lat="43.41274" lon="6.12578">
        <ele>227.19999694824</ele>
        <time>2017-03-29T12:41:51Z</time>
      </trkpt>
      <trkpt lat="43.41273" lon="6.12606">
        <ele>227.80000305176</ele>
        <time>2017-03-29T12:41:58Z</time>
      </trkpt>
      <trkpt lat="43.41272" lon="6.12617">
        <ele>228</ele>
        <time>2017-03-29T12:42:01Z</time>
      </trkpt>
      <trkpt lat="43.41264" lon="6.12636">
        <ele>229</ele>
        <time>2017-03-29T12:42:07Z</time>
      </trkpt>
      <trkpt lat="43.41258" lon="6.12647">
        <ele>229.80000305176</ele>
        <time>2017-03-29T12:42:11Z</time>
      </trkpt>
      <trkpt lat="43.41254" lon="6.12654">
        <ele>230.19999694824</ele>
        <time>2017-03-29T12:42:14Z</time>
      </trkpt>
      <trkpt lat="43.4124" lon="6.12672">
        <ele>230.60000610352</ele>
        <time>2017-03-29T12:42:21Z</time>
      </trkpt>
      <trkpt lat="43.41233" lon="6.12691">
        <ele>231.19999694824</ele>
        <time>2017-03-29T12:42:27Z</time>
      </trkpt>
      <trkpt lat="43.41231" lon="6.12702">
        <ele>231.60000610352</ele>
        <time>2017-03-29T12:42:31Z</time>
      </trkpt>
      <trkpt lat="43.4123" lon="6.12711">
        <ele>232.19999694824</ele>
        <time>2017-03-29T12:42:34Z</time>
      </trkpt>
      <trkpt lat="43.41225" lon="6.12734">
        <ele>233.19999694824</ele>
        <time>2017-03-29T12:42:42Z</time>
      </trkpt>
      <trkpt lat="43.41219" lon="6.1276">
        <ele>234.60000610352</ele>
        <time>2017-03-29T12:42:51Z</time>
      </trkpt>
      <trkpt lat="43.41209" lon="6.12788">
        <ele>235</ele>
        <time>2017-03-29T12:43:01Z</time>
      </trkpt>
      <trkpt lat="43.41204" lon="6.12799">
        <ele>235.60000610352</ele>
        <time>2017-03-29T12:43:05Z</time>
      </trkpt>
      <trkpt lat="43.41198" lon="6.12815">
        <ele>236.39999389648</ele>
        <time>2017-03-29T12:43:11Z</time>
      </trkpt>
      <trkpt lat="43.41196" lon="6.12822">
        <ele>236.60000610352</ele>
        <time>2017-03-29T12:43:14Z</time>
      </trkpt>
      <trkpt lat="43.41196" lon="6.12823">
        <ele>237.19999694824</ele>
        <time>2017-03-29T12:43:21Z</time>
      </trkpt>
      <trkpt lat="43.41196" lon="6.12823">
        <ele>237</ele>
        <time>2017-03-29T12:43:30Z</time>
      </trkpt>
      <trkpt lat="43.41195" lon="6.12822">
        <ele>236.39999389648</ele>
        <time>2017-03-29T12:43:36Z</time>
      </trkpt>
      <trkpt lat="43.41193" lon="6.12822">
        <ele>236.39999389648</ele>
        <time>2017-03-29T12:43:41Z</time>
      </trkpt>
      <trkpt lat="43.41192" lon="6.12824">
        <ele>236.39999389648</ele>
        <time>2017-03-29T12:43:46Z</time>
      </trkpt>
      <trkpt lat="43.41191" lon="6.12826">
        <ele>236.39999389648</ele>
        <time>2017-03-29T12:43:47Z</time>
      </trkpt>
      <trkpt lat="43.4119" lon="6.12827">
        <ele>236.39999389648</ele>
        <time>2017-03-29T12:43:48Z</time>
      </trkpt>
      <trkpt lat="43.41188" lon="6.12834">
        <ele>237.19999694824</ele>
        <time>2017-03-29T12:43:51Z</time>
      </trkpt>
      <trkpt lat="43.41185" lon="6.12841">
        <ele>237.60000610352</ele>
        <time>2017-03-29T12:43:54Z</time>
      </trkpt>
      <trkpt lat="43.41179" lon="6.12861">
        <ele>238.80000305176</ele>
        <time>2017-03-29T12:44:02Z</time>
      </trkpt>
      <trkpt lat="43.41179" lon="6.12864">
        <ele>239</ele>
        <time>2017-03-29T12:44:03Z</time>
      </trkpt>
      <trkpt lat="43.41177" lon="6.1288">
        <ele>239.80000305176</ele>
        <time>2017-03-29T12:44:09Z</time>
      </trkpt>
      <trkpt lat="43.41177" lon="6.12884">
        <ele>240</ele>
        <time>2017-03-29T12:44:11Z</time>
      </trkpt>
      <trkpt lat="43.41177" lon="6.12898">
        <ele>240.80000305176</ele>
        <time>2017-03-29T12:44:19Z</time>
      </trkpt>
      <trkpt lat="43.41182" lon="6.12916">
        <ele>243.19999694824</ele>
        <time>2017-03-29T12:44:29Z</time>
      </trkpt>
      <trkpt lat="43.41183" lon="6.1292">
        <ele>243.80000305176</ele>
        <time>2017-03-29T12:44:31Z</time>
      </trkpt>
      <trkpt lat="43.41188" lon="6.12929">
        <ele>244.39999389648</ele>
        <time>2017-03-29T12:44:37Z</time>
      </trkpt>
      <trkpt lat="43.41192" lon="6.12933">
        <ele>244.80000305176</ele>
        <time>2017-03-29T12:44:41Z</time>
      </trkpt>
      <trkpt lat="43.41199" lon="6.12953">
        <ele>245.39999389648</ele>
        <time>2017-03-29T12:44:51Z</time>
      </trkpt>
      <trkpt lat="43.41199" lon="6.12955">
        <ele>245.39999389648</ele>
        <time>2017-03-29T12:44:52Z</time>
      </trkpt>
      <trkpt lat="43.41203" lon="6.12973">
        <ele>246.39999389648</ele>
        <time>2017-03-29T12:45:02Z</time>
      </trkpt>
      <trkpt lat="43.41205" lon="6.1299">
        <ele>247.39999389648</ele>
        <time>2017-03-29T12:45:11Z</time>
      </trkpt>
      <trkpt lat="43.4121" lon="6.13004">
        <ele>249</ele>
        <time>2017-03-29T12:45:21Z</time>
      </trkpt>
      <trkpt lat="43.41211" lon="6.13007">
        <ele>249.80000305176</ele>
        <time>2017-03-29T12:45:23Z</time>
      </trkpt>
      <trkpt lat="43.41211" lon="6.13008">
        <ele>250.19999694824</ele>
        <time>2017-03-29T12:45:24Z</time>
      </trkpt>
      <trkpt lat="43.41211" lon="6.13009">
        <ele>250.39999389648</ele>
        <time>2017-03-29T12:45:25Z</time>
      </trkpt>
      <trkpt lat="43.41214" lon="6.13015">
        <ele>250.80000305176</ele>
        <time>2017-03-29T12:45:30Z</time>
      </trkpt>
      <trkpt lat="43.41215" lon="6.13016">
        <ele>251</ele>
        <time>2017-03-29T12:45:31Z</time>
      </trkpt>
      <trkpt lat="43.41219" lon="6.13024">
        <ele>252.19999694824</ele>
        <time>2017-03-29T12:45:37Z</time>
      </trkpt>
      <trkpt lat="43.41223" lon="6.13031">
        <ele>253.60000610352</ele>
        <time>2017-03-29T12:45:43Z</time>
      </trkpt>
      <trkpt lat="43.41225" lon="6.13033">
        <ele>254</ele>
        <time>2017-03-29T12:45:45Z</time>
      </trkpt>
      <trkpt lat="43.41232" lon="6.13035">
        <ele>254.80000305176</ele>
        <time>2017-03-29T12:45:51Z</time>
      </trkpt>
      <trkpt lat="43.41234" lon="6.13036">
        <ele>255.19999694824</ele>
        <time>2017-03-29T12:45:54Z</time>
      </trkpt>
      <trkpt lat="43.41242" lon="6.1304">
        <ele>256.39999389648</ele>
        <time>2017-03-29T12:46:02Z</time>
      </trkpt>
      <trkpt lat="43.4125" lon="6.13042">
        <ele>257.39999389648</ele>
        <time>2017-03-29T12:46:09Z</time>
      </trkpt>
      <trkpt lat="43.41254" lon="6.13044">
        <ele>258.39999389648</ele>
        <time>2017-03-29T12:46:13Z</time>
      </trkpt>
      <trkpt lat="43.41259" lon="6.13048">
        <ele>259.39999389648</ele>
        <time>2017-03-29T12:46:18Z</time>
      </trkpt>
      <trkpt lat="43.41265" lon="6.1305">
        <ele>260.79998779297</ele>
        <time>2017-03-29T12:46:24Z</time>
      </trkpt>
      <trkpt lat="43.41273" lon="6.13053">
        <ele>261.79998779297</ele>
        <time>2017-03-29T12:46:31Z</time>
      </trkpt>
      <trkpt lat="43.41281" lon="6.13057">
        <ele>262.79998779297</ele>
        <time>2017-03-29T12:46:39Z</time>
      </trkpt>
      <trkpt lat="43.41284" lon="6.13059">
        <ele>263.39999389648</ele>
        <time>2017-03-29T12:46:42Z</time>
      </trkpt>
      <trkpt lat="43.41294" lon="6.13061">
        <ele>264</ele>
        <time>2017-03-29T12:46:51Z</time>
      </trkpt>
      <trkpt lat="43.41295" lon="6.13061">
        <ele>264.20001220703</ele>
        <time>2017-03-29T12:46:52Z</time>
      </trkpt>
      <trkpt lat="43.41302" lon="6.13062">
        <ele>264.79998779297</ele>
        <time>2017-03-29T12:46:58Z</time>
      </trkpt>
      <trkpt lat="43.41307" lon="6.13061">
        <ele>265</ele>
        <time>2017-03-29T12:47:01Z</time>
      </trkpt>
      <trkpt lat="43.41309" lon="6.1306">
        <ele>265.20001220703</ele>
        <time>2017-03-29T12:47:03Z</time>
      </trkpt>
      <trkpt lat="43.41313" lon="6.13057">
        <ele>266</ele>
        <time>2017-03-29T12:47:06Z</time>
      </trkpt>
      <trkpt lat="43.41316" lon="6.13054">
        <ele>266.39999389648</ele>
        <time>2017-03-29T12:47:09Z</time>
      </trkpt>
      <trkpt lat="43.41318" lon="6.13051">
        <ele>266.60000610352</ele>
        <time>2017-03-29T12:47:11Z</time>
      </trkpt>
      <trkpt lat="43.41322" lon="6.13043">
        <ele>267.39999389648</ele>
        <time>2017-03-29T12:47:17Z</time>
      </trkpt>
      <trkpt lat="43.41325" lon="6.13038">
        <ele>267.79998779297</ele>
        <time>2017-03-29T12:47:21Z</time>
      </trkpt>
      <trkpt lat="43.41333" lon="6.1303">
        <ele>269.20001220703</ele>
        <time>2017-03-29T12:47:29Z</time>
      </trkpt>
      <trkpt lat="43.41334" lon="6.13028">
        <ele>269.39999389648</ele>
        <time>2017-03-29T12:47:31Z</time>
      </trkpt>
      <trkpt lat="43.41336" lon="6.13028">
        <ele>269.60000610352</ele>
        <time>2017-03-29T12:47:32Z</time>
      </trkpt>
      <trkpt lat="43.41343" lon="6.13026">
        <ele>270.39999389648</ele>
        <time>2017-03-29T12:47:39Z</time>
      </trkpt>
      <trkpt lat="43.41344" lon="6.13027">
        <ele>270.60000610352</ele>
        <time>2017-03-29T12:47:41Z</time>
      </trkpt>
      <trkpt lat="43.41345" lon="6.13028">
        <ele>270.79998779297</ele>
        <time>2017-03-29T12:47:43Z</time>
      </trkpt>
      <trkpt lat="43.41346" lon="6.13029">
        <ele>270.79998779297</ele>
        <time>2017-03-29T12:47:46Z</time>
      </trkpt>
      <trkpt lat="43.41346" lon="6.13029">
        <ele>270.79998779297</ele>
        <time>2017-03-29T12:47:47Z</time>
      </trkpt>
      <trkpt lat="43.41347" lon="6.13029">
        <ele>270.79998779297</ele>
        <time>2017-03-29T12:47:51Z</time>
      </trkpt>
      <trkpt lat="43.41347" lon="6.13029">
        <ele>270.79998779297</ele>
        <time>2017-03-29T12:47:58Z</time>
      </trkpt>
      <trkpt lat="43.41347" lon="6.13029">
        <ele>271</ele>
        <time>2017-03-29T12:48:00Z</time>
      </trkpt>
      <trkpt lat="43.41346" lon="6.13029">
        <ele>271</ele>
        <time>2017-03-29T12:48:11Z</time>
      </trkpt>
      <trkpt lat="43.41347" lon="6.13029">
        <ele>271.20001220703</ele>
        <time>2017-03-29T12:48:21Z</time>
      </trkpt>
      <trkpt lat="43.41348" lon="6.13029">
        <ele>271.39999389648</ele>
        <time>2017-03-29T12:48:32Z</time>
      </trkpt>
      <trkpt lat="43.41348" lon="6.13029">
        <ele>271</ele>
        <time>2017-03-29T12:48:41Z</time>
      </trkpt>
      <trkpt lat="43.41348" lon="6.13029">
        <ele>271</ele>
        <time>2017-03-29T12:48:51Z</time>
      </trkpt>
      <trkpt lat="43.41348" lon="6.13029">
        <ele>271</ele>
        <time>2017-03-29T12:48:54Z</time>
      </trkpt>
      <trkpt lat="43.41347" lon="6.13029">
        <ele>271</ele>
        <time>2017-03-29T12:49:01Z</time>
      </trkpt>
      <trkpt lat="43.41347" lon="6.13028">
        <ele>271</ele>
        <time>2017-03-29T12:49:11Z</time>
      </trkpt>
      <trkpt lat="43.41347" lon="6.13028">
        <ele>271</ele>
        <time>2017-03-29T12:49:21Z</time>
      </trkpt>
      <trkpt lat="43.41347" lon="6.13029">
        <ele>271</ele>
        <time>2017-03-29T12:49:31Z</time>
      </trkpt>
      <trkpt lat="43.41349" lon="6.13038">
        <ele>270.60000610352</ele>
        <time>2017-03-29T12:49:37Z</time>
      </trkpt>
      <trkpt lat="43.41349" lon="6.13041">
        <ele>270.39999389648</ele>
        <time>2017-03-29T12:49:38Z</time>
      </trkpt>
      <trkpt lat="43.41353" lon="6.1305">
        <ele>270.79998779297</ele>
        <time>2017-03-29T12:49:41Z</time>
      </trkpt>
      <trkpt lat="43.41359" lon="6.13089">
        <ele>269.79998779297</ele>
        <time>2017-03-29T12:49:50Z</time>
      </trkpt>
      <trkpt lat="43.41357" lon="6.13094">
        <ele>269.60000610352</ele>
        <time>2017-03-29T12:49:51Z</time>
      </trkpt>
      <trkpt lat="43.41356" lon="6.131">
        <ele>269.60000610352</ele>
        <time>2017-03-29T12:49:52Z</time>
      </trkpt>
      <trkpt lat="43.41354" lon="6.13106">
        <ele>269.60000610352</ele>
        <time>2017-03-29T12:49:53Z</time>
      </trkpt>
      <trkpt lat="43.41352" lon="6.13118">
        <ele>269.20001220703</ele>
        <time>2017-03-29T12:49:55Z</time>
      </trkpt>
      <trkpt lat="43.4135" lon="6.1313">
        <ele>268.79998779297</ele>
        <time>2017-03-29T12:49:57Z</time>
      </trkpt>
      <trkpt lat="43.41351" lon="6.13142">
        <ele>269</ele>
        <time>2017-03-29T12:49:59Z</time>
      </trkpt>
      <trkpt lat="43.41354" lon="6.13153">
        <ele>268.79998779297</ele>
        <time>2017-03-29T12:50:01Z</time>
      </trkpt>
      <trkpt lat="43.41345" lon="6.13197">
        <ele>268.79998779297</ele>
        <time>2017-03-29T12:50:11Z</time>
      </trkpt>
      <trkpt lat="43.41338" lon="6.13221">
        <ele>270</ele>
        <time>2017-03-29T12:50:17Z</time>
      </trkpt>
      <trkpt lat="43.41338" lon="6.1324">
        <ele>269.39999389648</ele>
        <time>2017-03-29T12:50:21Z</time>
      </trkpt>
      <trkpt lat="43.41336" lon="6.13261">
        <ele>268.39999389648</ele>
        <time>2017-03-29T12:50:25Z</time>
      </trkpt>
      <trkpt lat="43.41333" lon="6.13274">
        <ele>268.79998779297</ele>
        <time>2017-03-29T12:50:31Z</time>
      </trkpt>
      <trkpt lat="43.41331" lon="6.13279">
        <ele>268.39999389648</ele>
        <time>2017-03-29T12:50:39Z</time>
      </trkpt>
      <trkpt lat="43.4133" lon="6.13283">
        <ele>268.60000610352</ele>
        <time>2017-03-29T12:50:41Z</time>
      </trkpt>
      <trkpt lat="43.41329" lon="6.13303">
        <ele>268.39999389648</ele>
        <time>2017-03-29T12:50:51Z</time>
      </trkpt>
      <trkpt lat="43.41328" lon="6.13342">
        <ele>268.20001220703</ele>
        <time>2017-03-29T12:51:01Z</time>
      </trkpt>
      <trkpt lat="43.41325" lon="6.13377">
        <ele>268.60000610352</ele>
        <time>2017-03-29T12:51:11Z</time>
      </trkpt>
      <trkpt lat="43.41325" lon="6.13383">
        <ele>268.60000610352</ele>
        <time>2017-03-29T12:51:13Z</time>
      </trkpt>
      <trkpt lat="43.41327" lon="6.13388">
        <ele>268.60000610352</ele>
        <time>2017-03-29T12:51:19Z</time>
      </trkpt>
      <trkpt lat="43.41328" lon="6.13387">
        <ele>268.60000610352</ele>
        <time>2017-03-29T12:51:21Z</time>
      </trkpt>
      <trkpt lat="43.41331" lon="6.13381">
        <ele>268.39999389648</ele>
        <time>2017-03-29T12:51:26Z</time>
      </trkpt>
      <trkpt lat="43.41333" lon="6.13372">
        <ele>268</ele>
        <time>2017-03-29T12:51:29Z</time>
      </trkpt>
      <trkpt lat="43.41334" lon="6.13371">
        <ele>267.79998779297</ele>
        <time>2017-03-29T12:51:30Z</time>
      </trkpt>
      <trkpt lat="43.41334" lon="6.1337">
        <ele>267.79998779297</ele>
        <time>2017-03-29T12:51:31Z</time>
      </trkpt>
      <trkpt lat="43.41335" lon="6.13369">
        <ele>267.39999389648</ele>
        <time>2017-03-29T12:51:39Z</time>
      </trkpt>
      <trkpt lat="43.41335" lon="6.13369">
        <ele>267.39999389648</ele>
        <time>2017-03-29T12:51:41Z</time>
      </trkpt>
      <trkpt lat="43.4134" lon="6.13363">
        <ele>267.39999389648</ele>
        <time>2017-03-29T12:51:49Z</time>
      </trkpt>
      <trkpt lat="43.41343" lon="6.13358">
        <ele>267</ele>
        <time>2017-03-29T12:51:51Z</time>
      </trkpt>
      <trkpt lat="43.41347" lon="6.13352">
        <ele>266.39999389648</ele>
        <time>2017-03-29T12:51:53Z</time>
      </trkpt>
      <trkpt lat="43.41352" lon="6.13341">
        <ele>265.20001220703</ele>
        <time>2017-03-29T12:51:56Z</time>
      </trkpt>
      <trkpt lat="43.41356" lon="6.13335">
        <ele>264.60000610352</ele>
        <time>2017-03-29T12:51:58Z</time>
      </trkpt>
      <trkpt lat="43.41357" lon="6.13333">
        <ele>264.20001220703</ele>
        <time>2017-03-29T12:51:59Z</time>
      </trkpt>
      <trkpt lat="43.41367" lon="6.13323">
        <ele>263</ele>
        <time>2017-03-29T12:52:04Z</time>
      </trkpt>
      <trkpt lat="43.4137" lon="6.13322">
        <ele>262.20001220703</ele>
        <time>2017-03-29T12:52:06Z</time>
      </trkpt>
      <trkpt lat="43.41372" lon="6.13322">
        <ele>262</ele>
        <time>2017-03-29T12:52:07Z</time>
      </trkpt>
      <trkpt lat="43.41379" lon="6.13321">
        <ele>260.79998779297</ele>
        <time>2017-03-29T12:52:11Z</time>
      </trkpt>
      <trkpt lat="43.41385" lon="6.1332">
        <ele>259.79998779297</ele>
        <time>2017-03-29T12:52:14Z</time>
      </trkpt>
      <trkpt lat="43.41388" lon="6.13318">
        <ele>258.39999389648</ele>
        <time>2017-03-29T12:52:17Z</time>
      </trkpt>
      <trkpt lat="43.41389" lon="6.13315">
        <ele>257.79998779297</ele>
        <time>2017-03-29T12:52:21Z</time>
      </trkpt>
      <trkpt lat="43.4139" lon="6.13314">
        <ele>257.79998779297</ele>
        <time>2017-03-29T12:52:22Z</time>
      </trkpt>
      <trkpt lat="43.41394" lon="6.13315">
        <ele>257.39999389648</ele>
        <time>2017-03-29T12:52:24Z</time>
      </trkpt>
      <trkpt lat="43.41401" lon="6.13319">
        <ele>256.20001220703</ele>
        <time>2017-03-29T12:52:26Z</time>
      </trkpt>
      <trkpt lat="43.41419" lon="6.13333">
        <ele>255.39999389648</ele>
        <time>2017-03-29T12:52:31Z</time>
      </trkpt>
      <trkpt lat="43.41425" lon="6.1334">
        <ele>255.19999694824</ele>
        <time>2017-03-29T12:52:33Z</time>
      </trkpt>
      <trkpt lat="43.41429" lon="6.13343">
        <ele>255.39999389648</ele>
        <time>2017-03-29T12:52:34Z</time>
      </trkpt>
      <trkpt lat="43.41431" lon="6.13345">
        <ele>255.19999694824</ele>
        <time>2017-03-29T12:52:35Z</time>
      </trkpt>
      <trkpt lat="43.41434" lon="6.13348">
        <ele>255</ele>
        <time>2017-03-29T12:52:36Z</time>
      </trkpt>
      <trkpt lat="43.41438" lon="6.13352">
        <ele>254.60000610352</ele>
        <time>2017-03-29T12:52:41Z</time>
      </trkpt>
      <trkpt lat="43.4144" lon="6.13353">
        <ele>254.19999694824</ele>
        <time>2017-03-29T12:52:47Z</time>
      </trkpt>
      <trkpt lat="43.41439" lon="6.13353">
        <ele>254.19999694824</ele>
        <time>2017-03-29T12:52:51Z</time>
      </trkpt>
      <trkpt lat="43.41439" lon="6.13353">
        <ele>254.19999694824</ele>
        <time>2017-03-29T12:52:52Z</time>
      </trkpt>
      <trkpt lat="43.41441" lon="6.13354">
        <ele>254.19999694824</ele>
        <time>2017-03-29T12:53:01Z</time>
      </trkpt>
      <trkpt lat="43.41441" lon="6.13354">
        <ele>254</ele>
        <time>2017-03-29T12:53:03Z</time>
      </trkpt>
      <trkpt lat="43.41441" lon="6.13354">
        <ele>254</ele>
        <time>2017-03-29T12:53:11Z</time>
      </trkpt>
      <trkpt lat="43.41442" lon="6.13354">
        <ele>254</ele>
        <time>2017-03-29T12:53:15Z</time>
      </trkpt>
      <trkpt lat="43.41443" lon="6.13354">
        <ele>254</ele>
        <time>2017-03-29T12:53:18Z</time>
      </trkpt>
      <trkpt lat="43.41448" lon="6.13357">
        <ele>254</ele>
        <time>2017-03-29T12:53:21Z</time>
      </trkpt>
      <trkpt lat="43.41449" lon="6.1336">
        <ele>254</ele>
        <time>2017-03-29T12:53:23Z</time>
      </trkpt>
      <trkpt lat="43.41444" lon="6.13377">
        <ele>255</ele>
        <time>2017-03-29T12:53:31Z</time>
      </trkpt>
      <trkpt lat="43.41441" lon="6.13389">
        <ele>256</ele>
        <time>2017-03-29T12:53:36Z</time>
      </trkpt>
      <trkpt lat="43.4144" lon="6.13391">
        <ele>256.20001220703</ele>
        <time>2017-03-29T12:53:37Z</time>
      </trkpt>
      <trkpt lat="43.41436" lon="6.13404">
        <ele>257.39999389648</ele>
        <time>2017-03-29T12:53:43Z</time>
      </trkpt>
      <trkpt lat="43.4143" lon="6.13421">
        <ele>259.79998779297</ele>
        <time>2017-03-29T12:53:51Z</time>
      </trkpt>
      <trkpt lat="43.41425" lon="6.13433">
        <ele>260.79998779297</ele>
        <time>2017-03-29T12:53:58Z</time>
      </trkpt>
      <trkpt lat="43.41423" lon="6.13438">
        <ele>261.60000610352</ele>
        <time>2017-03-29T12:54:01Z</time>
      </trkpt>
      <trkpt lat="43.41423" lon="6.13442">
        <ele>261.79998779297</ele>
        <time>2017-03-29T12:54:03Z</time>
      </trkpt>
      <trkpt lat="43.41419" lon="6.13458">
        <ele>263</ele>
        <time>2017-03-29T12:54:11Z</time>
      </trkpt>
      <trkpt lat="43.41416" lon="6.13474">
        <ele>264.20001220703</ele>
        <time>2017-03-29T12:54:19Z</time>
      </trkpt>
      <trkpt lat="43.41415" lon="6.13477">
        <ele>264.39999389648</ele>
        <time>2017-03-29T12:54:21Z</time>
      </trkpt>
      <trkpt lat="43.41411" lon="6.13492">
        <ele>265.20001220703</ele>
        <time>2017-03-29T12:54:29Z</time>
      </trkpt>
      <trkpt lat="43.4141" lon="6.13496">
        <ele>265.60000610352</ele>
        <time>2017-03-29T12:54:31Z</time>
      </trkpt>
      <trkpt lat="43.41404" lon="6.13519">
        <ele>266.39999389648</ele>
        <time>2017-03-29T12:54:41Z</time>
      </trkpt>
      <trkpt lat="43.41394" lon="6.13544">
        <ele>267.60000610352</ele>
        <time>2017-03-29T12:54:51Z</time>
      </trkpt>
      <trkpt lat="43.41387" lon="6.13564">
        <ele>267.39999389648</ele>
        <time>2017-03-29T12:54:58Z</time>
      </trkpt>
      <trkpt lat="43.41383" lon="6.13574">
        <ele>267.60000610352</ele>
        <time>2017-03-29T12:55:01Z</time>
      </trkpt>
      <trkpt lat="43.41373" lon="6.13595">
        <ele>267.39999389648</ele>
        <time>2017-03-29T12:55:07Z</time>
      </trkpt>
      <trkpt lat="43.41369" lon="6.13605">
        <ele>267.20001220703</ele>
        <time>2017-03-29T12:55:09Z</time>
      </trkpt>
      <trkpt lat="43.41365" lon="6.13616">
        <ele>266.79998779297</ele>
        <time>2017-03-29T12:55:11Z</time>
      </trkpt>
      <trkpt lat="43.41359" lon="6.13628">
        <ele>266.39999389648</ele>
        <time>2017-03-29T12:55:13Z</time>
      </trkpt>
      <trkpt lat="43.41348" lon="6.13655">
        <ele>264.79998779297</ele>
        <time>2017-03-29T12:55:17Z</time>
      </trkpt>
      <trkpt lat="43.41342" lon="6.13669">
        <ele>263</ele>
        <time>2017-03-29T12:55:19Z</time>
      </trkpt>
      <trkpt lat="43.41337" lon="6.13683">
        <ele>261.20001220703</ele>
        <time>2017-03-29T12:55:21Z</time>
      </trkpt>
      <trkpt lat="43.41335" lon="6.13691">
        <ele>260.39999389648</ele>
        <time>2017-03-29T12:55:22Z</time>
      </trkpt>
      <trkpt lat="43.41333" lon="6.137">
        <ele>259.60000610352</ele>
        <time>2017-03-29T12:55:23Z</time>
      </trkpt>
      <trkpt lat="43.41331" lon="6.13719">
        <ele>258.20001220703</ele>
        <time>2017-03-29T12:55:25Z</time>
      </trkpt>
      <trkpt lat="43.4133" lon="6.1374">
        <ele>257</ele>
        <time>2017-03-29T12:55:27Z</time>
      </trkpt>
      <trkpt lat="43.41329" lon="6.13751">
        <ele>256.39999389648</ele>
        <time>2017-03-29T12:55:28Z</time>
      </trkpt>
      <trkpt lat="43.41328" lon="6.13762">
        <ele>255.60000610352</ele>
        <time>2017-03-29T12:55:29Z</time>
      </trkpt>
      <trkpt lat="43.41327" lon="6.13783">
        <ele>254</ele>
        <time>2017-03-29T12:55:31Z</time>
      </trkpt>
      <trkpt lat="43.41319" lon="6.13857">
        <ele>254</ele>
        <time>2017-03-29T12:55:39Z</time>
      </trkpt>
      <trkpt lat="43.41319" lon="6.1387">
        <ele>254.19999694824</ele>
        <time>2017-03-29T12:55:41Z</time>
      </trkpt>
      <trkpt lat="43.41318" lon="6.13876">
        <ele>254.19999694824</ele>
        <time>2017-03-29T12:55:42Z</time>
      </trkpt>
      <trkpt lat="43.41318" lon="6.13882">
        <ele>254.39999389648</ele>
        <time>2017-03-29T12:55:43Z</time>
      </trkpt>
      <trkpt lat="43.41317" lon="6.13887">
        <ele>254.60000610352</ele>
        <time>2017-03-29T12:55:44Z</time>
      </trkpt>
      <trkpt lat="43.41316" lon="6.13901">
        <ele>255.19999694824</ele>
        <time>2017-03-29T12:55:47Z</time>
      </trkpt>
      <trkpt lat="43.41315" lon="6.13918">
        <ele>256.60000610352</ele>
        <time>2017-03-29T12:55:51Z</time>
      </trkpt>
      <trkpt lat="43.41314" lon="6.13938">
        <ele>257.79998779297</ele>
        <time>2017-03-29T12:55:57Z</time>
      </trkpt>
      <trkpt lat="43.41313" lon="6.1395">
        <ele>258.79998779297</ele>
        <time>2017-03-29T12:56:01Z</time>
      </trkpt>
      <trkpt lat="43.41313" lon="6.13953">
        <ele>259</ele>
        <time>2017-03-29T12:56:02Z</time>
      </trkpt>
      <trkpt lat="43.41311" lon="6.13975">
        <ele>260.60000610352</ele>
        <time>2017-03-29T12:56:11Z</time>
      </trkpt>
      <trkpt lat="43.41309" lon="6.13999">
        <ele>262.60000610352</ele>
        <time>2017-03-29T12:56:21Z</time>
      </trkpt>
      <trkpt lat="43.41307" lon="6.14008">
        <ele>263.39999389648</ele>
        <time>2017-03-29T12:56:25Z</time>
      </trkpt>
      <trkpt lat="43.41306" lon="6.14022">
        <ele>264.39999389648</ele>
        <time>2017-03-29T12:56:31Z</time>
      </trkpt>
      <trkpt lat="43.41304" lon="6.14045">
        <ele>265.79998779297</ele>
        <time>2017-03-29T12:56:41Z</time>
      </trkpt>
      <trkpt lat="43.41302" lon="6.14054">
        <ele>266.60000610352</ele>
        <time>2017-03-29T12:56:45Z</time>
      </trkpt>
      <trkpt lat="43.41299" lon="6.1407">
        <ele>266.79998779297</ele>
        <time>2017-03-29T12:56:51Z</time>
      </trkpt>
      <trkpt lat="43.41291" lon="6.14098">
        <ele>267.20001220703</ele>
        <time>2017-03-29T12:57:01Z</time>
      </trkpt>
      <trkpt lat="43.41279" lon="6.14134">
        <ele>266.79998779297</ele>
        <time>2017-03-29T12:57:10Z</time>
      </trkpt>
      <trkpt lat="43.41277" lon="6.14145">
        <ele>266.39999389648</ele>
        <time>2017-03-29T12:57:12Z</time>
      </trkpt>
      <trkpt lat="43.41269" lon="6.14168">
        <ele>265.60000610352</ele>
        <time>2017-03-29T12:57:16Z</time>
      </trkpt>
      <trkpt lat="43.4126" lon="6.14196">
        <ele>264.39999389648</ele>
        <time>2017-03-29T12:57:20Z</time>
      </trkpt>
      <trkpt lat="43.41258" lon="6.14203">
        <ele>264.39999389648</ele>
        <time>2017-03-29T12:57:21Z</time>
      </trkpt>
      <trkpt lat="43.41248" lon="6.14235">
        <ele>263.20001220703</ele>
        <time>2017-03-29T12:57:25Z</time>
      </trkpt>
      <trkpt lat="43.41238" lon="6.14267">
        <ele>262.20001220703</ele>
        <time>2017-03-29T12:57:29Z</time>
      </trkpt>
      <trkpt lat="43.41234" lon="6.14283">
        <ele>262</ele>
        <time>2017-03-29T12:57:31Z</time>
      </trkpt>
      <trkpt lat="43.41214" lon="6.14341">
        <ele>263.20001220703</ele>
        <time>2017-03-29T12:57:40Z</time>
      </trkpt>
      <trkpt lat="43.41212" lon="6.14347">
        <ele>263.39999389648</ele>
        <time>2017-03-29T12:57:41Z</time>
      </trkpt>
      <trkpt lat="43.41207" lon="6.14364">
        <ele>264.20001220703</ele>
        <time>2017-03-29T12:57:45Z</time>
      </trkpt>
      <trkpt lat="43.41203" lon="6.14382">
        <ele>265.20001220703</ele>
        <time>2017-03-29T12:57:51Z</time>
      </trkpt>
      <trkpt lat="43.41198" lon="6.14397">
        <ele>266.20001220703</ele>
        <time>2017-03-29T12:57:56Z</time>
      </trkpt>
      <trkpt lat="43.41198" lon="6.144">
        <ele>266.39999389648</ele>
        <time>2017-03-29T12:57:57Z</time>
      </trkpt>
      <trkpt lat="43.41196" lon="6.14413">
        <ele>267.39999389648</ele>
        <time>2017-03-29T12:58:02Z</time>
      </trkpt>
      <trkpt lat="43.41193" lon="6.14432">
        <ele>268.60000610352</ele>
        <time>2017-03-29T12:58:10Z</time>
      </trkpt>
      <trkpt lat="43.41193" lon="6.14435">
        <ele>268.79998779297</ele>
        <time>2017-03-29T12:58:11Z</time>
      </trkpt>
      <trkpt lat="43.41192" lon="6.14442">
        <ele>269.20001220703</ele>
        <time>2017-03-29T12:58:14Z</time>
      </trkpt>
      <trkpt lat="43.41191" lon="6.14451">
        <ele>269.79998779297</ele>
        <time>2017-03-29T12:58:18Z</time>
      </trkpt>
      <trkpt lat="43.41189" lon="6.14458">
        <ele>270.20001220703</ele>
        <time>2017-03-29T12:58:21Z</time>
      </trkpt>
      <trkpt lat="43.41187" lon="6.14468">
        <ele>271.20001220703</ele>
        <time>2017-03-29T12:58:25Z</time>
      </trkpt>
      <trkpt lat="43.41185" lon="6.14485">
        <ele>272.20001220703</ele>
        <time>2017-03-29T12:58:31Z</time>
      </trkpt>
      <trkpt lat="43.4118" lon="6.14512">
        <ele>272.79998779297</ele>
        <time>2017-03-29T12:58:41Z</time>
      </trkpt>
      <trkpt lat="43.41177" lon="6.14526">
        <ele>273</ele>
        <time>2017-03-29T12:58:45Z</time>
      </trkpt>
      <trkpt lat="43.41171" lon="6.14549">
        <ele>273.20001220703</ele>
        <time>2017-03-29T12:58:51Z</time>
      </trkpt>
      <trkpt lat="43.41164" lon="6.1458">
        <ele>272.79998779297</ele>
        <time>2017-03-29T12:58:57Z</time>
      </trkpt>
      <trkpt lat="43.41158" lon="6.14609">
        <ele>272.39999389648</ele>
        <time>2017-03-29T12:59:01Z</time>
      </trkpt>
      <trkpt lat="43.41156" lon="6.14617">
        <ele>272</ele>
        <time>2017-03-29T12:59:02Z</time>
      </trkpt>
      <trkpt lat="43.41153" lon="6.14633">
        <ele>271</ele>
        <time>2017-03-29T12:59:04Z</time>
      </trkpt>
      <trkpt lat="43.41149" lon="6.14649">
        <ele>269.79998779297</ele>
        <time>2017-03-29T12:59:06Z</time>
      </trkpt>
      <trkpt lat="43.41146" lon="6.14662">
        <ele>268</ele>
        <time>2017-03-29T12:59:08Z</time>
      </trkpt>
      <trkpt lat="43.41145" lon="6.1467">
        <ele>266.79998779297</ele>
        <time>2017-03-29T12:59:09Z</time>
      </trkpt>
      <trkpt lat="43.4114" lon="6.14687">
        <ele>265.20001220703</ele>
        <time>2017-03-29T12:59:11Z</time>
      </trkpt>
      <trkpt lat="43.41137" lon="6.14707">
        <ele>264.20001220703</ele>
        <time>2017-03-29T12:59:13Z</time>
      </trkpt>
      <trkpt lat="43.41133" lon="6.14728">
        <ele>262.79998779297</ele>
        <time>2017-03-29T12:59:15Z</time>
      </trkpt>
      <trkpt lat="43.41131" lon="6.14751">
        <ele>261</ele>
        <time>2017-03-29T12:59:17Z</time>
      </trkpt>
      <trkpt lat="43.4113" lon="6.14774">
        <ele>259.79998779297</ele>
        <time>2017-03-29T12:59:19Z</time>
      </trkpt>
      <trkpt lat="43.41129" lon="6.14796">
        <ele>259</ele>
        <time>2017-03-29T12:59:21Z</time>
      </trkpt>
      <trkpt lat="43.41128" lon="6.14807">
        <ele>258.79998779297</ele>
        <time>2017-03-29T12:59:22Z</time>
      </trkpt>
      <trkpt lat="43.41127" lon="6.14843">
        <ele>259</ele>
        <time>2017-03-29T12:59:28Z</time>
      </trkpt>
      <trkpt lat="43.41126" lon="6.14847">
        <ele>259.20001220703</ele>
        <time>2017-03-29T12:59:31Z</time>
      </trkpt>
      <trkpt lat="43.41125" lon="6.1486">
        <ele>259.20001220703</ele>
        <time>2017-03-29T12:59:41Z</time>
      </trkpt>
      <trkpt lat="43.41125" lon="6.14865">
        <ele>259.20001220703</ele>
        <time>2017-03-29T12:59:43Z</time>
      </trkpt>
      <trkpt lat="43.41124" lon="6.14878">
        <ele>259</ele>
        <time>2017-03-29T12:59:51Z</time>
      </trkpt>
      <trkpt lat="43.41124" lon="6.14878">
        <ele>259</ele>
        <time>2017-03-29T12:59:55Z</time>
      </trkpt>
      <trkpt lat="43.41124" lon="6.14881">
        <ele>259.20001220703</ele>
        <time>2017-03-29T13:00:01Z</time>
      </trkpt>
      <trkpt lat="43.41124" lon="6.14886">
        <ele>258.39999389648</ele>
        <time>2017-03-29T13:00:11Z</time>
      </trkpt>
      <trkpt lat="43.41124" lon="6.14889">
        <ele>258.39999389648</ele>
        <time>2017-03-29T13:00:21Z</time>
      </trkpt>
      <trkpt lat="43.41124" lon="6.14892">
        <ele>258.60000610352</ele>
        <time>2017-03-29T13:00:24Z</time>
      </trkpt>
      <trkpt lat="43.41126" lon="6.149">
        <ele>258.60000610352</ele>
        <time>2017-03-29T13:00:31Z</time>
      </trkpt>
      <trkpt lat="43.41126" lon="6.149">
        <ele>258.79998779297</ele>
        <time>2017-03-29T13:00:41Z</time>
      </trkpt>
      <trkpt lat="43.41127" lon="6.14899">
        <ele>258.39999389648</ele>
        <time>2017-03-29T13:00:51Z</time>
      </trkpt>
      <trkpt lat="43.41127" lon="6.14899">
        <ele>258.20001220703</ele>
        <time>2017-03-29T13:01:01Z</time>
      </trkpt>
      <trkpt lat="43.41127" lon="6.14899">
        <ele>258</ele>
        <time>2017-03-29T13:01:04Z</time>
      </trkpt>
      <trkpt lat="43.41127" lon="6.149">
        <ele>257.79998779297</ele>
        <time>2017-03-29T13:01:21Z</time>
      </trkpt>
      <trkpt lat="43.41126" lon="6.149">
        <ele>258.20001220703</ele>
        <time>2017-03-29T13:01:31Z</time>
      </trkpt>
      <trkpt lat="43.41126" lon="6.14902">
        <ele>258.20001220703</ele>
        <time>2017-03-29T13:01:32Z</time>
      </trkpt>
      <trkpt lat="43.41126" lon="6.14908">
        <ele>258.20001220703</ele>
        <time>2017-03-29T13:01:35Z</time>
      </trkpt>
      <trkpt lat="43.41124" lon="6.14932">
        <ele>258.20001220703</ele>
        <time>2017-03-29T13:01:41Z</time>
      </trkpt>
      <trkpt lat="43.41123" lon="6.14946">
        <ele>258.20001220703</ele>
        <time>2017-03-29T13:01:44Z</time>
      </trkpt>
      <trkpt lat="43.41122" lon="6.15006">
        <ele>257.60000610352</ele>
        <time>2017-03-29T13:01:55Z</time>
      </trkpt>
      <trkpt lat="43.41121" lon="6.1504">
        <ele>257</ele>
        <time>2017-03-29T13:02:01Z</time>
      </trkpt>
      <trkpt lat="43.41121" lon="6.15048">
        <ele>256.60000610352</ele>
        <time>2017-03-29T13:02:03Z</time>
      </trkpt>
      <trkpt lat="43.41125" lon="6.15065">
        <ele>257</ele>
        <time>2017-03-29T13:02:11Z</time>
      </trkpt>
      <trkpt lat="43.41127" lon="6.15065">
        <ele>257</ele>
        <time>2017-03-29T13:02:12Z</time>
      </trkpt>
      <trkpt lat="43.41129" lon="6.15066">
        <ele>257.20001220703</ele>
        <time>2017-03-29T13:02:14Z</time>
      </trkpt>
      <trkpt lat="43.41133" lon="6.15065">
        <ele>257.39999389648</ele>
        <time>2017-03-29T13:02:17Z</time>
      </trkpt>
      <trkpt lat="43.41138" lon="6.15066">
        <ele>258.20001220703</ele>
        <time>2017-03-29T13:02:21Z</time>
      </trkpt>
      <trkpt lat="43.41144" lon="6.15067">
        <ele>258.79998779297</ele>
        <time>2017-03-29T13:02:26Z</time>
      </trkpt>
      <trkpt lat="43.41145" lon="6.15068">
        <ele>259.20001220703</ele>
        <time>2017-03-29T13:02:27Z</time>
      </trkpt>
      <trkpt lat="43.4115" lon="6.1507">
        <ele>260</ele>
        <time>2017-03-29T13:02:31Z</time>
      </trkpt>
      <trkpt lat="43.41154" lon="6.15071">
        <ele>261.20001220703</ele>
        <time>2017-03-29T13:02:35Z</time>
      </trkpt>
      <trkpt lat="43.41158" lon="6.15073">
        <ele>262</ele>
        <time>2017-03-29T13:02:39Z</time>
      </trkpt>
      <trkpt lat="43.4116" lon="6.15074">
        <ele>262.39999389648</ele>
        <time>2017-03-29T13:02:41Z</time>
      </trkpt>
      <trkpt lat="43.41169" lon="6.15078">
        <ele>265</ele>
        <time>2017-03-29T13:02:49Z</time>
      </trkpt>
      <trkpt lat="43.41171" lon="6.15079">
        <ele>265.39999389648</ele>
        <time>2017-03-29T13:02:51Z</time>
      </trkpt>
      <trkpt lat="43.41173" lon="6.1508">
        <ele>266</ele>
        <time>2017-03-29T13:02:53Z</time>
      </trkpt>
      <trkpt lat="43.41177" lon="6.15081">
        <ele>266.79998779297</ele>
        <time>2017-03-29T13:02:57Z</time>
      </trkpt>
      <trkpt lat="43.41178" lon="6.15081">
        <ele>267.20001220703</ele>
        <time>2017-03-29T13:02:58Z</time>
      </trkpt>
      <trkpt lat="43.4118" lon="6.15081">
        <ele>267.79998779297</ele>
        <time>2017-03-29T13:03:00Z</time>
      </trkpt>
      <trkpt lat="43.41182" lon="6.15081">
        <ele>268.20001220703</ele>
        <time>2017-03-29T13:03:02Z</time>
      </trkpt>
      <trkpt lat="43.41187" lon="6.15082">
        <ele>269</ele>
        <time>2017-03-29T13:03:07Z</time>
      </trkpt>
      <trkpt lat="43.41192" lon="6.15083">
        <ele>270.39999389648</ele>
        <time>2017-03-29T13:03:13Z</time>
      </trkpt>
      <trkpt lat="43.41195" lon="6.15083">
        <ele>271.39999389648</ele>
        <time>2017-03-29T13:03:18Z</time>
      </trkpt>
      <trkpt lat="43.41196" lon="6.15083">
        <ele>271.60000610352</ele>
        <time>2017-03-29T13:03:21Z</time>
      </trkpt>
      <trkpt lat="43.41196" lon="6.15084">
        <ele>272</ele>
        <time>2017-03-29T13:03:29Z</time>
      </trkpt>
      <trkpt lat="43.41196" lon="6.15084">
        <ele>272</ele>
        <time>2017-03-29T13:03:31Z</time>
      </trkpt>
      <trkpt lat="43.41197" lon="6.15082">
        <ele>271.79998779297</ele>
        <time>2017-03-29T13:03:41Z</time>
      </trkpt>
      <trkpt lat="43.41199" lon="6.1508">
        <ele>272.39999389648</ele>
        <time>2017-03-29T13:03:48Z</time>
      </trkpt>
      <trkpt lat="43.41199" lon="6.1508">
        <ele>272.39999389648</ele>
        <time>2017-03-29T13:03:51Z</time>
      </trkpt>
      <trkpt lat="43.41199" lon="6.1508">
        <ele>272.20001220703</ele>
        <time>2017-03-29T13:03:59Z</time>
      </trkpt>
      <trkpt lat="43.41199" lon="6.1508">
        <ele>272.20001220703</ele>
        <time>2017-03-29T13:04:01Z</time>
      </trkpt>
      <trkpt lat="43.41199" lon="6.15082">
        <ele>272.20001220703</ele>
        <time>2017-03-29T13:04:08Z</time>
      </trkpt>
      <trkpt lat="43.41199" lon="6.15082">
        <ele>272.20001220703</ele>
        <time>2017-03-29T13:04:11Z</time>
      </trkpt>
      <trkpt lat="43.41199" lon="6.15082">
        <ele>272</ele>
        <time>2017-03-29T13:04:21Z</time>
      </trkpt>
      <trkpt lat="43.41199" lon="6.15082">
        <ele>272.20001220703</ele>
        <time>2017-03-29T13:04:26Z</time>
      </trkpt>
      <trkpt lat="43.41201" lon="6.15083">
        <ele>272.60000610352</ele>
        <time>2017-03-29T13:04:29Z</time>
      </trkpt>
      <trkpt lat="43.41204" lon="6.15084">
        <ele>273</ele>
        <time>2017-03-29T13:04:31Z</time>
      </trkpt>
      <trkpt lat="43.41206" lon="6.15086">
        <ele>273.60000610352</ele>
        <time>2017-03-29T13:04:33Z</time>
      </trkpt>
      <trkpt lat="43.41208" lon="6.15086">
        <ele>274</ele>
        <time>2017-03-29T13:04:34Z</time>
      </trkpt>
      <trkpt lat="43.4121" lon="6.15088">
        <ele>274</ele>
        <time>2017-03-29T13:04:36Z</time>
      </trkpt>
      <trkpt lat="43.41216" lon="6.1509">
        <ele>275.39999389648</ele>
        <time>2017-03-29T13:04:41Z</time>
      </trkpt>
      <trkpt lat="43.41218" lon="6.1509">
        <ele>275.79998779297</ele>
        <time>2017-03-29T13:04:43Z</time>
      </trkpt>
      <trkpt lat="43.41225" lon="6.1509">
        <ele>277.20001220703</ele>
        <time>2017-03-29T13:04:48Z</time>
      </trkpt>
      <trkpt lat="43.41228" lon="6.1509">
        <ele>278</ele>
        <time>2017-03-29T13:04:50Z</time>
      </trkpt>
      <trkpt lat="43.41238" lon="6.15092">
        <ele>280.39999389648</ele>
        <time>2017-03-29T13:04:59Z</time>
      </trkpt>
      <trkpt lat="43.4124" lon="6.15093">
        <ele>280.79998779297</ele>
        <time>2017-03-29T13:05:01Z</time>
      </trkpt>
      <trkpt lat="43.41243" lon="6.15093">
        <ele>281.79998779297</ele>
        <time>2017-03-29T13:05:05Z</time>
      </trkpt>
      <trkpt lat="43.41249" lon="6.15093">
        <ele>283.39999389648</ele>
        <time>2017-03-29T13:05:11Z</time>
      </trkpt>
      <trkpt lat="43.41251" lon="6.15094">
        <ele>283.60000610352</ele>
        <time>2017-03-29T13:05:13Z</time>
      </trkpt>
      <trkpt lat="43.41255" lon="6.15094">
        <ele>284.79998779297</ele>
        <time>2017-03-29T13:05:17Z</time>
      </trkpt>
      <trkpt lat="43.41259" lon="6.15094">
        <ele>285.39999389648</ele>
        <time>2017-03-29T13:05:21Z</time>
      </trkpt>
      <trkpt lat="43.41261" lon="6.15094">
        <ele>286</ele>
        <time>2017-03-29T13:05:23Z</time>
      </trkpt>
      <trkpt lat="43.41266" lon="6.15094">
        <ele>287</ele>
        <time>2017-03-29T13:05:28Z</time>
      </trkpt>
      <trkpt lat="43.41276" lon="6.15092">
        <ele>288</ele>
        <time>2017-03-29T13:05:38Z</time>
      </trkpt>
      <trkpt lat="43.4129" lon="6.15087">
        <ele>289.60000610352</ele>
        <time>2017-03-29T13:05:51Z</time>
      </trkpt>
      <trkpt lat="43.41296" lon="6.15085">
        <ele>290.20001220703</ele>
        <time>2017-03-29T13:05:56Z</time>
      </trkpt>
      <trkpt lat="43.41299" lon="6.15083">
        <ele>290.60000610352</ele>
        <time>2017-03-29T13:06:00Z</time>
      </trkpt>
      <trkpt lat="43.41301" lon="6.15083">
        <ele>290.60000610352</ele>
        <time>2017-03-29T13:06:01Z</time>
      </trkpt>
      <trkpt lat="43.41304" lon="6.15083">
        <ele>291.20001220703</ele>
        <time>2017-03-29T13:06:04Z</time>
      </trkpt>
      <trkpt lat="43.41312" lon="6.15083">
        <ele>291.60000610352</ele>
        <time>2017-03-29T13:06:11Z</time>
      </trkpt>
      <trkpt lat="43.41324" lon="6.15083">
        <ele>292</ele>
        <time>2017-03-29T13:06:21Z</time>
      </trkpt>
      <trkpt lat="43.41329" lon="6.15082">
        <ele>291.79998779297</ele>
        <time>2017-03-29T13:06:28Z</time>
      </trkpt>
      <trkpt lat="43.41329" lon="6.15082">
        <ele>291.79998779297</ele>
        <time>2017-03-29T13:06:35Z</time>
      </trkpt>
      <trkpt lat="43.41329" lon="6.15082">
        <ele>291.79998779297</ele>
        <time>2017-03-29T13:06:40Z</time>
      </trkpt>
      <trkpt lat="43.41329" lon="6.15082">
        <ele>291.79998779297</ele>
        <time>2017-03-29T13:06:44Z</time>
      </trkpt>
      <trkpt lat="43.41329" lon="6.15082">
        <ele>292</ele>
        <time>2017-03-29T13:06:49Z</time>
      </trkpt>
      <trkpt lat="43.41329" lon="6.15082">
        <ele>292.20001220703</ele>
        <time>2017-03-29T13:06:52Z</time>
      </trkpt>
      <trkpt lat="43.41329" lon="6.15083">
        <ele>292.20001220703</ele>
        <time>2017-03-29T13:06:58Z</time>
      </trkpt>
      <trkpt lat="43.41329" lon="6.15083">
        <ele>292</ele>
        <time>2017-03-29T13:07:01Z</time>
      </trkpt>
      <trkpt lat="43.41329" lon="6.15082">
        <ele>292</ele>
        <time>2017-03-29T13:07:08Z</time>
      </trkpt>
      <trkpt lat="43.41329" lon="6.15082">
        <ele>292.60000610352</ele>
        <time>2017-03-29T13:07:31Z</time>
      </trkpt>
      <trkpt lat="43.41329" lon="6.15082">
        <ele>292.39999389648</ele>
        <time>2017-03-29T13:07:41Z</time>
      </trkpt>
      <trkpt lat="43.4133" lon="6.15082">
        <ele>292.39999389648</ele>
        <time>2017-03-29T13:08:01Z</time>
      </trkpt>
      <trkpt lat="43.4133" lon="6.15083">
        <ele>292.39999389648</ele>
        <time>2017-03-29T13:08:11Z</time>
      </trkpt>
      <trkpt lat="43.41333" lon="6.15083">
        <ele>292.20001220703</ele>
        <time>2017-03-29T13:08:15Z</time>
      </trkpt>
      <trkpt lat="43.41343" lon="6.15085">
        <ele>291.20001220703</ele>
        <time>2017-03-29T13:08:21Z</time>
      </trkpt>
      <trkpt lat="43.41346" lon="6.15086">
        <ele>290.79998779297</ele>
        <time>2017-03-29T13:08:22Z</time>
      </trkpt>
      <trkpt lat="43.41353" lon="6.1509">
        <ele>289.60000610352</ele>
        <time>2017-03-29T13:08:25Z</time>
      </trkpt>
      <trkpt lat="43.41356" lon="6.15093">
        <ele>288.60000610352</ele>
        <time>2017-03-29T13:08:31Z</time>
      </trkpt>
      <trkpt lat="43.41362" lon="6.15099">
        <ele>288.39999389648</ele>
        <time>2017-03-29T13:08:35Z</time>
      </trkpt>
      <trkpt lat="43.41371" lon="6.15113">
        <ele>288</ele>
        <time>2017-03-29T13:08:41Z</time>
      </trkpt>
      <trkpt lat="43.41381" lon="6.15128">
        <ele>287.39999389648</ele>
        <time>2017-03-29T13:08:45Z</time>
      </trkpt>
      <trkpt lat="43.41391" lon="6.15143">
        <ele>285.79998779297</ele>
        <time>2017-03-29T13:08:48Z</time>
      </trkpt>
      <trkpt lat="43.41394" lon="6.15148">
        <ele>285.39999389648</ele>
        <time>2017-03-29T13:08:49Z</time>
      </trkpt>
      <trkpt lat="43.41397" lon="6.15153">
        <ele>284.79998779297</ele>
        <time>2017-03-29T13:08:50Z</time>
      </trkpt>
      <trkpt lat="43.414" lon="6.15157">
        <ele>284</ele>
        <time>2017-03-29T13:08:51Z</time>
      </trkpt>
      <trkpt lat="43.41402" lon="6.1516">
        <ele>283.39999389648</ele>
        <time>2017-03-29T13:08:52Z</time>
      </trkpt>
      <trkpt lat="43.41407" lon="6.15167">
        <ele>282.39999389648</ele>
        <time>2017-03-29T13:08:54Z</time>
      </trkpt>
      <trkpt lat="43.41412" lon="6.15174">
        <ele>281</ele>
        <time>2017-03-29T13:08:56Z</time>
      </trkpt>
      <trkpt lat="43.41418" lon="6.15183">
        <ele>279.39999389648</ele>
        <time>2017-03-29T13:08:58Z</time>
      </trkpt>
      <trkpt lat="43.41426" lon="6.15192">
        <ele>278.39999389648</ele>
        <time>2017-03-29T13:09:00Z</time>
      </trkpt>
      <trkpt lat="43.41431" lon="6.15197">
        <ele>277.79998779297</ele>
        <time>2017-03-29T13:09:01Z</time>
      </trkpt>
      <trkpt lat="43.41434" lon="6.15202">
        <ele>277.20001220703</ele>
        <time>2017-03-29T13:09:02Z</time>
      </trkpt>
      <trkpt lat="43.41444" lon="6.15215">
        <ele>276</ele>
        <time>2017-03-29T13:09:05Z</time>
      </trkpt>
      <trkpt lat="43.4146" lon="6.15236">
        <ele>273</ele>
        <time>2017-03-29T13:09:09Z</time>
      </trkpt>
      <trkpt lat="43.41463" lon="6.15241">
        <ele>272</ele>
        <time>2017-03-29T13:09:10Z</time>
      </trkpt>
      <trkpt lat="43.41467" lon="6.15246">
        <ele>271.20001220703</ele>
        <time>2017-03-29T13:09:11Z</time>
      </trkpt>
      <trkpt lat="43.41476" lon="6.15261">
        <ele>269.79998779297</ele>
        <time>2017-03-29T13:09:14Z</time>
      </trkpt>
      <trkpt lat="43.41485" lon="6.15269">
        <ele>268.79998779297</ele>
        <time>2017-03-29T13:09:17Z</time>
      </trkpt>
      <trkpt lat="43.4149" lon="6.15271">
        <ele>267.20001220703</ele>
        <time>2017-03-29T13:09:19Z</time>
      </trkpt>
      <trkpt lat="43.41496" lon="6.15271">
        <ele>265.79998779297</ele>
        <time>2017-03-29T13:09:21Z</time>
      </trkpt>
      <trkpt lat="43.41501" lon="6.15272">
        <ele>264.20001220703</ele>
        <time>2017-03-29T13:09:23Z</time>
      </trkpt>
      <trkpt lat="43.41508" lon="6.15272">
        <ele>262.60000610352</ele>
        <time>2017-03-29T13:09:25Z</time>
      </trkpt>
      <trkpt lat="43.41512" lon="6.1527">
        <ele>262</ele>
        <time>2017-03-29T13:09:26Z</time>
      </trkpt>
      <trkpt lat="43.41516" lon="6.15267">
        <ele>259.79998779297</ele>
        <time>2017-03-29T13:09:28Z</time>
      </trkpt>
      <trkpt lat="43.41518" lon="6.15266">
        <ele>258.39999389648</ele>
        <time>2017-03-29T13:09:29Z</time>
      </trkpt>
      <trkpt lat="43.41523" lon="6.15269">
        <ele>256.79998779297</ele>
        <time>2017-03-29T13:09:31Z</time>
      </trkpt>
      <trkpt lat="43.4153" lon="6.15279">
        <ele>255.80000305176</ele>
        <time>2017-03-29T13:09:34Z</time>
      </trkpt>
      <trkpt lat="43.41539" lon="6.15281">
        <ele>254.39999389648</ele>
        <time>2017-03-29T13:09:37Z</time>
      </trkpt>
      <trkpt lat="43.41552" lon="6.15277">
        <ele>251.39999389648</ele>
        <time>2017-03-29T13:09:41Z</time>
      </trkpt>
      <trkpt lat="43.41556" lon="6.15277">
        <ele>250.19999694824</ele>
        <time>2017-03-29T13:09:42Z</time>
      </trkpt>
      <trkpt lat="43.41562" lon="6.15279">
        <ele>248</ele>
        <time>2017-03-29T13:09:44Z</time>
      </trkpt>
      <trkpt lat="43.41565" lon="6.15279">
        <ele>247.19999694824</ele>
        <time>2017-03-29T13:09:45Z</time>
      </trkpt>
      <trkpt lat="43.41568" lon="6.15279">
        <ele>246.39999389648</ele>
        <time>2017-03-29T13:09:46Z</time>
      </trkpt>
      <trkpt lat="43.41575" lon="6.15278">
        <ele>244.60000610352</ele>
        <time>2017-03-29T13:09:48Z</time>
      </trkpt>
      <trkpt lat="43.41579" lon="6.15277">
        <ele>243.60000610352</ele>
        <time>2017-03-29T13:09:49Z</time>
      </trkpt>
      <trkpt lat="43.41583" lon="6.15277">
        <ele>242.39999389648</ele>
        <time>2017-03-29T13:09:50Z</time>
      </trkpt>
      <trkpt lat="43.41586" lon="6.15276">
        <ele>241</ele>
        <time>2017-03-29T13:09:51Z</time>
      </trkpt>
      <trkpt lat="43.4159" lon="6.15274">
        <ele>239.39999389648</ele>
        <time>2017-03-29T13:09:53Z</time>
      </trkpt>
      <trkpt lat="43.4159" lon="6.15274">
        <ele>239.19999694824</ele>
        <time>2017-03-29T13:09:54Z</time>
      </trkpt>
      <trkpt lat="43.4159" lon="6.15273">
        <ele>238.60000610352</ele>
        <time>2017-03-29T13:09:58Z</time>
      </trkpt>
      <trkpt lat="43.4159" lon="6.15273">
        <ele>239</ele>
        <time>2017-03-29T13:10:01Z</time>
      </trkpt>
      <trkpt lat="43.4159" lon="6.15274">
        <ele>239</ele>
        <time>2017-03-29T13:10:04Z</time>
      </trkpt>
      <trkpt lat="43.4159" lon="6.15274">
        <ele>238.39999389648</ele>
        <time>2017-03-29T13:10:13Z</time>
      </trkpt>
      <trkpt lat="43.41591" lon="6.15274">
        <ele>238.19999694824</ele>
        <time>2017-03-29T13:10:21Z</time>
      </trkpt>
      <trkpt lat="43.41591" lon="6.15274">
        <ele>238.19999694824</ele>
        <time>2017-03-29T13:10:27Z</time>
      </trkpt>
      <trkpt lat="43.41591" lon="6.15273">
        <ele>238.19999694824</ele>
        <time>2017-03-29T13:10:41Z</time>
      </trkpt>
      <trkpt lat="43.41591" lon="6.15273">
        <ele>238.19999694824</ele>
        <time>2017-03-29T13:10:48Z</time>
      </trkpt>
      <trkpt lat="43.41591" lon="6.15273">
        <ele>239.19999694824</ele>
        <time>2017-03-29T13:10:59Z</time>
      </trkpt>
      <trkpt lat="43.41592" lon="6.15273">
        <ele>239.19999694824</ele>
        <time>2017-03-29T13:11:36Z</time>
      </trkpt>
      <trkpt lat="43.41592" lon="6.15273">
        <ele>239.19999694824</ele>
        <time>2017-03-29T13:11:41Z</time>
      </trkpt>
      <trkpt lat="43.41591" lon="6.15273">
        <ele>239.19999694824</ele>
        <time>2017-03-29T13:12:01Z</time>
      </trkpt>
      <trkpt lat="43.41591" lon="6.15273">
        <ele>239.19999694824</ele>
        <time>2017-03-29T13:12:11Z</time>
      </trkpt>
      <trkpt lat="43.41591" lon="6.15273">
        <ele>239.19999694824</ele>
        <time>2017-03-29T13:12:22Z</time>
      </trkpt>
      <trkpt lat="43.41592" lon="6.15271">
        <ele>239.19999694824</ele>
        <time>2017-03-29T13:12:31Z</time>
      </trkpt>
      <trkpt lat="43.41593" lon="6.15266">
        <ele>239</ele>
        <time>2017-03-29T13:12:33Z</time>
      </trkpt>
      <trkpt lat="43.41591" lon="6.15252">
        <ele>238.80000305176</ele>
        <time>2017-03-29T13:12:37Z</time>
      </trkpt>
      <trkpt lat="43.41588" lon="6.15232">
        <ele>238.39999389648</ele>
        <time>2017-03-29T13:12:41Z</time>
      </trkpt>
      <trkpt lat="43.41584" lon="6.15207">
        <ele>238</ele>
        <time>2017-03-29T13:12:45Z</time>
      </trkpt>
      <trkpt lat="43.41585" lon="6.15193">
        <ele>237.60000610352</ele>
        <time>2017-03-29T13:12:47Z</time>
      </trkpt>
      <trkpt lat="43.41587" lon="6.15187">
        <ele>237.39999389648</ele>
        <time>2017-03-29T13:12:48Z</time>
      </trkpt>
      <trkpt lat="43.4159" lon="6.15182">
        <ele>237.19999694824</ele>
        <time>2017-03-29T13:12:49Z</time>
      </trkpt>
      <trkpt lat="43.41597" lon="6.15174">
        <ele>237</ele>
        <time>2017-03-29T13:12:51Z</time>
      </trkpt>
      <trkpt lat="43.416" lon="6.15169">
        <ele>237</ele>
        <time>2017-03-29T13:12:52Z</time>
      </trkpt>
      <trkpt lat="43.41604" lon="6.15157">
        <ele>237</ele>
        <time>2017-03-29T13:12:54Z</time>
      </trkpt>
      <trkpt lat="43.41605" lon="6.1513">
        <ele>236.60000610352</ele>
        <time>2017-03-29T13:12:58Z</time>
      </trkpt>
      <trkpt lat="43.41605" lon="6.15116">
        <ele>236.39999389648</ele>
        <time>2017-03-29T13:13:00Z</time>
      </trkpt>
      <trkpt lat="43.41604" lon="6.1511">
        <ele>236.19999694824</ele>
        <time>2017-03-29T13:13:01Z</time>
      </trkpt>
      <trkpt lat="43.41599" lon="6.15094">
        <ele>235.80000305176</ele>
        <time>2017-03-29T13:13:04Z</time>
      </trkpt>
      <trkpt lat="43.41597" lon="6.15083">
        <ele>235.19999694824</ele>
        <time>2017-03-29T13:13:06Z</time>
      </trkpt>
      <trkpt lat="43.41596" lon="6.1507">
        <ele>234.39999389648</ele>
        <time>2017-03-29T13:13:08Z</time>
      </trkpt>
      <trkpt lat="43.41595" lon="6.15064">
        <ele>234.19999694824</ele>
        <time>2017-03-29T13:13:09Z</time>
      </trkpt>
      <trkpt lat="43.41592" lon="6.15057">
        <ele>234.39999389648</ele>
        <time>2017-03-29T13:13:11Z</time>
      </trkpt>
      <trkpt lat="43.41582" lon="6.15046">
        <ele>234.60000610352</ele>
        <time>2017-03-29T13:13:15Z</time>
      </trkpt>
      <trkpt lat="43.41576" lon="6.1504">
        <ele>234.80000305176</ele>
        <time>2017-03-29T13:13:17Z</time>
      </trkpt>
      <trkpt lat="43.41562" lon="6.15032">
        <ele>234.39999389648</ele>
        <time>2017-03-29T13:13:21Z</time>
      </trkpt>
      <trkpt lat="43.41543" lon="6.1501">
        <ele>235.39999389648</ele>
        <time>2017-03-29T13:13:29Z</time>
      </trkpt>
      <trkpt lat="43.4154" lon="6.15006">
        <ele>235.80000305176</ele>
        <time>2017-03-29T13:13:31Z</time>
      </trkpt>
      <trkpt lat="43.41537" lon="6.14987">
        <ele>236.60000610352</ele>
        <time>2017-03-29T13:13:38Z</time>
      </trkpt>
      <trkpt lat="43.41534" lon="6.14978">
        <ele>236.80000305176</ele>
        <time>2017-03-29T13:13:41Z</time>
      </trkpt>
      <trkpt lat="43.41531" lon="6.14971">
        <ele>237.60000610352</ele>
        <time>2017-03-29T13:13:44Z</time>
      </trkpt>
      <trkpt lat="43.41527" lon="6.14963">
        <ele>239</ele>
        <time>2017-03-29T13:13:48Z</time>
      </trkpt>
      <trkpt lat="43.41525" lon="6.14958">
        <ele>239.80000305176</ele>
        <time>2017-03-29T13:13:51Z</time>
      </trkpt>
      <trkpt lat="43.41525" lon="6.14957">
        <ele>240</ele>
        <time>2017-03-29T13:13:53Z</time>
      </trkpt>
      <trkpt lat="43.41525" lon="6.14956">
        <ele>240</ele>
        <time>2017-03-29T13:13:54Z</time>
      </trkpt>
      <trkpt lat="43.41525" lon="6.1495">
        <ele>240</ele>
        <time>2017-03-29T13:13:57Z</time>
      </trkpt>
      <trkpt lat="43.41526" lon="6.14939">
        <ele>240</ele>
        <time>2017-03-29T13:14:01Z</time>
      </trkpt>
      <trkpt lat="43.41523" lon="6.14907">
        <ele>241</ele>
        <time>2017-03-29T13:14:11Z</time>
      </trkpt>
      <trkpt lat="43.41522" lon="6.14904">
        <ele>241.19999694824</ele>
        <time>2017-03-29T13:14:12Z</time>
      </trkpt>
      <trkpt lat="43.41521" lon="6.14889">
        <ele>241.80000305176</ele>
        <time>2017-03-29T13:14:17Z</time>
      </trkpt>
      <trkpt lat="43.41521" lon="6.14878">
        <ele>242.60000610352</ele>
        <time>2017-03-29T13:14:21Z</time>
      </trkpt>
      <trkpt lat="43.41525" lon="6.14851">
        <ele>243.60000610352</ele>
        <time>2017-03-29T13:14:31Z</time>
      </trkpt>
      <trkpt lat="43.41526" lon="6.14841">
        <ele>244</ele>
        <time>2017-03-29T13:14:35Z</time>
      </trkpt>
      <trkpt lat="43.41527" lon="6.14839">
        <ele>244</ele>
        <time>2017-03-29T13:14:36Z</time>
      </trkpt>
      <trkpt lat="43.41531" lon="6.1483">
        <ele>244</ele>
        <time>2017-03-29T13:14:39Z</time>
      </trkpt>
      <trkpt lat="43.41535" lon="6.14822">
        <ele>243.60000610352</ele>
        <time>2017-03-29T13:14:41Z</time>
      </trkpt>
      <trkpt lat="43.41541" lon="6.14812">
        <ele>242.39999389648</ele>
        <time>2017-03-29T13:14:43Z</time>
      </trkpt>
      <trkpt lat="43.41555" lon="6.14784">
        <ele>241.19999694824</ele>
        <time>2017-03-29T13:14:47Z</time>
      </trkpt>
      <trkpt lat="43.41564" lon="6.14768">
        <ele>239.39999389648</ele>
        <time>2017-03-29T13:14:49Z</time>
      </trkpt>
      <trkpt lat="43.41567" lon="6.1476">
        <ele>238.80000305176</ele>
        <time>2017-03-29T13:14:50Z</time>
      </trkpt>
      <trkpt lat="43.41569" lon="6.14753">
        <ele>238.19999694824</ele>
        <time>2017-03-29T13:14:51Z</time>
      </trkpt>
      <trkpt lat="43.41569" lon="6.14746">
        <ele>237.80000305176</ele>
        <time>2017-03-29T13:14:52Z</time>
      </trkpt>
      <trkpt lat="43.41568" lon="6.14732">
        <ele>237.19999694824</ele>
        <time>2017-03-29T13:14:54Z</time>
      </trkpt>
      <trkpt lat="43.41568" lon="6.14724">
        <ele>237</ele>
        <time>2017-03-29T13:14:55Z</time>
      </trkpt>
      <trkpt lat="43.41567" lon="6.14709">
        <ele>236.80000305176</ele>
        <time>2017-03-29T13:14:57Z</time>
      </trkpt>
      <trkpt lat="43.41564" lon="6.14695">
        <ele>236</ele>
        <time>2017-03-29T13:14:59Z</time>
      </trkpt>
      <trkpt lat="43.4156" lon="6.14682">
        <ele>235.39999389648</ele>
        <time>2017-03-29T13:15:01Z</time>
      </trkpt>
      <trkpt lat="43.41558" lon="6.14676">
        <ele>235.39999389648</ele>
        <time>2017-03-29T13:15:02Z</time>
      </trkpt>
      <trkpt lat="43.41542" lon="6.14641">
        <ele>236.80000305176</ele>
        <time>2017-03-29T13:15:11Z</time>
      </trkpt>
      <trkpt lat="43.4154" lon="6.14615">
        <ele>236.80000305176</ele>
        <time>2017-03-29T13:15:16Z</time>
      </trkpt>
      <trkpt lat="43.4154" lon="6.14583">
        <ele>235.80000305176</ele>
        <time>2017-03-29T13:15:21Z</time>
      </trkpt>
      <trkpt lat="43.41544" lon="6.14546">
        <ele>233.60000610352</ele>
        <time>2017-03-29T13:15:26Z</time>
      </trkpt>
      <trkpt lat="43.41544" lon="6.14529">
        <ele>232.39999389648</ele>
        <time>2017-03-29T13:15:28Z</time>
      </trkpt>
      <trkpt lat="43.41545" lon="6.14501">
        <ele>231</ele>
        <time>2017-03-29T13:15:31Z</time>
      </trkpt>
      <trkpt lat="43.41545" lon="6.14491">
        <ele>230.39999389648</ele>
        <time>2017-03-29T13:15:32Z</time>
      </trkpt>
      <trkpt lat="43.41545" lon="6.14481">
        <ele>230</ele>
        <time>2017-03-29T13:15:33Z</time>
      </trkpt>
      <trkpt lat="43.41542" lon="6.14453">
        <ele>228.80000305176</ele>
        <time>2017-03-29T13:15:36Z</time>
      </trkpt>
      <trkpt lat="43.41542" lon="6.14445">
        <ele>228.39999389648</ele>
        <time>2017-03-29T13:15:37Z</time>
      </trkpt>
      <trkpt lat="43.41545" lon="6.14437">
        <ele>228.19999694824</ele>
        <time>2017-03-29T13:15:38Z</time>
      </trkpt>
      <trkpt lat="43.4155" lon="6.14421">
        <ele>227.60000610352</ele>
        <time>2017-03-29T13:15:40Z</time>
      </trkpt>
      <trkpt lat="43.41552" lon="6.14412">
        <ele>227.39999389648</ele>
        <time>2017-03-29T13:15:41Z</time>
      </trkpt>
      <trkpt lat="43.41556" lon="6.14393">
        <ele>226.19999694824</ele>
        <time>2017-03-29T13:15:43Z</time>
      </trkpt>
      <trkpt lat="43.41559" lon="6.14374">
        <ele>225.39999389648</ele>
        <time>2017-03-29T13:15:45Z</time>
      </trkpt>
      <trkpt lat="43.41561" lon="6.14364">
        <ele>225</ele>
        <time>2017-03-29T13:15:46Z</time>
      </trkpt>
      <trkpt lat="43.41564" lon="6.14345">
        <ele>224.39999389648</ele>
        <time>2017-03-29T13:15:48Z</time>
      </trkpt>
      <trkpt lat="43.41568" lon="6.14327">
        <ele>224</ele>
        <time>2017-03-29T13:15:50Z</time>
      </trkpt>
      <trkpt lat="43.4157" lon="6.14318">
        <ele>223.80000305176</ele>
        <time>2017-03-29T13:15:51Z</time>
      </trkpt>
      <trkpt lat="43.4157" lon="6.14309">
        <ele>223.60000610352</ele>
        <time>2017-03-29T13:15:52Z</time>
      </trkpt>
      <trkpt lat="43.41573" lon="6.14273">
        <ele>223.39999389648</ele>
        <time>2017-03-29T13:15:57Z</time>
      </trkpt>
      <trkpt lat="43.41581" lon="6.14252">
        <ele>223.19999694824</ele>
        <time>2017-03-29T13:16:01Z</time>
      </trkpt>
      <trkpt lat="43.41589" lon="6.14221">
        <ele>223.39999389648</ele>
        <time>2017-03-29T13:16:06Z</time>
      </trkpt>
      <trkpt lat="43.41584" lon="6.14196">
        <ele>223.60000610352</ele>
        <time>2017-03-29T13:16:11Z</time>
      </trkpt>
      <trkpt lat="43.4158" lon="6.1416">
        <ele>224.80000305176</ele>
        <time>2017-03-29T13:16:19Z</time>
      </trkpt>
      <trkpt lat="43.4158" lon="6.1415">
        <ele>225</ele>
        <time>2017-03-29T13:16:21Z</time>
      </trkpt>
      <trkpt lat="43.41581" lon="6.14137">
        <ele>225.19999694824</ele>
        <time>2017-03-29T13:16:24Z</time>
      </trkpt>
      <trkpt lat="43.41584" lon="6.14106">
        <ele>225.80000305176</ele>
        <time>2017-03-29T13:16:31Z</time>
      </trkpt>
      <trkpt lat="43.41585" lon="6.14102">
        <ele>226</ele>
        <time>2017-03-29T13:16:32Z</time>
      </trkpt>
      <trkpt lat="43.41589" lon="6.14094">
        <ele>226</ele>
        <time>2017-03-29T13:16:34Z</time>
      </trkpt>
      <trkpt lat="43.41602" lon="6.14074">
        <ele>225</ele>
        <time>2017-03-29T13:16:38Z</time>
      </trkpt>
      <trkpt lat="43.41611" lon="6.14067">
        <ele>223.80000305176</ele>
        <time>2017-03-29T13:16:40Z</time>
      </trkpt>
      <trkpt lat="43.41615" lon="6.14063">
        <ele>223.39999389648</ele>
        <time>2017-03-29T13:16:41Z</time>
      </trkpt>
      <trkpt lat="43.4162" lon="6.14057">
        <ele>222.80000305176</ele>
        <time>2017-03-29T13:16:42Z</time>
      </trkpt>
      <trkpt lat="43.41634" lon="6.14039">
        <ele>221.39999389648</ele>
        <time>2017-03-29T13:16:45Z</time>
      </trkpt>
      <trkpt lat="43.41643" lon="6.14025">
        <ele>220.39999389648</ele>
        <time>2017-03-29T13:16:47Z</time>
      </trkpt>
      <trkpt lat="43.4166" lon="6.14001">
        <ele>219.60000610352</ele>
        <time>2017-03-29T13:16:51Z</time>
      </trkpt>
      <trkpt lat="43.41677" lon="6.13973">
        <ele>219.39999389648</ele>
        <time>2017-03-29T13:16:56Z</time>
      </trkpt>
      <trkpt lat="43.41682" lon="6.1397">
        <ele>219.19999694824</ele>
        <time>2017-03-29T13:16:57Z</time>
      </trkpt>
      <trkpt lat="43.41691" lon="6.13964">
        <ele>218.60000610352</ele>
        <time>2017-03-29T13:16:59Z</time>
      </trkpt>
      <trkpt lat="43.41699" lon="6.13953">
        <ele>217.80000305176</ele>
        <time>2017-03-29T13:17:01Z</time>
      </trkpt>
      <trkpt lat="43.41712" lon="6.13932">
        <ele>217.39999389648</ele>
        <time>2017-03-29T13:17:05Z</time>
      </trkpt>
      <trkpt lat="43.41734" lon="6.13907">
        <ele>217</ele>
        <time>2017-03-29T13:17:11Z</time>
      </trkpt>
      <trkpt lat="43.4174" lon="6.13899">
        <ele>217</ele>
        <time>2017-03-29T13:17:13Z</time>
      </trkpt>
      <trkpt lat="43.41745" lon="6.13885">
        <ele>217.19999694824</ele>
        <time>2017-03-29T13:17:21Z</time>
      </trkpt>
      <trkpt lat="43.41746" lon="6.13886">
        <ele>216.80000305176</ele>
        <time>2017-03-29T13:17:31Z</time>
      </trkpt>
      <trkpt lat="43.41745" lon="6.13886">
        <ele>216.60000610352</ele>
        <time>2017-03-29T13:17:40Z</time>
      </trkpt>
      <trkpt lat="43.41745" lon="6.13887">
        <ele>216.39999389648</ele>
        <time>2017-03-29T13:17:45Z</time>
      </trkpt>
      <trkpt lat="43.41746" lon="6.13889">
        <ele>216.19999694824</ele>
        <time>2017-03-29T13:17:51Z</time>
      </trkpt>
      <trkpt lat="43.41746" lon="6.13889">
        <ele>216.19999694824</ele>
        <time>2017-03-29T13:17:55Z</time>
      </trkpt>
      <trkpt lat="43.41746" lon="6.13888">
        <ele>216.39999389648</ele>
        <time>2017-03-29T13:18:01Z</time>
      </trkpt>
      <trkpt lat="43.41747" lon="6.13886">
        <ele>216</ele>
        <time>2017-03-29T13:18:22Z</time>
      </trkpt>
      <trkpt lat="43.41747" lon="6.13887">
        <ele>216.19999694824</ele>
        <time>2017-03-29T13:18:29Z</time>
      </trkpt>
      <trkpt lat="43.41747" lon="6.13889">
        <ele>217</ele>
        <time>2017-03-29T13:18:42Z</time>
      </trkpt>
      <trkpt lat="43.41747" lon="6.13889">
        <ele>217.19999694824</ele>
        <time>2017-03-29T13:19:01Z</time>
      </trkpt>
      <trkpt lat="43.41747" lon="6.13889">
        <ele>217.39999389648</ele>
        <time>2017-03-29T13:19:11Z</time>
      </trkpt>
      <trkpt lat="43.41747" lon="6.13889">
        <ele>216.80000305176</ele>
        <time>2017-03-29T13:19:20Z</time>
      </trkpt>
      <trkpt lat="43.41747" lon="6.13889">
        <ele>216.80000305176</ele>
        <time>2017-03-29T13:19:21Z</time>
      </trkpt>
      <trkpt lat="43.41747" lon="6.13883">
        <ele>217.19999694824</ele>
        <time>2017-03-29T13:19:29Z</time>
      </trkpt>
      <trkpt lat="43.41747" lon="6.1388">
        <ele>217.19999694824</ele>
        <time>2017-03-29T13:19:30Z</time>
      </trkpt>
      <trkpt lat="43.41748" lon="6.13877">
        <ele>217.19999694824</ele>
        <time>2017-03-29T13:19:31Z</time>
      </trkpt>
      <trkpt lat="43.41748" lon="6.13883">
        <ele>217</ele>
        <time>2017-03-29T13:19:41Z</time>
      </trkpt>
      <trkpt lat="43.41748" lon="6.13886">
        <ele>216.39999389648</ele>
        <time>2017-03-29T13:19:49Z</time>
      </trkpt>
      <trkpt lat="43.41748" lon="6.13886">
        <ele>216.39999389648</ele>
        <time>2017-03-29T13:19:51Z</time>
      </trkpt>
      <trkpt lat="43.41748" lon="6.13888">
        <ele>216.80000305176</ele>
        <time>2017-03-29T13:20:01Z</time>
      </trkpt>
      <trkpt lat="43.41748" lon="6.13888">
        <ele>216.80000305176</ele>
        <time>2017-03-29T13:20:07Z</time>
      </trkpt>
      <trkpt lat="43.41749" lon="6.13887">
        <ele>216.80000305176</ele>
        <time>2017-03-29T13:20:11Z</time>
      </trkpt>
      <trkpt lat="43.41749" lon="6.13887">
        <ele>216.60000610352</ele>
        <time>2017-03-29T13:20:18Z</time>
      </trkpt>
      <trkpt lat="43.41748" lon="6.13887">
        <ele>216.60000610352</ele>
        <time>2017-03-29T13:20:21Z</time>
      </trkpt>
      <trkpt lat="43.41749" lon="6.13886">
        <ele>217</ele>
        <time>2017-03-29T13:20:31Z</time>
      </trkpt>
      <trkpt lat="43.41748" lon="6.13887">
        <ele>217.19999694824</ele>
        <time>2017-03-29T13:20:47Z</time>
      </trkpt>
      <trkpt lat="43.41751" lon="6.13888">
        <ele>217.19999694824</ele>
        <time>2017-03-29T13:20:58Z</time>
      </trkpt>
      <trkpt lat="43.41752" lon="6.13889">
        <ele>217.19999694824</ele>
        <time>2017-03-29T13:20:59Z</time>
      </trkpt>
      <trkpt lat="43.41756" lon="6.13891">
        <ele>216.60000610352</ele>
        <time>2017-03-29T13:21:01Z</time>
      </trkpt>
      <trkpt lat="43.41762" lon="6.13894">
        <ele>215.80000305176</ele>
        <time>2017-03-29T13:21:04Z</time>
      </trkpt>
      <trkpt lat="43.41774" lon="6.13899">
        <ele>215.60000610352</ele>
        <time>2017-03-29T13:21:10Z</time>
      </trkpt>
      <trkpt lat="43.41775" lon="6.13898">
        <ele>215.60000610352</ele>
        <time>2017-03-29T13:21:11Z</time>
      </trkpt>
      <trkpt lat="43.41777" lon="6.13897">
        <ele>215.60000610352</ele>
        <time>2017-03-29T13:21:13Z</time>
      </trkpt>
      <trkpt lat="43.41787" lon="6.13883">
        <ele>216</ele>
        <time>2017-03-29T13:21:21Z</time>
      </trkpt>
      <trkpt lat="43.41794" lon="6.13878">
        <ele>216</ele>
        <time>2017-03-29T13:21:26Z</time>
      </trkpt>
      <trkpt lat="43.418" lon="6.13881">
        <ele>217</ele>
        <time>2017-03-29T13:21:30Z</time>
      </trkpt>
      <trkpt lat="43.418" lon="6.13882">
        <ele>217.19999694824</ele>
        <time>2017-03-29T13:21:31Z</time>
      </trkpt>
      <trkpt lat="43.41804" lon="6.13887">
        <ele>218</ele>
        <time>2017-03-29T13:21:35Z</time>
      </trkpt>
      <trkpt lat="43.41805" lon="6.13889">
        <ele>218.39999389648</ele>
        <time>2017-03-29T13:21:37Z</time>
      </trkpt>
      <trkpt lat="43.41807" lon="6.13897">
        <ele>219.19999694824</ele>
        <time>2017-03-29T13:21:41Z</time>
      </trkpt>
      <trkpt lat="43.41805" lon="6.13914">
        <ele>220</ele>
        <time>2017-03-29T13:21:51Z</time>
      </trkpt>
      <trkpt lat="43.41804" lon="6.13915">
        <ele>220</ele>
        <time>2017-03-29T13:21:52Z</time>
      </trkpt>
      <trkpt lat="43.41801" lon="6.13925">
        <ele>220.19999694824</ele>
        <time>2017-03-29T13:21:57Z</time>
      </trkpt>
      <trkpt lat="43.41798" lon="6.1393">
        <ele>220.39999389648</ele>
        <time>2017-03-29T13:22:01Z</time>
      </trkpt>
      <trkpt lat="43.41794" lon="6.13935">
        <ele>220.39999389648</ele>
        <time>2017-03-29T13:22:05Z</time>
      </trkpt>
      <trkpt lat="43.41793" lon="6.13937">
        <ele>220.80000305176</ele>
        <time>2017-03-29T13:22:07Z</time>
      </trkpt>
      <trkpt lat="43.41792" lon="6.13942">
        <ele>221.39999389648</ele>
        <time>2017-03-29T13:22:10Z</time>
      </trkpt>
      <trkpt lat="43.41792" lon="6.13943">
        <ele>221.39999389648</ele>
        <time>2017-03-29T13:22:11Z</time>
      </trkpt>
      <trkpt lat="43.41795" lon="6.13951">
        <ele>222.39999389648</ele>
        <time>2017-03-29T13:22:17Z</time>
      </trkpt>
      <trkpt lat="43.41797" lon="6.13956">
        <ele>223</ele>
        <time>2017-03-29T13:22:21Z</time>
      </trkpt>
      <trkpt lat="43.41798" lon="6.1396">
        <ele>223.39999389648</ele>
        <time>2017-03-29T13:22:24Z</time>
      </trkpt>
      <trkpt lat="43.418" lon="6.13967">
        <ele>224.19999694824</ele>
        <time>2017-03-29T13:22:29Z</time>
      </trkpt>
      <trkpt lat="43.41802" lon="6.13974">
        <ele>224.39999389648</ele>
        <time>2017-03-29T13:22:34Z</time>
      </trkpt>
      <trkpt lat="43.41806" lon="6.13982">
        <ele>225.19999694824</ele>
        <time>2017-03-29T13:22:41Z</time>
      </trkpt>
      <trkpt lat="43.41807" lon="6.13986">
        <ele>225.60000610352</ele>
        <time>2017-03-29T13:22:44Z</time>
      </trkpt>
      <trkpt lat="43.41811" lon="6.13994">
        <ele>226.19999694824</ele>
        <time>2017-03-29T13:22:51Z</time>
      </trkpt>
      <trkpt lat="43.41813" lon="6.13996">
        <ele>226.39999389648</ele>
        <time>2017-03-29T13:22:59Z</time>
      </trkpt>
      <trkpt lat="43.41813" lon="6.13998">
        <ele>226.80000305176</ele>
        <time>2017-03-29T13:23:01Z</time>
      </trkpt>
      <trkpt lat="43.41813" lon="6.13997">
        <ele>226.80000305176</ele>
        <time>2017-03-29T13:23:05Z</time>
      </trkpt>
      <trkpt lat="43.41815" lon="6.13997">
        <ele>226.80000305176</ele>
        <time>2017-03-29T13:23:10Z</time>
      </trkpt>
      <trkpt lat="43.41816" lon="6.13996">
        <ele>227</ele>
        <time>2017-03-29T13:23:11Z</time>
      </trkpt>
      <trkpt lat="43.41816" lon="6.13996">
        <ele>226.80000305176</ele>
        <time>2017-03-29T13:23:21Z</time>
      </trkpt>
      <trkpt lat="43.41821" lon="6.13989">
        <ele>227.39999389648</ele>
        <time>2017-03-29T13:23:27Z</time>
      </trkpt>
      <trkpt lat="43.41824" lon="6.13983">
        <ele>227.39999389648</ele>
        <time>2017-03-29T13:23:31Z</time>
      </trkpt>
      <trkpt lat="43.41828" lon="6.1398">
        <ele>227.60000610352</ele>
        <time>2017-03-29T13:23:34Z</time>
      </trkpt>
      <trkpt lat="43.41831" lon="6.13977">
        <ele>227.80000305176</ele>
        <time>2017-03-29T13:23:36Z</time>
      </trkpt>
      <trkpt lat="43.41838" lon="6.13973">
        <ele>228.19999694824</ele>
        <time>2017-03-29T13:23:41Z</time>
      </trkpt>
      <trkpt lat="43.41848" lon="6.13973">
        <ele>228.60000610352</ele>
        <time>2017-03-29T13:23:48Z</time>
      </trkpt>
      <trkpt lat="43.41852" lon="6.13977">
        <ele>228.80000305176</ele>
        <time>2017-03-29T13:23:51Z</time>
      </trkpt>
      <trkpt lat="43.41859" lon="6.13985">
        <ele>229.80000305176</ele>
        <time>2017-03-29T13:23:57Z</time>
      </trkpt>
      <trkpt lat="43.41864" lon="6.13987">
        <ele>230.39999389648</ele>
        <time>2017-03-29T13:24:01Z</time>
      </trkpt>
      <trkpt lat="43.41869" lon="6.13988">
        <ele>231</ele>
        <time>2017-03-29T13:24:05Z</time>
      </trkpt>
      <trkpt lat="43.41876" lon="6.13988">
        <ele>231.19999694824</ele>
        <time>2017-03-29T13:24:11Z</time>
      </trkpt>
      <trkpt lat="43.41887" lon="6.13971">
        <ele>231.80000305176</ele>
        <time>2017-03-29T13:24:21Z</time>
      </trkpt>
      <trkpt lat="43.41891" lon="6.13949">
        <ele>231</ele>
        <time>2017-03-29T13:24:26Z</time>
      </trkpt>
      <trkpt lat="43.41894" lon="6.13945">
        <ele>230.80000305176</ele>
        <time>2017-03-29T13:24:27Z</time>
      </trkpt>
      <trkpt lat="43.41899" lon="6.13936">
        <ele>230.19999694824</ele>
        <time>2017-03-29T13:24:29Z</time>
      </trkpt>
      <trkpt lat="43.419" lon="6.13931">
        <ele>229.80000305176</ele>
        <time>2017-03-29T13:24:30Z</time>
      </trkpt>
      <trkpt lat="43.41902" lon="6.13928">
        <ele>229.60000610352</ele>
        <time>2017-03-29T13:24:31Z</time>
      </trkpt>
      <trkpt lat="43.41914" lon="6.13919">
        <ele>228.60000610352</ele>
        <time>2017-03-29T13:24:35Z</time>
      </trkpt>
      <trkpt lat="43.41931" lon="6.13904">
        <ele>227.80000305176</ele>
        <time>2017-03-29T13:24:41Z</time>
      </trkpt>
      <trkpt lat="43.41932" lon="6.13901">
        <ele>227.39999389648</ele>
        <time>2017-03-29T13:24:42Z</time>
      </trkpt>
      <trkpt lat="43.41948" lon="6.1388">
        <ele>226.80000305176</ele>
        <time>2017-03-29T13:24:51Z</time>
      </trkpt>
      <trkpt lat="43.41969" lon="6.13862">
        <ele>227</ele>
        <time>2017-03-29T13:25:01Z</time>
      </trkpt>
      <trkpt lat="43.41973" lon="6.13859">
        <ele>228.19999694824</ele>
        <time>2017-03-29T13:25:04Z</time>
      </trkpt>
      <trkpt lat="43.41975" lon="6.13858">
        <ele>228.60000610352</ele>
        <time>2017-03-29T13:25:05Z</time>
      </trkpt>
      <trkpt lat="43.41975" lon="6.13859">
        <ele>228.80000305176</ele>
        <time>2017-03-29T13:25:11Z</time>
      </trkpt>
      <trkpt lat="43.41975" lon="6.1386">
        <ele>228.39999389648</ele>
        <time>2017-03-29T13:25:21Z</time>
      </trkpt>
      <trkpt lat="43.41975" lon="6.13859">
        <ele>228.60000610352</ele>
        <time>2017-03-29T13:25:31Z</time>
      </trkpt>
      <trkpt lat="43.41975" lon="6.1386">
        <ele>228.80000305176</ele>
        <time>2017-03-29T13:25:41Z</time>
      </trkpt>
      <trkpt lat="43.41975" lon="6.13861">
        <ele>229</ele>
        <time>2017-03-29T13:25:45Z</time>
      </trkpt>
      <trkpt lat="43.41976" lon="6.13863">
        <ele>228.80000305176</ele>
        <time>2017-03-29T13:25:49Z</time>
      </trkpt>
      <trkpt lat="43.41983" lon="6.13862">
        <ele>229.60000610352</ele>
        <time>2017-03-29T13:25:54Z</time>
      </trkpt>
      <trkpt lat="43.41987" lon="6.13863">
        <ele>229.80000305176</ele>
        <time>2017-03-29T13:25:56Z</time>
      </trkpt>
      <trkpt lat="43.4199" lon="6.13863">
        <ele>230.19999694824</ele>
        <time>2017-03-29T13:25:58Z</time>
      </trkpt>
      <trkpt lat="43.41994" lon="6.13862">
        <ele>230.60000610352</ele>
        <time>2017-03-29T13:26:00Z</time>
      </trkpt>
      <trkpt lat="43.41995" lon="6.13861">
        <ele>230.80000305176</ele>
        <time>2017-03-29T13:26:01Z</time>
      </trkpt>
      <trkpt lat="43.41999" lon="6.13859">
        <ele>231.60000610352</ele>
        <time>2017-03-29T13:26:04Z</time>
      </trkpt>
      <trkpt lat="43.42008" lon="6.13852">
        <ele>232.39999389648</ele>
        <time>2017-03-29T13:26:10Z</time>
      </trkpt>
      <trkpt lat="43.4201" lon="6.13848">
        <ele>232.80000305176</ele>
        <time>2017-03-29T13:26:13Z</time>
      </trkpt>
      <trkpt lat="43.42014" lon="6.13841">
        <ele>232.80000305176</ele>
        <time>2017-03-29T13:26:17Z</time>
      </trkpt>
      <trkpt lat="43.42016" lon="6.13836">
        <ele>232.60000610352</ele>
        <time>2017-03-29T13:26:19Z</time>
      </trkpt>
      <trkpt lat="43.42021" lon="6.13832">
        <ele>232.39999389648</ele>
        <time>2017-03-29T13:26:21Z</time>
      </trkpt>
      <trkpt lat="43.42037" lon="6.13826">
        <ele>231.60000610352</ele>
        <time>2017-03-29T13:26:27Z</time>
      </trkpt>
      <trkpt lat="43.42041" lon="6.13819">
        <ele>231.19999694824</ele>
        <time>2017-03-29T13:26:29Z</time>
      </trkpt>
      <trkpt lat="43.42041" lon="6.13811">
        <ele>230.60000610352</ele>
        <time>2017-03-29T13:26:31Z</time>
      </trkpt>
      <trkpt lat="43.42038" lon="6.13797">
        <ele>229.60000610352</ele>
        <time>2017-03-29T13:26:34Z</time>
      </trkpt>
      <trkpt lat="43.42036" lon="6.13786">
        <ele>229</ele>
        <time>2017-03-29T13:26:36Z</time>
      </trkpt>
      <trkpt lat="43.42035" lon="6.13772">
        <ele>228.39999389648</ele>
        <time>2017-03-29T13:26:38Z</time>
      </trkpt>
      <trkpt lat="43.42035" lon="6.13759">
        <ele>227.39999389648</ele>
        <time>2017-03-29T13:26:40Z</time>
      </trkpt>
      <trkpt lat="43.42035" lon="6.13753">
        <ele>227.19999694824</ele>
        <time>2017-03-29T13:26:41Z</time>
      </trkpt>
      <trkpt lat="43.42033" lon="6.13743">
        <ele>227</ele>
        <time>2017-03-29T13:26:43Z</time>
      </trkpt>
      <trkpt lat="43.42027" lon="6.13721">
        <ele>227.19999694824</ele>
        <time>2017-03-29T13:26:49Z</time>
      </trkpt>
      <trkpt lat="43.42026" lon="6.13715">
        <ele>227.39999389648</ele>
        <time>2017-03-29T13:26:51Z</time>
      </trkpt>
      <trkpt lat="43.42022" lon="6.13696">
        <ele>228</ele>
        <time>2017-03-29T13:26:58Z</time>
      </trkpt>
      <trkpt lat="43.4202" lon="6.13689">
        <ele>228.19999694824</ele>
        <time>2017-03-29T13:27:01Z</time>
      </trkpt>
      <trkpt lat="43.42015" lon="6.13662">
        <ele>229.19999694824</ele>
        <time>2017-03-29T13:27:11Z</time>
      </trkpt>
      <trkpt lat="43.42011" lon="6.13647">
        <ele>230.39999389648</ele>
        <time>2017-03-29T13:27:17Z</time>
      </trkpt>
      <trkpt lat="43.42009" lon="6.13637">
        <ele>230.60000610352</ele>
        <time>2017-03-29T13:27:21Z</time>
      </trkpt>
      <trkpt lat="43.42" lon="6.13617">
        <ele>231.39999389648</ele>
        <time>2017-03-29T13:27:29Z</time>
      </trkpt>
      <trkpt lat="43.41994" lon="6.136">
        <ele>232.60000610352</ele>
        <time>2017-03-29T13:27:37Z</time>
      </trkpt>
      <trkpt lat="43.4199" lon="6.1359">
        <ele>233.60000610352</ele>
        <time>2017-03-29T13:27:42Z</time>
      </trkpt>
      <trkpt lat="43.41983" lon="6.13573">
        <ele>234.60000610352</ele>
        <time>2017-03-29T13:27:50Z</time>
      </trkpt>
      <trkpt lat="43.41983" lon="6.13571">
        <ele>235</ele>
        <time>2017-03-29T13:27:51Z</time>
      </trkpt>
      <trkpt lat="43.4198" lon="6.13559">
        <ele>235.80000305176</ele>
        <time>2017-03-29T13:27:57Z</time>
      </trkpt>
      <trkpt lat="43.41978" lon="6.13554">
        <ele>236</ele>
        <time>2017-03-29T13:28:00Z</time>
      </trkpt>
      <trkpt lat="43.41978" lon="6.13552">
        <ele>236</ele>
        <time>2017-03-29T13:28:01Z</time>
      </trkpt>
      <trkpt lat="43.41977" lon="6.13542">
        <ele>236.80000305176</ele>
        <time>2017-03-29T13:28:06Z</time>
      </trkpt>
      <trkpt lat="43.41976" lon="6.1354">
        <ele>236.80000305176</ele>
        <time>2017-03-29T13:28:07Z</time>
      </trkpt>
      <trkpt lat="43.41976" lon="6.13532">
        <ele>237.19999694824</ele>
        <time>2017-03-29T13:28:11Z</time>
      </trkpt>
      <trkpt lat="43.41975" lon="6.13515">
        <ele>237.80000305176</ele>
        <time>2017-03-29T13:28:19Z</time>
      </trkpt>
      <trkpt lat="43.41975" lon="6.13511">
        <ele>238.19999694824</ele>
        <time>2017-03-29T13:28:21Z</time>
      </trkpt>
      <trkpt lat="43.41979" lon="6.13502">
        <ele>238.80000305176</ele>
        <time>2017-03-29T13:28:29Z</time>
      </trkpt>
      <trkpt lat="43.41981" lon="6.13504">
        <ele>239</ele>
        <time>2017-03-29T13:28:31Z</time>
      </trkpt>
      <trkpt lat="43.41985" lon="6.13514">
        <ele>239.60000610352</ele>
        <time>2017-03-29T13:28:41Z</time>
      </trkpt>
      <trkpt lat="43.41985" lon="6.13514">
        <ele>239.60000610352</ele>
        <time>2017-03-29T13:28:43Z</time>
      </trkpt>
      <trkpt lat="43.41984" lon="6.13512">
        <ele>239.19999694824</ele>
        <time>2017-03-29T13:28:51Z</time>
      </trkpt>
      <trkpt lat="43.41984" lon="6.13512">
        <ele>239.39999389648</ele>
        <time>2017-03-29T13:28:55Z</time>
      </trkpt>
      <trkpt lat="43.41984" lon="6.13511">
        <ele>239.39999389648</ele>
        <time>2017-03-29T13:29:01Z</time>
      </trkpt>
      <trkpt lat="43.41983" lon="6.13511">
        <ele>239.60000610352</ele>
        <time>2017-03-29T13:29:18Z</time>
      </trkpt>
      <trkpt lat="43.41983" lon="6.13511">
        <ele>239.60000610352</ele>
        <time>2017-03-29T13:29:20Z</time>
      </trkpt>
      <trkpt lat="43.41983" lon="6.13511">
        <ele>239.60000610352</ele>
        <time>2017-03-29T13:29:21Z</time>
      </trkpt>
      <trkpt lat="43.41985" lon="6.13517">
        <ele>239.60000610352</ele>
        <time>2017-03-29T13:29:26Z</time>
      </trkpt>
      <trkpt lat="43.41989" lon="6.13522">
        <ele>240</ele>
        <time>2017-03-29T13:29:30Z</time>
      </trkpt>
      <trkpt lat="43.4199" lon="6.13523">
        <ele>240.19999694824</ele>
        <time>2017-03-29T13:29:31Z</time>
      </trkpt>
      <trkpt lat="43.41999" lon="6.13535">
        <ele>241.19999694824</ele>
        <time>2017-03-29T13:29:39Z</time>
      </trkpt>
      <trkpt lat="43.42017" lon="6.13552">
        <ele>242</ele>
        <time>2017-03-29T13:29:51Z</time>
      </trkpt>
      <trkpt lat="43.42033" lon="6.13569">
        <ele>242</ele>
        <time>2017-03-29T13:30:01Z</time>
      </trkpt>
      <trkpt lat="43.42036" lon="6.13573">
        <ele>242.19999694824</ele>
        <time>2017-03-29T13:30:03Z</time>
      </trkpt>
      <trkpt lat="43.4204" lon="6.13579">
        <ele>242.39999389648</ele>
        <time>2017-03-29T13:30:06Z</time>
      </trkpt>
      <trkpt lat="43.42053" lon="6.13598">
        <ele>242.60000610352</ele>
        <time>2017-03-29T13:30:16Z</time>
      </trkpt>
      <trkpt lat="43.42057" lon="6.13606">
        <ele>243</ele>
        <time>2017-03-29T13:30:21Z</time>
      </trkpt>
      <trkpt lat="43.42059" lon="6.13609">
        <ele>243.19999694824</ele>
        <time>2017-03-29T13:30:23Z</time>
      </trkpt>
      <trkpt lat="43.42067" lon="6.13624">
        <ele>244.39999389648</ele>
        <time>2017-03-29T13:30:31Z</time>
      </trkpt>
      <trkpt lat="43.42071" lon="6.13632">
        <ele>244.39999389648</ele>
        <time>2017-03-29T13:30:35Z</time>
      </trkpt>
      <trkpt lat="43.42072" lon="6.13634">
        <ele>244.39999389648</ele>
        <time>2017-03-29T13:30:36Z</time>
      </trkpt>
      <trkpt lat="43.42076" lon="6.13644">
        <ele>244.80000305176</ele>
        <time>2017-03-29T13:30:41Z</time>
      </trkpt>
      <trkpt lat="43.4208" lon="6.13655">
        <ele>245.60000610352</ele>
        <time>2017-03-29T13:30:46Z</time>
      </trkpt>
      <trkpt lat="43.42081" lon="6.13657">
        <ele>245.60000610352</ele>
        <time>2017-03-29T13:30:47Z</time>
      </trkpt>
      <trkpt lat="43.42088" lon="6.13674">
        <ele>246.60000610352</ele>
        <time>2017-03-29T13:30:55Z</time>
      </trkpt>
      <trkpt lat="43.42089" lon="6.13678">
        <ele>247.19999694824</ele>
        <time>2017-03-29T13:30:57Z</time>
      </trkpt>
      <trkpt lat="43.4209" lon="6.1368">
        <ele>247.39999389648</ele>
        <time>2017-03-29T13:30:58Z</time>
      </trkpt>
      <trkpt lat="43.42093" lon="6.13687">
        <ele>247.60000610352</ele>
        <time>2017-03-29T13:31:01Z</time>
      </trkpt>
      <trkpt lat="43.42094" lon="6.13692">
        <ele>247.39999389648</ele>
        <time>2017-03-29T13:31:03Z</time>
      </trkpt>
      <trkpt lat="43.42101" lon="6.13711">
        <ele>247.80000305176</ele>
        <time>2017-03-29T13:31:11Z</time>
      </trkpt>
      <trkpt lat="43.42107" lon="6.13727">
        <ele>248.19999694824</ele>
        <time>2017-03-29T13:31:18Z</time>
      </trkpt>
      <trkpt lat="43.42108" lon="6.13728">
        <ele>248.19999694824</ele>
        <time>2017-03-29T13:31:19Z</time>
      </trkpt>
      <trkpt lat="43.4211" lon="6.13732">
        <ele>248.39999389648</ele>
        <time>2017-03-29T13:31:21Z</time>
      </trkpt>
      <trkpt lat="43.42112" lon="6.13736">
        <ele>248.60000610352</ele>
        <time>2017-03-29T13:31:23Z</time>
      </trkpt>
      <trkpt lat="43.42113" lon="6.13738">
        <ele>248.80000305176</ele>
        <time>2017-03-29T13:31:24Z</time>
      </trkpt>
      <trkpt lat="43.42118" lon="6.13745">
        <ele>249.39999389648</ele>
        <time>2017-03-29T13:31:29Z</time>
      </trkpt>
      <trkpt lat="43.42119" lon="6.13748">
        <ele>249.80000305176</ele>
        <time>2017-03-29T13:31:31Z</time>
      </trkpt>
      <trkpt lat="43.42123" lon="6.13756">
        <ele>250.60000610352</ele>
        <time>2017-03-29T13:31:35Z</time>
      </trkpt>
      <trkpt lat="43.42126" lon="6.13761">
        <ele>251</ele>
        <time>2017-03-29T13:31:38Z</time>
      </trkpt>
      <trkpt lat="43.42129" lon="6.13766">
        <ele>251.19999694824</ele>
        <time>2017-03-29T13:31:41Z</time>
      </trkpt>
      <trkpt lat="43.42134" lon="6.13777">
        <ele>252</ele>
        <time>2017-03-29T13:31:48Z</time>
      </trkpt>
      <trkpt lat="43.42136" lon="6.13783">
        <ele>252.39999389648</ele>
        <time>2017-03-29T13:31:51Z</time>
      </trkpt>
      <trkpt lat="43.42139" lon="6.1379">
        <ele>253</ele>
        <time>2017-03-29T13:31:55Z</time>
      </trkpt>
      <trkpt lat="43.42143" lon="6.13801">
        <ele>253.80000305176</ele>
        <time>2017-03-29T13:32:01Z</time>
      </trkpt>
      <trkpt lat="43.42147" lon="6.1381">
        <ele>254.19999694824</ele>
        <time>2017-03-29T13:32:06Z</time>
      </trkpt>
      <trkpt lat="43.42154" lon="6.13817">
        <ele>255</ele>
        <time>2017-03-29T13:32:11Z</time>
      </trkpt>
      <trkpt lat="43.42155" lon="6.13819">
        <ele>255.19999694824</ele>
        <time>2017-03-29T13:32:12Z</time>
      </trkpt>
      <trkpt lat="43.42159" lon="6.1383">
        <ele>256.39999389648</ele>
        <time>2017-03-29T13:32:18Z</time>
      </trkpt>
      <trkpt lat="43.4216" lon="6.13835">
        <ele>256.79998779297</ele>
        <time>2017-03-29T13:32:21Z</time>
      </trkpt>
      <trkpt lat="43.42162" lon="6.13838">
        <ele>257.20001220703</ele>
        <time>2017-03-29T13:32:24Z</time>
      </trkpt>
      <trkpt lat="43.42163" lon="6.13839">
        <ele>257.39999389648</ele>
        <time>2017-03-29T13:32:25Z</time>
      </trkpt>
      <trkpt lat="43.42164" lon="6.1384">
        <ele>257.60000610352</ele>
        <time>2017-03-29T13:32:26Z</time>
      </trkpt>
      <trkpt lat="43.42166" lon="6.13842">
        <ele>257.60000610352</ele>
        <time>2017-03-29T13:32:28Z</time>
      </trkpt>
      <trkpt lat="43.42169" lon="6.13846">
        <ele>257.79998779297</ele>
        <time>2017-03-29T13:32:31Z</time>
      </trkpt>
      <trkpt lat="43.42173" lon="6.13852">
        <ele>258.20001220703</ele>
        <time>2017-03-29T13:32:35Z</time>
      </trkpt>
      <trkpt lat="43.42176" lon="6.13862">
        <ele>258.79998779297</ele>
        <time>2017-03-29T13:32:41Z</time>
      </trkpt>
      <trkpt lat="43.42182" lon="6.13868">
        <ele>259.39999389648</ele>
        <time>2017-03-29T13:32:46Z</time>
      </trkpt>
      <trkpt lat="43.42186" lon="6.13875">
        <ele>260.60000610352</ele>
        <time>2017-03-29T13:32:51Z</time>
      </trkpt>
      <trkpt lat="43.42189" lon="6.13892">
        <ele>261.39999389648</ele>
        <time>2017-03-29T13:33:01Z</time>
      </trkpt>
      <trkpt lat="43.4219" lon="6.13897">
        <ele>261.79998779297</ele>
        <time>2017-03-29T13:33:04Z</time>
      </trkpt>
      <trkpt lat="43.42194" lon="6.13907">
        <ele>262.60000610352</ele>
        <time>2017-03-29T13:33:11Z</time>
      </trkpt>
      <trkpt lat="43.42197" lon="6.13909">
        <ele>262.79998779297</ele>
        <time>2017-03-29T13:33:14Z</time>
      </trkpt>
      <trkpt lat="43.42201" lon="6.13919">
        <ele>263.60000610352</ele>
        <time>2017-03-29T13:33:21Z</time>
      </trkpt>
      <trkpt lat="43.42202" lon="6.13925">
        <ele>263.79998779297</ele>
        <time>2017-03-29T13:33:25Z</time>
      </trkpt>
      <trkpt lat="43.42204" lon="6.13935">
        <ele>264.20001220703</ele>
        <time>2017-03-29T13:33:31Z</time>
      </trkpt>
      <trkpt lat="43.42206" lon="6.13941">
        <ele>264.79998779297</ele>
        <time>2017-03-29T13:33:35Z</time>
      </trkpt>
      <trkpt lat="43.42206" lon="6.1395">
        <ele>265.60000610352</ele>
        <time>2017-03-29T13:33:41Z</time>
      </trkpt>
      <trkpt lat="43.42207" lon="6.13953">
        <ele>266</ele>
        <time>2017-03-29T13:33:43Z</time>
      </trkpt>
      <trkpt lat="43.42207" lon="6.13958">
        <ele>266.60000610352</ele>
        <time>2017-03-29T13:33:47Z</time>
      </trkpt>
      <trkpt lat="43.42207" lon="6.13963">
        <ele>267</ele>
        <time>2017-03-29T13:33:50Z</time>
      </trkpt>
      <trkpt lat="43.42207" lon="6.13964">
        <ele>267.20001220703</ele>
        <time>2017-03-29T13:33:51Z</time>
      </trkpt>
      <trkpt lat="43.42207" lon="6.13984">
        <ele>267.79998779297</ele>
        <time>2017-03-29T13:34:01Z</time>
      </trkpt>
      <trkpt lat="43.42207" lon="6.1399">
        <ele>268</ele>
        <time>2017-03-29T13:34:05Z</time>
      </trkpt>
      <trkpt lat="43.42205" lon="6.14001">
        <ele>268.79998779297</ele>
        <time>2017-03-29T13:34:11Z</time>
      </trkpt>
      <trkpt lat="43.42204" lon="6.14005">
        <ele>269.20001220703</ele>
        <time>2017-03-29T13:34:13Z</time>
      </trkpt>
      <trkpt lat="43.42203" lon="6.14017">
        <ele>270.39999389648</ele>
        <time>2017-03-29T13:34:19Z</time>
      </trkpt>
      <trkpt lat="43.42202" lon="6.14023">
        <ele>271.39999389648</ele>
        <time>2017-03-29T13:34:22Z</time>
      </trkpt>
      <trkpt lat="43.42198" lon="6.1403">
        <ele>272.79998779297</ele>
        <time>2017-03-29T13:34:27Z</time>
      </trkpt>
      <trkpt lat="43.42196" lon="6.1403">
        <ele>273.79998779297</ele>
        <time>2017-03-29T13:34:30Z</time>
      </trkpt>
      <trkpt lat="43.42196" lon="6.1403">
        <ele>273.79998779297</ele>
        <time>2017-03-29T13:34:31Z</time>
      </trkpt>
      <trkpt lat="43.42196" lon="6.14033">
        <ele>273.39999389648</ele>
        <time>2017-03-29T13:34:41Z</time>
      </trkpt>
      <trkpt lat="43.42196" lon="6.14033">
        <ele>273.39999389648</ele>
        <time>2017-03-29T13:34:46Z</time>
      </trkpt>
      <trkpt lat="43.42196" lon="6.14033">
        <ele>273.39999389648</ele>
        <time>2017-03-29T13:34:49Z</time>
      </trkpt>
      <trkpt lat="43.42197" lon="6.14033">
        <ele>273.60000610352</ele>
        <time>2017-03-29T13:34:51Z</time>
      </trkpt>
      <trkpt lat="43.42196" lon="6.14033">
        <ele>273.60000610352</ele>
        <time>2017-03-29T13:34:55Z</time>
      </trkpt>
      <trkpt lat="43.42197" lon="6.14033">
        <ele>273.39999389648</ele>
        <time>2017-03-29T13:34:59Z</time>
      </trkpt>
      <trkpt lat="43.42197" lon="6.14033">
        <ele>273.60000610352</ele>
        <time>2017-03-29T13:35:09Z</time>
      </trkpt>
      <trkpt lat="43.42197" lon="6.14034">
        <ele>273.60000610352</ele>
        <time>2017-03-29T13:35:15Z</time>
      </trkpt>
      <trkpt lat="43.42196" lon="6.14034">
        <ele>273.39999389648</ele>
        <time>2017-03-29T13:35:18Z</time>
      </trkpt>
      <trkpt lat="43.42196" lon="6.14034">
        <ele>273.39999389648</ele>
        <time>2017-03-29T13:35:21Z</time>
      </trkpt>
      <trkpt lat="43.42196" lon="6.14034">
        <ele>273.60000610352</ele>
        <time>2017-03-29T13:35:31Z</time>
      </trkpt>
      <trkpt lat="43.42197" lon="6.14035">
        <ele>273.79998779297</ele>
        <time>2017-03-29T13:36:01Z</time>
      </trkpt>
      <trkpt lat="43.42197" lon="6.14035">
        <ele>273.79998779297</ele>
        <time>2017-03-29T13:36:11Z</time>
      </trkpt>
      <trkpt lat="43.42197" lon="6.14035">
        <ele>273.79998779297</ele>
        <time>2017-03-29T13:36:21Z</time>
      </trkpt>
      <trkpt lat="43.42197" lon="6.14035">
        <ele>273.79998779297</ele>
        <time>2017-03-29T13:36:31Z</time>
      </trkpt>
      <trkpt lat="43.42195" lon="6.1404">
        <ele>273.60000610352</ele>
        <time>2017-03-29T13:36:35Z</time>
      </trkpt>
      <trkpt lat="43.42191" lon="6.14048">
        <ele>274.79998779297</ele>
        <time>2017-03-29T13:36:39Z</time>
      </trkpt>
      <trkpt lat="43.42189" lon="6.14052">
        <ele>274.79998779297</ele>
        <time>2017-03-29T13:36:41Z</time>
      </trkpt>
      <trkpt lat="43.42188" lon="6.14056">
        <ele>275</ele>
        <time>2017-03-29T13:36:43Z</time>
      </trkpt>
      <trkpt lat="43.42186" lon="6.14062">
        <ele>275.39999389648</ele>
        <time>2017-03-29T13:36:46Z</time>
      </trkpt>
      <trkpt lat="43.42182" lon="6.14069">
        <ele>276.20001220703</ele>
        <time>2017-03-29T13:36:50Z</time>
      </trkpt>
      <trkpt lat="43.42182" lon="6.14071">
        <ele>276.39999389648</ele>
        <time>2017-03-29T13:36:51Z</time>
      </trkpt>
      <trkpt lat="43.4218" lon="6.14083">
        <ele>277.20001220703</ele>
        <time>2017-03-29T13:36:57Z</time>
      </trkpt>
      <trkpt lat="43.42177" lon="6.14092">
        <ele>278</ele>
        <time>2017-03-29T13:37:01Z</time>
      </trkpt>
      <trkpt lat="43.42172" lon="6.14103">
        <ele>278.20001220703</ele>
        <time>2017-03-29T13:37:06Z</time>
      </trkpt>
      <trkpt lat="43.4217" lon="6.14107">
        <ele>278.20001220703</ele>
        <time>2017-03-29T13:37:08Z</time>
      </trkpt>
      <trkpt lat="43.42156" lon="6.14122">
        <ele>279.39999389648</ele>
        <time>2017-03-29T13:37:18Z</time>
      </trkpt>
      <trkpt lat="43.42152" lon="6.14125">
        <ele>280.20001220703</ele>
        <time>2017-03-29T13:37:21Z</time>
      </trkpt>
      <trkpt lat="43.42152" lon="6.14127">
        <ele>280.39999389648</ele>
        <time>2017-03-29T13:37:22Z</time>
      </trkpt>
      <trkpt lat="43.42149" lon="6.14132">
        <ele>281</ele>
        <time>2017-03-29T13:37:26Z</time>
      </trkpt>
      <trkpt lat="43.42149" lon="6.14134">
        <ele>281</ele>
        <time>2017-03-29T13:37:27Z</time>
      </trkpt>
      <trkpt lat="43.4215" lon="6.14136">
        <ele>281.20001220703</ele>
        <time>2017-03-29T13:37:29Z</time>
      </trkpt>
      <trkpt lat="43.42152" lon="6.14136">
        <ele>281.20001220703</ele>
        <time>2017-03-29T13:37:31Z</time>
      </trkpt>
      <trkpt lat="43.42152" lon="6.14136">
        <ele>281.20001220703</ele>
        <time>2017-03-29T13:37:34Z</time>
      </trkpt>
      <trkpt lat="43.42152" lon="6.14136">
        <ele>281.20001220703</ele>
        <time>2017-03-29T13:37:36Z</time>
      </trkpt>
      <trkpt lat="43.42152" lon="6.14136">
        <ele>281</ele>
        <time>2017-03-29T13:37:41Z</time>
      </trkpt>
      <trkpt lat="43.42152" lon="6.14136">
        <ele>280.79998779297</ele>
        <time>2017-03-29T13:37:51Z</time>
      </trkpt>
      <trkpt lat="43.42152" lon="6.14136">
        <ele>280.79998779297</ele>
        <time>2017-03-29T13:37:54Z</time>
      </trkpt>
      <trkpt lat="43.42152" lon="6.14136">
        <ele>280.79998779297</ele>
        <time>2017-03-29T13:38:04Z</time>
      </trkpt>
      <trkpt lat="43.42152" lon="6.14136">
        <ele>280.79998779297</ele>
        <time>2017-03-29T13:38:11Z</time>
      </trkpt>
      <trkpt lat="43.42151" lon="6.14136">
        <ele>280.60000610352</ele>
        <time>2017-03-29T13:38:41Z</time>
      </trkpt>
      <trkpt lat="43.42149" lon="6.14137">
        <ele>280.60000610352</ele>
        <time>2017-03-29T13:38:49Z</time>
      </trkpt>
      <trkpt lat="43.42149" lon="6.14137">
        <ele>280.60000610352</ele>
        <time>2017-03-29T13:38:51Z</time>
      </trkpt>
      <trkpt lat="43.4215" lon="6.14138">
        <ele>280.60000610352</ele>
        <time>2017-03-29T13:39:11Z</time>
      </trkpt>
      <trkpt lat="43.4215" lon="6.1414">
        <ele>280.60000610352</ele>
        <time>2017-03-29T13:39:21Z</time>
      </trkpt>
      <trkpt lat="43.42149" lon="6.14145">
        <ele>280.60000610352</ele>
        <time>2017-03-29T13:39:31Z</time>
      </trkpt>
      <trkpt lat="43.42149" lon="6.14146">
        <ele>280.60000610352</ele>
        <time>2017-03-29T13:39:46Z</time>
      </trkpt>
      <trkpt lat="43.42149" lon="6.14145">
        <ele>280.60000610352</ele>
        <time>2017-03-29T13:39:51Z</time>
      </trkpt>
      <trkpt lat="43.4215" lon="6.14145">
        <ele>280.60000610352</ele>
        <time>2017-03-29T13:39:58Z</time>
      </trkpt>
      <trkpt lat="43.4215" lon="6.14145">
        <ele>280.60000610352</ele>
        <time>2017-03-29T13:40:01Z</time>
      </trkpt>
      <trkpt lat="43.4215" lon="6.14145">
        <ele>280.60000610352</ele>
        <time>2017-03-29T13:40:11Z</time>
      </trkpt>
      <trkpt lat="43.42149" lon="6.14145">
        <ele>280.60000610352</ele>
        <time>2017-03-29T13:40:31Z</time>
      </trkpt>
      <trkpt lat="43.42152" lon="6.14149">
        <ele>280.20001220703</ele>
        <time>2017-03-29T13:40:36Z</time>
      </trkpt>
      <trkpt lat="43.42155" lon="6.14154">
        <ele>279.20001220703</ele>
        <time>2017-03-29T13:40:39Z</time>
      </trkpt>
      <trkpt lat="43.42159" lon="6.14159">
        <ele>279.20001220703</ele>
        <time>2017-03-29T13:40:41Z</time>
      </trkpt>
      <trkpt lat="43.42171" lon="6.14179">
        <ele>279</ele>
        <time>2017-03-29T13:40:46Z</time>
      </trkpt>
      <trkpt lat="43.42183" lon="6.14202">
        <ele>278.39999389648</ele>
        <time>2017-03-29T13:40:50Z</time>
      </trkpt>
      <trkpt lat="43.42187" lon="6.14208">
        <ele>278</ele>
        <time>2017-03-29T13:40:51Z</time>
      </trkpt>
      <trkpt lat="43.42192" lon="6.14212">
        <ele>277.20001220703</ele>
        <time>2017-03-29T13:40:52Z</time>
      </trkpt>
      <trkpt lat="43.42197" lon="6.14215">
        <ele>276.39999389648</ele>
        <time>2017-03-29T13:40:53Z</time>
      </trkpt>
      <trkpt lat="43.42204" lon="6.14217">
        <ele>276.20001220703</ele>
        <time>2017-03-29T13:40:54Z</time>
      </trkpt>
      <trkpt lat="43.42215" lon="6.14219">
        <ele>275.60000610352</ele>
        <time>2017-03-29T13:40:56Z</time>
      </trkpt>
      <trkpt lat="43.42226" lon="6.14219">
        <ele>275.39999389648</ele>
        <time>2017-03-29T13:40:58Z</time>
      </trkpt>
      <trkpt lat="43.42235" lon="6.1422">
        <ele>275.20001220703</ele>
        <time>2017-03-29T13:41:01Z</time>
      </trkpt>
      <trkpt lat="43.42242" lon="6.14223">
        <ele>275.20001220703</ele>
        <time>2017-03-29T13:41:06Z</time>
      </trkpt>
      <trkpt lat="43.42253" lon="6.14224">
        <ele>275.20001220703</ele>
        <time>2017-03-29T13:41:11Z</time>
      </trkpt>
      <trkpt lat="43.42253" lon="6.14224">
        <ele>275.20001220703</ele>
        <time>2017-03-29T13:41:21Z</time>
      </trkpt>
      <trkpt lat="43.42256" lon="6.14226">
        <ele>275.60000610352</ele>
        <time>2017-03-29T13:41:27Z</time>
      </trkpt>
      <trkpt lat="43.42259" lon="6.14224">
        <ele>275.79998779297</ele>
        <time>2017-03-29T13:41:30Z</time>
      </trkpt>
      <trkpt lat="43.4226" lon="6.14222">
        <ele>275.79998779297</ele>
        <time>2017-03-29T13:41:31Z</time>
      </trkpt>
      <trkpt lat="43.42267" lon="6.14216">
        <ele>276.39999389648</ele>
        <time>2017-03-29T13:41:35Z</time>
      </trkpt>
      <trkpt lat="43.42274" lon="6.14213">
        <ele>276.79998779297</ele>
        <time>2017-03-29T13:41:39Z</time>
      </trkpt>
      <trkpt lat="43.42279" lon="6.14211">
        <ele>277.60000610352</ele>
        <time>2017-03-29T13:41:42Z</time>
      </trkpt>
      <trkpt lat="43.42284" lon="6.1421">
        <ele>278.20001220703</ele>
        <time>2017-03-29T13:41:45Z</time>
      </trkpt>
      <trkpt lat="43.42288" lon="6.14211">
        <ele>278.60000610352</ele>
        <time>2017-03-29T13:41:48Z</time>
      </trkpt>
      <trkpt lat="43.42294" lon="6.14212">
        <ele>279</ele>
        <time>2017-03-29T13:41:51Z</time>
      </trkpt>
      <trkpt lat="43.4231" lon="6.14229">
        <ele>279.39999389648</ele>
        <time>2017-03-29T13:42:01Z</time>
      </trkpt>
      <trkpt lat="43.42317" lon="6.14244">
        <ele>279.20001220703</ele>
        <time>2017-03-29T13:42:05Z</time>
      </trkpt>
      <trkpt lat="43.42322" lon="6.1427">
        <ele>279.20001220703</ele>
        <time>2017-03-29T13:42:11Z</time>
      </trkpt>
      <trkpt lat="43.42334" lon="6.14311">
        <ele>279</ele>
        <time>2017-03-29T13:42:21Z</time>
      </trkpt>
      <trkpt lat="43.42339" lon="6.14326">
        <ele>279.79998779297</ele>
        <time>2017-03-29T13:42:25Z</time>
      </trkpt>
      <trkpt lat="43.42344" lon="6.14342">
        <ele>280.79998779297</ele>
        <time>2017-03-29T13:42:30Z</time>
      </trkpt>
      <trkpt lat="43.4235" lon="6.14362">
        <ele>281.79998779297</ele>
        <time>2017-03-29T13:42:36Z</time>
      </trkpt>
      <trkpt lat="43.42355" lon="6.14378">
        <ele>281.79998779297</ele>
        <time>2017-03-29T13:42:41Z</time>
      </trkpt>
      <trkpt lat="43.42368" lon="6.14406">
        <ele>283.39999389648</ele>
        <time>2017-03-29T13:42:51Z</time>
      </trkpt>
      <trkpt lat="43.42376" lon="6.14423">
        <ele>284.20001220703</ele>
        <time>2017-03-29T13:42:58Z</time>
      </trkpt>
      <trkpt lat="43.42378" lon="6.1443">
        <ele>284.39999389648</ele>
        <time>2017-03-29T13:43:01Z</time>
      </trkpt>
      <trkpt lat="43.42381" lon="6.14438">
        <ele>284.79998779297</ele>
        <time>2017-03-29T13:43:06Z</time>
      </trkpt>
      <trkpt lat="43.42382" lon="6.14441">
        <ele>285</ele>
        <time>2017-03-29T13:43:08Z</time>
      </trkpt>
      <trkpt lat="43.42383" lon="6.14445">
        <ele>285.20001220703</ele>
        <time>2017-03-29T13:43:11Z</time>
      </trkpt>
      <trkpt lat="43.42383" lon="6.1445">
        <ele>285.20001220703</ele>
        <time>2017-03-29T13:43:14Z</time>
      </trkpt>
      <trkpt lat="43.42386" lon="6.14456">
        <ele>285.20001220703</ele>
        <time>2017-03-29T13:43:19Z</time>
      </trkpt>
      <trkpt lat="43.42387" lon="6.14458">
        <ele>285.20001220703</ele>
        <time>2017-03-29T13:43:21Z</time>
      </trkpt>
      <trkpt lat="43.42388" lon="6.14462">
        <ele>285.60000610352</ele>
        <time>2017-03-29T13:43:25Z</time>
      </trkpt>
      <trkpt lat="43.42389" lon="6.14465">
        <ele>285.60000610352</ele>
        <time>2017-03-29T13:43:27Z</time>
      </trkpt>
      <trkpt lat="43.4239" lon="6.14467">
        <ele>285.60000610352</ele>
        <time>2017-03-29T13:43:29Z</time>
      </trkpt>
      <trkpt lat="43.42392" lon="6.14475">
        <ele>285.60000610352</ele>
        <time>2017-03-29T13:43:34Z</time>
      </trkpt>
      <trkpt lat="43.42394" lon="6.1449">
        <ele>285.60000610352</ele>
        <time>2017-03-29T13:43:41Z</time>
      </trkpt>
      <trkpt lat="43.42393" lon="6.1452">
        <ele>286.20001220703</ele>
        <time>2017-03-29T13:43:51Z</time>
      </trkpt>
      <trkpt lat="43.42393" lon="6.14523">
        <ele>286.20001220703</ele>
        <time>2017-03-29T13:43:52Z</time>
      </trkpt>
      <trkpt lat="43.42391" lon="6.14539">
        <ele>286.60000610352</ele>
        <time>2017-03-29T13:43:57Z</time>
      </trkpt>
      <trkpt lat="43.42389" lon="6.14553">
        <ele>287.79998779297</ele>
        <time>2017-03-29T13:44:01Z</time>
      </trkpt>
      <trkpt lat="43.42387" lon="6.14563">
        <ele>288.20001220703</ele>
        <time>2017-03-29T13:44:04Z</time>
      </trkpt>
      <trkpt lat="43.42385" lon="6.14571">
        <ele>288.39999389648</ele>
        <time>2017-03-29T13:44:07Z</time>
      </trkpt>
      <trkpt lat="43.42385" lon="6.14575">
        <ele>288.60000610352</ele>
        <time>2017-03-29T13:44:08Z</time>
      </trkpt>
      <trkpt lat="43.42384" lon="6.14585">
        <ele>289.20001220703</ele>
        <time>2017-03-29T13:44:11Z</time>
      </trkpt>
      <trkpt lat="43.42381" lon="6.14621">
        <ele>290.20001220703</ele>
        <time>2017-03-29T13:44:21Z</time>
      </trkpt>
      <trkpt lat="43.42377" lon="6.14654">
        <ele>290.79998779297</ele>
        <time>2017-03-29T13:44:30Z</time>
      </trkpt>
      <trkpt lat="43.42377" lon="6.14657">
        <ele>291</ele>
        <time>2017-03-29T13:44:31Z</time>
      </trkpt>
      <trkpt lat="43.42376" lon="6.14667">
        <ele>291.79998779297</ele>
        <time>2017-03-29T13:44:34Z</time>
      </trkpt>
      <trkpt lat="43.42378" lon="6.14689">
        <ele>292.20001220703</ele>
        <time>2017-03-29T13:44:41Z</time>
      </trkpt>
      <trkpt lat="43.42386" lon="6.14717">
        <ele>293.20001220703</ele>
        <time>2017-03-29T13:44:51Z</time>
      </trkpt>
      <trkpt lat="43.4239" lon="6.14732">
        <ele>293.60000610352</ele>
        <time>2017-03-29T13:44:58Z</time>
      </trkpt>
      <trkpt lat="43.42391" lon="6.14736">
        <ele>293.60000610352</ele>
        <time>2017-03-29T13:45:01Z</time>
      </trkpt>
      <trkpt lat="43.42394" lon="6.14744">
        <ele>293.79998779297</ele>
        <time>2017-03-29T13:45:06Z</time>
      </trkpt>
      <trkpt lat="43.42394" lon="6.14746">
        <ele>294</ele>
        <time>2017-03-29T13:45:07Z</time>
      </trkpt>
      <trkpt lat="43.42395" lon="6.14756">
        <ele>294.39999389648</ele>
        <time>2017-03-29T13:45:11Z</time>
      </trkpt>
      <trkpt lat="43.42394" lon="6.14763">
        <ele>295</ele>
        <time>2017-03-29T13:45:15Z</time>
      </trkpt>
      <trkpt lat="43.42391" lon="6.1478">
        <ele>295.20001220703</ele>
        <time>2017-03-29T13:45:21Z</time>
      </trkpt>
      <trkpt lat="43.42389" lon="6.14797">
        <ele>295.79998779297</ele>
        <time>2017-03-29T13:45:27Z</time>
      </trkpt>
      <trkpt lat="43.42387" lon="6.1481">
        <ele>295.79998779297</ele>
        <time>2017-03-29T13:45:31Z</time>
      </trkpt>
      <trkpt lat="43.42386" lon="6.14842">
        <ele>296.20001220703</ele>
        <time>2017-03-29T13:45:41Z</time>
      </trkpt>
      <trkpt lat="43.42385" lon="6.14863">
        <ele>297</ele>
        <time>2017-03-29T13:45:48Z</time>
      </trkpt>
      <trkpt lat="43.42387" lon="6.14871">
        <ele>297.39999389648</ele>
        <time>2017-03-29T13:45:51Z</time>
      </trkpt>
      <trkpt lat="43.42392" lon="6.14898">
        <ele>298</ele>
        <time>2017-03-29T13:46:01Z</time>
      </trkpt>
      <trkpt lat="43.42398" lon="6.14927">
        <ele>299</ele>
        <time>2017-03-29T13:46:11Z</time>
      </trkpt>
      <trkpt lat="43.42397" lon="6.14937">
        <ele>299</ele>
        <time>2017-03-29T13:46:14Z</time>
      </trkpt>
      <trkpt lat="43.42392" lon="6.1496">
        <ele>299.20001220703</ele>
        <time>2017-03-29T13:46:21Z</time>
      </trkpt>
      <trkpt lat="43.42386" lon="6.14985">
        <ele>300.20001220703</ele>
        <time>2017-03-29T13:46:29Z</time>
      </trkpt>
      <trkpt lat="43.42387" lon="6.15023">
        <ele>300.79998779297</ele>
        <time>2017-03-29T13:46:41Z</time>
      </trkpt>
      <trkpt lat="43.42398" lon="6.15052">
        <ele>300.60000610352</ele>
        <time>2017-03-29T13:46:51Z</time>
      </trkpt>
      <trkpt lat="43.4241" lon="6.1507">
        <ele>301.39999389648</ele>
        <time>2017-03-29T13:46:59Z</time>
      </trkpt>
      <trkpt lat="43.42412" lon="6.15074">
        <ele>301.39999389648</ele>
        <time>2017-03-29T13:47:01Z</time>
      </trkpt>
      <trkpt lat="43.42423" lon="6.15099">
        <ele>302</ele>
        <time>2017-03-29T13:47:11Z</time>
      </trkpt>
      <trkpt lat="43.4244" lon="6.15123">
        <ele>301.79998779297</ele>
        <time>2017-03-29T13:47:21Z</time>
      </trkpt>
      <trkpt lat="43.42448" lon="6.1515">
        <ele>301.60000610352</ele>
        <time>2017-03-29T13:47:30Z</time>
      </trkpt>
      <trkpt lat="43.42453" lon="6.15176">
        <ele>302.39999389648</ele>
        <time>2017-03-29T13:47:38Z</time>
      </trkpt>
      <trkpt lat="43.42455" lon="6.15186">
        <ele>302.39999389648</ele>
        <time>2017-03-29T13:47:41Z</time>
      </trkpt>
      <trkpt lat="43.42463" lon="6.15211">
        <ele>302.79998779297</ele>
        <time>2017-03-29T13:47:51Z</time>
      </trkpt>
      <trkpt lat="43.42465" lon="6.15235">
        <ele>302.39999389648</ele>
        <time>2017-03-29T13:48:01Z</time>
      </trkpt>
      <trkpt lat="43.42476" lon="6.15265">
        <ele>302</ele>
        <time>2017-03-29T13:48:11Z</time>
      </trkpt>
      <trkpt lat="43.42478" lon="6.15288">
        <ele>302.39999389648</ele>
        <time>2017-03-29T13:48:21Z</time>
      </trkpt>
      <trkpt lat="43.42485" lon="6.15318">
        <ele>303.20001220703</ele>
        <time>2017-03-29T13:48:31Z</time>
      </trkpt>
      <trkpt lat="43.42493" lon="6.1533">
        <ele>303.39999389648</ele>
        <time>2017-03-29T13:48:37Z</time>
      </trkpt>
      <trkpt lat="43.42499" lon="6.15337">
        <ele>303.60000610352</ele>
        <time>2017-03-29T13:48:41Z</time>
      </trkpt>
      <trkpt lat="43.42506" lon="6.15363">
        <ele>303.60000610352</ele>
        <time>2017-03-29T13:48:51Z</time>
      </trkpt>
      <trkpt lat="43.42509" lon="6.15379">
        <ele>303.60000610352</ele>
        <time>2017-03-29T13:48:57Z</time>
      </trkpt>
      <trkpt lat="43.42511" lon="6.15381">
        <ele>303.79998779297</ele>
        <time>2017-03-29T13:49:01Z</time>
      </trkpt>
      <trkpt lat="43.42511" lon="6.15382">
        <ele>303.79998779297</ele>
        <time>2017-03-29T13:49:11Z</time>
      </trkpt>
      <trkpt lat="43.42511" lon="6.15381">
        <ele>303.60000610352</ele>
        <time>2017-03-29T13:49:21Z</time>
      </trkpt>
      <trkpt lat="43.42511" lon="6.15381">
        <ele>303.60000610352</ele>
        <time>2017-03-29T13:49:31Z</time>
      </trkpt>
      <trkpt lat="43.42511" lon="6.15381">
        <ele>303.79998779297</ele>
        <time>2017-03-29T13:50:01Z</time>
      </trkpt>
      <trkpt lat="43.42511" lon="6.15382">
        <ele>304</ele>
        <time>2017-03-29T13:50:11Z</time>
      </trkpt>
      <trkpt lat="43.42513" lon="6.15382">
        <ele>304</ele>
        <time>2017-03-29T13:50:12Z</time>
      </trkpt>
      <trkpt lat="43.42516" lon="6.15383">
        <ele>303.39999389648</ele>
        <time>2017-03-29T13:50:14Z</time>
      </trkpt>
      <trkpt lat="43.42523" lon="6.15386">
        <ele>304.60000610352</ele>
        <time>2017-03-29T13:50:18Z</time>
      </trkpt>
      <trkpt lat="43.4253" lon="6.15388">
        <ele>304.60000610352</ele>
        <time>2017-03-29T13:50:21Z</time>
      </trkpt>
      <trkpt lat="43.4255" lon="6.15397">
        <ele>305.79998779297</ele>
        <time>2017-03-29T13:50:31Z</time>
      </trkpt>
      <trkpt lat="43.42572" lon="6.15414">
        <ele>305.79998779297</ele>
        <time>2017-03-29T13:50:41Z</time>
      </trkpt>
      <trkpt lat="43.42584" lon="6.1542">
        <ele>306.20001220703</ele>
        <time>2017-03-29T13:50:46Z</time>
      </trkpt>
      <trkpt lat="43.42595" lon="6.1543">
        <ele>306.60000610352</ele>
        <time>2017-03-29T13:50:51Z</time>
      </trkpt>
      <trkpt lat="43.42602" lon="6.15438">
        <ele>306.79998779297</ele>
        <time>2017-03-29T13:50:55Z</time>
      </trkpt>
      <trkpt lat="43.42614" lon="6.15453">
        <ele>307.20001220703</ele>
        <time>2017-03-29T13:51:01Z</time>
      </trkpt>
      <trkpt lat="43.42616" lon="6.15454">
        <ele>307.20001220703</ele>
        <time>2017-03-29T13:51:02Z</time>
      </trkpt>
      <trkpt lat="43.42636" lon="6.15468">
        <ele>307.39999389648</ele>
        <time>2017-03-29T13:51:11Z</time>
      </trkpt>
      <trkpt lat="43.42646" lon="6.15478">
        <ele>308</ele>
        <time>2017-03-29T13:51:16Z</time>
      </trkpt>
      <trkpt lat="43.42655" lon="6.15489">
        <ele>308.79998779297</ele>
        <time>2017-03-29T13:51:21Z</time>
      </trkpt>
      <trkpt lat="43.42675" lon="6.15511">
        <ele>309</ele>
        <time>2017-03-29T13:51:31Z</time>
      </trkpt>
      <trkpt lat="43.42696" lon="6.15526">
        <ele>309.39999389648</ele>
        <time>2017-03-29T13:51:41Z</time>
      </trkpt>
      <trkpt lat="43.42705" lon="6.15527">
        <ele>309.60000610352</ele>
        <time>2017-03-29T13:51:45Z</time>
      </trkpt>
      <trkpt lat="43.42715" lon="6.15536">
        <ele>309.60000610352</ele>
        <time>2017-03-29T13:51:51Z</time>
      </trkpt>
      <trkpt lat="43.42721" lon="6.15546">
        <ele>309.60000610352</ele>
        <time>2017-03-29T13:51:56Z</time>
      </trkpt>
      <trkpt lat="43.4272" lon="6.15548">
        <ele>310</ele>
        <time>2017-03-29T13:51:59Z</time>
      </trkpt>
      <trkpt lat="43.4272" lon="6.15548">
        <ele>310</ele>
        <time>2017-03-29T13:52:00Z</time>
      </trkpt>
      <trkpt lat="43.4272" lon="6.15548">
        <ele>310.20001220703</ele>
        <time>2017-03-29T13:52:01Z</time>
      </trkpt>
      <trkpt lat="43.42721" lon="6.15548">
        <ele>310.20001220703</ele>
        <time>2017-03-29T13:52:05Z</time>
      </trkpt>
      <trkpt lat="43.4272" lon="6.15548">
        <ele>310.20001220703</ele>
        <time>2017-03-29T13:52:11Z</time>
      </trkpt>
      <trkpt lat="43.4272" lon="6.15548">
        <ele>310.20001220703</ele>
        <time>2017-03-29T13:52:21Z</time>
      </trkpt>
      <trkpt lat="43.4272" lon="6.15548">
        <ele>310</ele>
        <time>2017-03-29T13:52:26Z</time>
      </trkpt>
      <trkpt lat="43.4272" lon="6.15548">
        <ele>310</ele>
        <time>2017-03-29T13:52:31Z</time>
      </trkpt>
      <trkpt lat="43.4272" lon="6.15548">
        <ele>309.79998779297</ele>
        <time>2017-03-29T13:52:38Z</time>
      </trkpt>
      <trkpt lat="43.42722" lon="6.15553">
        <ele>309.60000610352</ele>
        <time>2017-03-29T13:52:40Z</time>
      </trkpt>
      <trkpt lat="43.42723" lon="6.15555">
        <ele>309.60000610352</ele>
        <time>2017-03-29T13:52:41Z</time>
      </trkpt>
      <trkpt lat="43.42746" lon="6.15563">
        <ele>308.79998779297</ele>
        <time>2017-03-29T13:52:51Z</time>
      </trkpt>
      <trkpt lat="43.42759" lon="6.15576">
        <ele>309.39999389648</ele>
        <time>2017-03-29T13:52:58Z</time>
      </trkpt>
      <trkpt lat="43.42762" lon="6.15585">
        <ele>309.60000610352</ele>
        <time>2017-03-29T13:53:01Z</time>
      </trkpt>
      <trkpt lat="43.42765" lon="6.15594">
        <ele>309.20001220703</ele>
        <time>2017-03-29T13:53:04Z</time>
      </trkpt>
      <trkpt lat="43.42773" lon="6.15604">
        <ele>310</ele>
        <time>2017-03-29T13:53:08Z</time>
      </trkpt>
      <trkpt lat="43.42778" lon="6.15613">
        <ele>310.20001220703</ele>
        <time>2017-03-29T13:53:11Z</time>
      </trkpt>
      <trkpt lat="43.42789" lon="6.15624">
        <ele>310.60000610352</ele>
        <time>2017-03-29T13:53:17Z</time>
      </trkpt>
      <trkpt lat="43.42798" lon="6.15628">
        <ele>311.20001220703</ele>
        <time>2017-03-29T13:53:21Z</time>
      </trkpt>
      <trkpt lat="43.42819" lon="6.15643">
        <ele>311.20001220703</ele>
        <time>2017-03-29T13:53:31Z</time>
      </trkpt>
      <trkpt lat="43.42844" lon="6.15659">
        <ele>310.79998779297</ele>
        <time>2017-03-29T13:53:41Z</time>
      </trkpt>
      <trkpt lat="43.42868" lon="6.15676">
        <ele>311.39999389648</ele>
        <time>2017-03-29T13:53:51Z</time>
      </trkpt>
      <trkpt lat="43.42891" lon="6.15696">
        <ele>310.79998779297</ele>
        <time>2017-03-29T13:54:01Z</time>
      </trkpt>
      <trkpt lat="43.42903" lon="6.15702">
        <ele>310.60000610352</ele>
        <time>2017-03-29T13:54:05Z</time>
      </trkpt>
      <trkpt lat="43.42911" lon="6.15707">
        <ele>309.79998779297</ele>
        <time>2017-03-29T13:54:08Z</time>
      </trkpt>
      <trkpt lat="43.4292" lon="6.15711">
        <ele>309.20001220703</ele>
        <time>2017-03-29T13:54:11Z</time>
      </trkpt>
      <trkpt lat="43.42942" lon="6.15726">
        <ele>308.60000610352</ele>
        <time>2017-03-29T13:54:18Z</time>
      </trkpt>
      <trkpt lat="43.4295" lon="6.15735">
        <ele>307.79998779297</ele>
        <time>2017-03-29T13:54:21Z</time>
      </trkpt>
      <trkpt lat="43.42953" lon="6.15737">
        <ele>307.60000610352</ele>
        <time>2017-03-29T13:54:25Z</time>
      </trkpt>
      <trkpt lat="43.42953" lon="6.15737">
        <ele>307.60000610352</ele>
        <time>2017-03-29T13:54:31Z</time>
      </trkpt>
      <trkpt lat="43.42953" lon="6.1574">
        <ele>307.79998779297</ele>
        <time>2017-03-29T13:54:41Z</time>
      </trkpt>
      <trkpt lat="43.42952" lon="6.15743">
        <ele>308</ele>
        <time>2017-03-29T13:54:50Z</time>
      </trkpt>
      <trkpt lat="43.42952" lon="6.15743">
        <ele>308</ele>
        <time>2017-03-29T13:54:51Z</time>
      </trkpt>
      <trkpt lat="43.42952" lon="6.15744">
        <ele>307.60000610352</ele>
        <time>2017-03-29T13:55:01Z</time>
      </trkpt>
      <trkpt lat="43.42956" lon="6.1575">
        <ele>307.20001220703</ele>
        <time>2017-03-29T13:55:04Z</time>
      </trkpt>
      <trkpt lat="43.4297" lon="6.15764">
        <ele>306.79998779297</ele>
        <time>2017-03-29T13:55:11Z</time>
      </trkpt>
      <trkpt lat="43.42986" lon="6.15777">
        <ele>306.60000610352</ele>
        <time>2017-03-29T13:55:18Z</time>
      </trkpt>
      <trkpt lat="43.42988" lon="6.1578">
        <ele>306.39999389648</ele>
        <time>2017-03-29T13:55:19Z</time>
      </trkpt>
      <trkpt lat="43.42992" lon="6.15784">
        <ele>306.20001220703</ele>
        <time>2017-03-29T13:55:21Z</time>
      </trkpt>
      <trkpt lat="43.4301" lon="6.15807">
        <ele>307.20001220703</ele>
        <time>2017-03-29T13:55:30Z</time>
      </trkpt>
      <trkpt lat="43.4303" lon="6.15821">
        <ele>307.20001220703</ele>
        <time>2017-03-29T13:55:38Z</time>
      </trkpt>
      <trkpt lat="43.43034" lon="6.15826">
        <ele>307.60000610352</ele>
        <time>2017-03-29T13:55:40Z</time>
      </trkpt>
      <trkpt lat="43.43037" lon="6.15832">
        <ele>307.39999389648</ele>
        <time>2017-03-29T13:55:42Z</time>
      </trkpt>
      <trkpt lat="43.43052" lon="6.15843">
        <ele>307.20001220703</ele>
        <time>2017-03-29T13:55:48Z</time>
      </trkpt>
      <trkpt lat="43.43058" lon="6.1585">
        <ele>307</ele>
        <time>2017-03-29T13:55:51Z</time>
      </trkpt>
      <trkpt lat="43.43071" lon="6.15862">
        <ele>307.39999389648</ele>
        <time>2017-03-29T13:55:56Z</time>
      </trkpt>
      <trkpt lat="43.43082" lon="6.15871">
        <ele>307.39999389648</ele>
        <time>2017-03-29T13:56:01Z</time>
      </trkpt>
      <trkpt lat="43.43088" lon="6.15885">
        <ele>307.39999389648</ele>
        <time>2017-03-29T13:56:06Z</time>
      </trkpt>
      <trkpt lat="43.43091" lon="6.1589">
        <ele>307.60000610352</ele>
        <time>2017-03-29T13:56:08Z</time>
      </trkpt>
      <trkpt lat="43.43097" lon="6.15894">
        <ele>307.79998779297</ele>
        <time>2017-03-29T13:56:11Z</time>
      </trkpt>
      <trkpt lat="43.43116" lon="6.15929">
        <ele>308.39999389648</ele>
        <time>2017-03-29T13:56:21Z</time>
      </trkpt>
      <trkpt lat="43.43141" lon="6.15951">
        <ele>307.39999389648</ele>
        <time>2017-03-29T13:56:31Z</time>
      </trkpt>
      <trkpt lat="43.43143" lon="6.15953">
        <ele>307.60000610352</ele>
        <time>2017-03-29T13:56:32Z</time>
      </trkpt>
      <trkpt lat="43.43152" lon="6.15955">
        <ele>306.39999389648</ele>
        <time>2017-03-29T13:56:39Z</time>
      </trkpt>
      <trkpt lat="43.43155" lon="6.15957">
        <ele>306.20001220703</ele>
        <time>2017-03-29T13:56:41Z</time>
      </trkpt>
      <trkpt lat="43.43157" lon="6.15956">
        <ele>306</ele>
        <time>2017-03-29T13:56:42Z</time>
      </trkpt>
      <trkpt lat="43.43161" lon="6.15959">
        <ele>305.60000610352</ele>
        <time>2017-03-29T13:56:46Z</time>
      </trkpt>
      <trkpt lat="43.43164" lon="6.15959">
        <ele>305.39999389648</ele>
        <time>2017-03-29T13:56:48Z</time>
      </trkpt>
      <trkpt lat="43.43166" lon="6.15958">
        <ele>305.20001220703</ele>
        <time>2017-03-29T13:56:50Z</time>
      </trkpt>
      <trkpt lat="43.43167" lon="6.15957">
        <ele>305</ele>
        <time>2017-03-29T13:56:51Z</time>
      </trkpt>
      <trkpt lat="43.43169" lon="6.15959">
        <ele>304.60000610352</ele>
        <time>2017-03-29T13:56:56Z</time>
      </trkpt>
      <trkpt lat="43.4317" lon="6.15959">
        <ele>304.60000610352</ele>
        <time>2017-03-29T13:56:59Z</time>
      </trkpt>
      <trkpt lat="43.4317" lon="6.15959">
        <ele>304.39999389648</ele>
        <time>2017-03-29T13:57:01Z</time>
      </trkpt>
      <trkpt lat="43.43169" lon="6.1596">
        <ele>304.39999389648</ele>
        <time>2017-03-29T13:57:08Z</time>
      </trkpt>
      <trkpt lat="43.43169" lon="6.1596">
        <ele>304.39999389648</ele>
        <time>2017-03-29T13:57:11Z</time>
      </trkpt>
      <trkpt lat="43.43169" lon="6.1596">
        <ele>304.20001220703</ele>
        <time>2017-03-29T13:57:31Z</time>
      </trkpt>
      <trkpt lat="43.43169" lon="6.1596">
        <ele>304</ele>
        <time>2017-03-29T13:57:51Z</time>
      </trkpt>
      <trkpt lat="43.43169" lon="6.1596">
        <ele>303.79998779297</ele>
        <time>2017-03-29T13:58:01Z</time>
      </trkpt>
      <trkpt lat="43.43169" lon="6.1596">
        <ele>303.39999389648</ele>
        <time>2017-03-29T13:58:11Z</time>
      </trkpt>
      <trkpt lat="43.4317" lon="6.1596">
        <ele>303.39999389648</ele>
        <time>2017-03-29T13:58:13Z</time>
      </trkpt>
      <trkpt lat="43.4317" lon="6.1596">
        <ele>303</ele>
        <time>2017-03-29T13:58:21Z</time>
      </trkpt>
      <trkpt lat="43.4317" lon="6.1596">
        <ele>303</ele>
        <time>2017-03-29T13:58:28Z</time>
      </trkpt>
      <trkpt lat="43.43171" lon="6.1596">
        <ele>303.39999389648</ele>
        <time>2017-03-29T13:58:41Z</time>
      </trkpt>
      <trkpt lat="43.43171" lon="6.15959">
        <ele>303.39999389648</ele>
        <time>2017-03-29T13:58:51Z</time>
      </trkpt>
      <trkpt lat="43.43171" lon="6.1596">
        <ele>303.39999389648</ele>
        <time>2017-03-29T13:59:01Z</time>
      </trkpt>
      <trkpt lat="43.43171" lon="6.1596">
        <ele>303.39999389648</ele>
        <time>2017-03-29T13:59:11Z</time>
      </trkpt>
      <trkpt lat="43.4317" lon="6.1596">
        <ele>303.39999389648</ele>
        <time>2017-03-29T13:59:21Z</time>
      </trkpt>
      <trkpt lat="43.4317" lon="6.15959">
        <ele>303.39999389648</ele>
        <time>2017-03-29T13:59:31Z</time>
      </trkpt>
      <trkpt lat="43.43168" lon="6.15958">
        <ele>303.39999389648</ele>
        <time>2017-03-29T13:59:41Z</time>
      </trkpt>
      <trkpt lat="43.43168" lon="6.15959">
        <ele>303.39999389648</ele>
        <time>2017-03-29T13:59:47Z</time>
      </trkpt>
      <trkpt lat="43.43167" lon="6.1596">
        <ele>303.39999389648</ele>
        <time>2017-03-29T13:59:51Z</time>
      </trkpt>
      <trkpt lat="43.43167" lon="6.15961">
        <ele>303.39999389648</ele>
        <time>2017-03-29T13:59:55Z</time>
      </trkpt>
      <trkpt lat="43.43168" lon="6.15961">
        <ele>303.39999389648</ele>
        <time>2017-03-29T13:59:57Z</time>
      </trkpt>
      <trkpt lat="43.43168" lon="6.15961">
        <ele>303.39999389648</ele>
        <time>2017-03-29T14:00:01Z</time>
      </trkpt>
      <trkpt lat="43.43167" lon="6.15961">
        <ele>303.39999389648</ele>
        <time>2017-03-29T14:00:11Z</time>
      </trkpt>
      <trkpt lat="43.43167" lon="6.1596">
        <ele>303.39999389648</ele>
        <time>2017-03-29T14:00:31Z</time>
      </trkpt>
      <trkpt lat="43.43167" lon="6.1596">
        <ele>303.39999389648</ele>
        <time>2017-03-29T14:00:41Z</time>
      </trkpt>
      <trkpt lat="43.43165" lon="6.15959">
        <ele>303.39999389648</ele>
        <time>2017-03-29T14:00:48Z</time>
      </trkpt>
      <trkpt lat="43.43164" lon="6.15956">
        <ele>303.39999389648</ele>
        <time>2017-03-29T14:00:51Z</time>
      </trkpt>
      <trkpt lat="43.4316" lon="6.15956">
        <ele>303.39999389648</ele>
        <time>2017-03-29T14:00:57Z</time>
      </trkpt>
      <trkpt lat="43.43158" lon="6.15956">
        <ele>303.39999389648</ele>
        <time>2017-03-29T14:01:01Z</time>
      </trkpt>
      <trkpt lat="43.43157" lon="6.15956">
        <ele>303.39999389648</ele>
        <time>2017-03-29T14:01:11Z</time>
      </trkpt>
      <trkpt lat="43.43155" lon="6.15956">
        <ele>303.39999389648</ele>
        <time>2017-03-29T14:01:21Z</time>
      </trkpt>
      <trkpt lat="43.43155" lon="6.15956">
        <ele>303.39999389648</ele>
        <time>2017-03-29T14:01:31Z</time>
      </trkpt>
      <trkpt lat="43.43155" lon="6.15956">
        <ele>303.39999389648</ele>
        <time>2017-03-29T14:01:41Z</time>
      </trkpt>
      <trkpt lat="43.43155" lon="6.15956">
        <ele>303.39999389648</ele>
        <time>2017-03-29T14:01:51Z</time>
      </trkpt>
      <trkpt lat="43.43155" lon="6.15956">
        <ele>303.39999389648</ele>
        <time>2017-03-29T14:02:01Z</time>
      </trkpt>
      <trkpt lat="43.43155" lon="6.15956">
        <ele>303.39999389648</ele>
        <time>2017-03-29T14:02:08Z</time>
      </trkpt>
      <trkpt lat="43.43155" lon="6.15957">
        <ele>303.39999389648</ele>
        <time>2017-03-29T14:02:11Z</time>
      </trkpt>
      <trkpt lat="43.43156" lon="6.15957">
        <ele>303.39999389648</ele>
        <time>2017-03-29T14:02:18Z</time>
      </trkpt>
      <trkpt lat="43.43156" lon="6.15958">
        <ele>303.39999389648</ele>
        <time>2017-03-29T14:02:21Z</time>
      </trkpt>
      <trkpt lat="43.43155" lon="6.15958">
        <ele>303.39999389648</ele>
        <time>2017-03-29T14:02:30Z</time>
      </trkpt>
      <trkpt lat="43.43155" lon="6.15958">
        <ele>303.39999389648</ele>
        <time>2017-03-29T14:02:31Z</time>
      </trkpt>
      <trkpt lat="43.43154" lon="6.15958">
        <ele>303.39999389648</ele>
        <time>2017-03-29T14:02:41Z</time>
      </trkpt>
      <trkpt lat="43.43153" lon="6.15958">
        <ele>303.39999389648</ele>
        <time>2017-03-29T14:02:51Z</time>
      </trkpt>
      <trkpt lat="43.43151" lon="6.1596">
        <ele>303.39999389648</ele>
        <time>2017-03-29T14:03:01Z</time>
      </trkpt>
      <trkpt lat="43.43149" lon="6.1596">
        <ele>303.39999389648</ele>
        <time>2017-03-29T14:03:02Z</time>
      </trkpt>
      <trkpt lat="43.43144" lon="6.15959">
        <ele>303.20001220703</ele>
        <time>2017-03-29T14:03:06Z</time>
      </trkpt>
      <trkpt lat="43.4314" lon="6.15957">
        <ele>303.79998779297</ele>
        <time>2017-03-29T14:03:08Z</time>
      </trkpt>
      <trkpt lat="43.43136" lon="6.15955">
        <ele>304</ele>
        <time>2017-03-29T14:03:11Z</time>
      </trkpt>
      <trkpt lat="43.43133" lon="6.15953">
        <ele>304.39999389648</ele>
        <time>2017-03-29T14:03:13Z</time>
      </trkpt>
      <trkpt lat="43.43121" lon="6.15945">
        <ele>305</ele>
        <time>2017-03-29T14:03:21Z</time>
      </trkpt>
      <trkpt lat="43.43118" lon="6.15942">
        <ele>305.20001220703</ele>
        <time>2017-03-29T14:03:23Z</time>
      </trkpt>
      <trkpt lat="43.43111" lon="6.15926">
        <ele>304.79998779297</ele>
        <time>2017-03-29T14:03:29Z</time>
      </trkpt>
      <trkpt lat="43.4311" lon="6.1592">
        <ele>304.79998779297</ele>
        <time>2017-03-29T14:03:31Z</time>
      </trkpt>
      <trkpt lat="43.43096" lon="6.15907">
        <ele>305</ele>
        <time>2017-03-29T14:03:39Z</time>
      </trkpt>
      <trkpt lat="43.43092" lon="6.15887">
        <ele>304.79998779297</ele>
        <time>2017-03-29T14:03:45Z</time>
      </trkpt>
      <trkpt lat="43.43079" lon="6.15876">
        <ele>304.39999389648</ele>
        <time>2017-03-29T14:03:51Z</time>
      </trkpt>
      <trkpt lat="43.43055" lon="6.15855">
        <ele>304.60000610352</ele>
        <time>2017-03-29T14:04:01Z</time>
      </trkpt>
      <trkpt lat="43.43046" lon="6.15851">
        <ele>304.39999389648</ele>
        <time>2017-03-29T14:04:05Z</time>
      </trkpt>
      <trkpt lat="43.43041" lon="6.15839">
        <ele>304.20001220703</ele>
        <time>2017-03-29T14:04:08Z</time>
      </trkpt>
      <trkpt lat="43.43038" lon="6.15832">
        <ele>304</ele>
        <time>2017-03-29T14:04:10Z</time>
      </trkpt>
      <trkpt lat="43.43035" lon="6.15831">
        <ele>304</ele>
        <time>2017-03-29T14:04:11Z</time>
      </trkpt>
      <trkpt lat="43.43009" lon="6.15804">
        <ele>304.20001220703</ele>
        <time>2017-03-29T14:04:21Z</time>
      </trkpt>
      <trkpt lat="43.4299" lon="6.15781">
        <ele>304</ele>
        <time>2017-03-29T14:04:29Z</time>
      </trkpt>
      <trkpt lat="43.42985" lon="6.15778">
        <ele>304</ele>
        <time>2017-03-29T14:04:31Z</time>
      </trkpt>
      <trkpt lat="43.42977" lon="6.15768">
        <ele>304.20001220703</ele>
        <time>2017-03-29T14:04:35Z</time>
      </trkpt>
      <trkpt lat="43.42965" lon="6.15755">
        <ele>304.20001220703</ele>
        <time>2017-03-29T14:04:41Z</time>
      </trkpt>
      <trkpt lat="43.42965" lon="6.15752">
        <ele>304.20001220703</ele>
        <time>2017-03-29T14:04:42Z</time>
      </trkpt>
      <trkpt lat="43.42964" lon="6.15748">
        <ele>304</ele>
        <time>2017-03-29T14:04:44Z</time>
      </trkpt>
      <trkpt lat="43.42964" lon="6.15745">
        <ele>304</ele>
        <time>2017-03-29T14:04:51Z</time>
      </trkpt>
      <trkpt lat="43.42963" lon="6.15743">
        <ele>304</ele>
        <time>2017-03-29T14:05:01Z</time>
      </trkpt>
      <trkpt lat="43.42962" lon="6.15742">
        <ele>304.39999389648</ele>
        <time>2017-03-29T14:05:21Z</time>
      </trkpt>
      <trkpt lat="43.42962" lon="6.15743">
        <ele>304.39999389648</ele>
        <time>2017-03-29T14:05:31Z</time>
      </trkpt>
      <trkpt lat="43.42962" lon="6.15743">
        <ele>304.60000610352</ele>
        <time>2017-03-29T14:05:41Z</time>
      </trkpt>
      <trkpt lat="43.42963" lon="6.15742">
        <ele>304.20001220703</ele>
        <time>2017-03-29T14:05:58Z</time>
      </trkpt>
      <trkpt lat="43.42963" lon="6.15742">
        <ele>304.20001220703</ele>
        <time>2017-03-29T14:06:01Z</time>
      </trkpt>
      <trkpt lat="43.42963" lon="6.15741">
        <ele>304.20001220703</ele>
        <time>2017-03-29T14:06:21Z</time>
      </trkpt>
      <trkpt lat="43.42963" lon="6.15741">
        <ele>304.20001220703</ele>
        <time>2017-03-29T14:06:31Z</time>
      </trkpt>
      <trkpt lat="43.42963" lon="6.1574">
        <ele>304.20001220703</ele>
        <time>2017-03-29T14:06:41Z</time>
      </trkpt>
      <trkpt lat="43.42963" lon="6.15742">
        <ele>304.20001220703</ele>
        <time>2017-03-29T14:07:11Z</time>
      </trkpt>
      <trkpt lat="43.42963" lon="6.15742">
        <ele>304.20001220703</ele>
        <time>2017-03-29T14:07:17Z</time>
      </trkpt>
      <trkpt lat="43.42964" lon="6.15741">
        <ele>304.20001220703</ele>
        <time>2017-03-29T14:07:20Z</time>
      </trkpt>
      <trkpt lat="43.42966" lon="6.1574">
        <ele>304.20001220703</ele>
        <time>2017-03-29T14:07:21Z</time>
      </trkpt>
      <trkpt lat="43.4297" lon="6.15736">
        <ele>303.39999389648</ele>
        <time>2017-03-29T14:07:23Z</time>
      </trkpt>
      <trkpt lat="43.4299" lon="6.15718">
        <ele>303.60000610352</ele>
        <time>2017-03-29T14:07:29Z</time>
      </trkpt>
      <trkpt lat="43.42998" lon="6.15709">
        <ele>303.39999389648</ele>
        <time>2017-03-29T14:07:31Z</time>
      </trkpt>
      <trkpt lat="43.43005" lon="6.157">
        <ele>302.79998779297</ele>
        <time>2017-03-29T14:07:33Z</time>
      </trkpt>
      <trkpt lat="43.43007" lon="6.15694">
        <ele>302</ele>
        <time>2017-03-29T14:07:34Z</time>
      </trkpt>
      <trkpt lat="43.43009" lon="6.15688">
        <ele>301.20001220703</ele>
        <time>2017-03-29T14:07:35Z</time>
      </trkpt>
      <trkpt lat="43.4301" lon="6.15682">
        <ele>300.79998779297</ele>
        <time>2017-03-29T14:07:36Z</time>
      </trkpt>
      <trkpt lat="43.43015" lon="6.15664">
        <ele>300.39999389648</ele>
        <time>2017-03-29T14:07:40Z</time>
      </trkpt>
      <trkpt lat="43.43016" lon="6.15662">
        <ele>300.39999389648</ele>
        <time>2017-03-29T14:07:41Z</time>
      </trkpt>
      <trkpt lat="43.43021" lon="6.15659">
        <ele>299.60000610352</ele>
        <time>2017-03-29T14:07:44Z</time>
      </trkpt>
      <trkpt lat="43.43026" lon="6.15657">
        <ele>299.39999389648</ele>
        <time>2017-03-29T14:07:47Z</time>
      </trkpt>
      <trkpt lat="43.43027" lon="6.15657">
        <ele>299</ele>
        <time>2017-03-29T14:07:48Z</time>
      </trkpt>
      <trkpt lat="43.43029" lon="6.15657">
        <ele>298.79998779297</ele>
        <time>2017-03-29T14:07:49Z</time>
      </trkpt>
      <trkpt lat="43.43031" lon="6.15656">
        <ele>298.60000610352</ele>
        <time>2017-03-29T14:07:50Z</time>
      </trkpt>
      <trkpt lat="43.43032" lon="6.15654">
        <ele>298.20001220703</ele>
        <time>2017-03-29T14:07:51Z</time>
      </trkpt>
      <trkpt lat="43.43034" lon="6.15653">
        <ele>297.60000610352</ele>
        <time>2017-03-29T14:07:52Z</time>
      </trkpt>
      <trkpt lat="43.43035" lon="6.15652">
        <ele>296.20001220703</ele>
        <time>2017-03-29T14:07:54Z</time>
      </trkpt>
      <trkpt lat="43.43035" lon="6.15652">
        <ele>295.79998779297</ele>
        <time>2017-03-29T14:07:55Z</time>
      </trkpt>
      <trkpt lat="43.43036" lon="6.15652">
        <ele>295.20001220703</ele>
        <time>2017-03-29T14:08:01Z</time>
      </trkpt>
      <trkpt lat="43.43036" lon="6.15652">
        <ele>295.20001220703</ele>
        <time>2017-03-29T14:08:05Z</time>
      </trkpt>
      <trkpt lat="43.43036" lon="6.15652">
        <ele>295</ele>
        <time>2017-03-29T14:08:07Z</time>
      </trkpt>
      <trkpt lat="43.43036" lon="6.15652">
        <ele>295.20001220703</ele>
        <time>2017-03-29T14:08:10Z</time>
      </trkpt>
      <trkpt lat="43.43036" lon="6.15652">
        <ele>295.20001220703</ele>
        <time>2017-03-29T14:08:11Z</time>
      </trkpt>
      <trkpt lat="43.43045" lon="6.15646">
        <ele>294</ele>
        <time>2017-03-29T14:08:18Z</time>
      </trkpt>
      <trkpt lat="43.43054" lon="6.15643">
        <ele>293.39999389648</ele>
        <time>2017-03-29T14:08:21Z</time>
      </trkpt>
      <trkpt lat="43.43061" lon="6.1564">
        <ele>292.60000610352</ele>
        <time>2017-03-29T14:08:23Z</time>
      </trkpt>
      <trkpt lat="43.43063" lon="6.1564">
        <ele>291.79998779297</ele>
        <time>2017-03-29T14:08:24Z</time>
      </trkpt>
      <trkpt lat="43.43065" lon="6.15642">
        <ele>291.20001220703</ele>
        <time>2017-03-29T14:08:25Z</time>
      </trkpt>
      <trkpt lat="43.43068" lon="6.15648">
        <ele>290.60000610352</ele>
        <time>2017-03-29T14:08:27Z</time>
      </trkpt>
      <trkpt lat="43.43069" lon="6.15651">
        <ele>290.20001220703</ele>
        <time>2017-03-29T14:08:28Z</time>
      </trkpt>
      <trkpt lat="43.43071" lon="6.15654">
        <ele>289.79998779297</ele>
        <time>2017-03-29T14:08:29Z</time>
      </trkpt>
      <trkpt lat="43.43075" lon="6.15662">
        <ele>289</ele>
        <time>2017-03-29T14:08:31Z</time>
      </trkpt>
      <trkpt lat="43.43076" lon="6.15666">
        <ele>288.39999389648</ele>
        <time>2017-03-29T14:08:32Z</time>
      </trkpt>
      <trkpt lat="43.4308" lon="6.15675">
        <ele>287.20001220703</ele>
        <time>2017-03-29T14:08:34Z</time>
      </trkpt>
      <trkpt lat="43.43082" lon="6.15678">
        <ele>286.39999389648</ele>
        <time>2017-03-29T14:08:35Z</time>
      </trkpt>
      <trkpt lat="43.43085" lon="6.1568">
        <ele>286</ele>
        <time>2017-03-29T14:08:36Z</time>
      </trkpt>
      <trkpt lat="43.43105" lon="6.15698">
        <ele>283.60000610352</ele>
        <time>2017-03-29T14:08:44Z</time>
      </trkpt>
      <trkpt lat="43.43109" lon="6.15702">
        <ele>282.60000610352</ele>
        <time>2017-03-29T14:08:46Z</time>
      </trkpt>
      <trkpt lat="43.43112" lon="6.15705">
        <ele>281.20001220703</ele>
        <time>2017-03-29T14:08:48Z</time>
      </trkpt>
      <trkpt lat="43.43116" lon="6.15706">
        <ele>279.39999389648</ele>
        <time>2017-03-29T14:08:50Z</time>
      </trkpt>
      <trkpt lat="43.43118" lon="6.15707">
        <ele>279</ele>
        <time>2017-03-29T14:08:51Z</time>
      </trkpt>
      <trkpt lat="43.43125" lon="6.15706">
        <ele>278.39999389648</ele>
        <time>2017-03-29T14:08:53Z</time>
      </trkpt>
      <trkpt lat="43.43131" lon="6.15702">
        <ele>277</ele>
        <time>2017-03-29T14:08:55Z</time>
      </trkpt>
      <trkpt lat="43.43134" lon="6.15699">
        <ele>276.79998779297</ele>
        <time>2017-03-29T14:08:56Z</time>
      </trkpt>
      <trkpt lat="43.43135" lon="6.15698">
        <ele>276.60000610352</ele>
        <time>2017-03-29T14:08:57Z</time>
      </trkpt>
      <trkpt lat="43.43139" lon="6.15695">
        <ele>276</ele>
        <time>2017-03-29T14:08:59Z</time>
      </trkpt>
      <trkpt lat="43.43143" lon="6.15693">
        <ele>275.20001220703</ele>
        <time>2017-03-29T14:09:01Z</time>
      </trkpt>
      <trkpt lat="43.43153" lon="6.15691">
        <ele>273.39999389648</ele>
        <time>2017-03-29T14:09:04Z</time>
      </trkpt>
      <trkpt lat="43.43161" lon="6.1569">
        <ele>272</ele>
        <time>2017-03-29T14:09:06Z</time>
      </trkpt>
      <trkpt lat="43.43167" lon="6.15688">
        <ele>270.20001220703</ele>
        <time>2017-03-29T14:09:08Z</time>
      </trkpt>
      <trkpt lat="43.43174" lon="6.15684">
        <ele>268.39999389648</ele>
        <time>2017-03-29T14:09:10Z</time>
      </trkpt>
      <trkpt lat="43.43177" lon="6.15681">
        <ele>267.60000610352</ele>
        <time>2017-03-29T14:09:11Z</time>
      </trkpt>
      <trkpt lat="43.4318" lon="6.15679">
        <ele>266.79998779297</ele>
        <time>2017-03-29T14:09:12Z</time>
      </trkpt>
      <trkpt lat="43.43187" lon="6.15674">
        <ele>265.39999389648</ele>
        <time>2017-03-29T14:09:14Z</time>
      </trkpt>
      <trkpt lat="43.43191" lon="6.15671">
        <ele>264.79998779297</ele>
        <time>2017-03-29T14:09:15Z</time>
      </trkpt>
      <trkpt lat="43.43195" lon="6.15667">
        <ele>264</ele>
        <time>2017-03-29T14:09:16Z</time>
      </trkpt>
      <trkpt lat="43.43201" lon="6.1566">
        <ele>262.39999389648</ele>
        <time>2017-03-29T14:09:18Z</time>
      </trkpt>
      <trkpt lat="43.43207" lon="6.15653">
        <ele>261.20001220703</ele>
        <time>2017-03-29T14:09:21Z</time>
      </trkpt>
      <trkpt lat="43.43219" lon="6.1564">
        <ele>259.79998779297</ele>
        <time>2017-03-29T14:09:26Z</time>
      </trkpt>
      <trkpt lat="43.43226" lon="6.15632">
        <ele>258.79998779297</ele>
        <time>2017-03-29T14:09:29Z</time>
      </trkpt>
      <trkpt lat="43.43232" lon="6.15627">
        <ele>258.60000610352</ele>
        <time>2017-03-29T14:09:31Z</time>
      </trkpt>
      <trkpt lat="43.43237" lon="6.1562">
        <ele>257.20001220703</ele>
        <time>2017-03-29T14:09:33Z</time>
      </trkpt>
      <trkpt lat="43.43238" lon="6.15616">
        <ele>256</ele>
        <time>2017-03-29T14:09:34Z</time>
      </trkpt>
      <trkpt lat="43.43238" lon="6.15608">
        <ele>254.80000305176</ele>
        <time>2017-03-29T14:09:36Z</time>
      </trkpt>
      <trkpt lat="43.43237" lon="6.15597">
        <ele>253.60000610352</ele>
        <time>2017-03-29T14:09:39Z</time>
      </trkpt>
      <trkpt lat="43.43238" lon="6.15589">
        <ele>252.60000610352</ele>
        <time>2017-03-29T14:09:41Z</time>
      </trkpt>
      <trkpt lat="43.43237" lon="6.15573">
        <ele>249.60000610352</ele>
        <time>2017-03-29T14:09:45Z</time>
      </trkpt>
      <trkpt lat="43.43238" lon="6.15565">
        <ele>248.60000610352</ele>
        <time>2017-03-29T14:09:47Z</time>
      </trkpt>
      <trkpt lat="43.43238" lon="6.15558">
        <ele>247.19999694824</ele>
        <time>2017-03-29T14:09:49Z</time>
      </trkpt>
      <trkpt lat="43.43238" lon="6.15552">
        <ele>246</ele>
        <time>2017-03-29T14:09:51Z</time>
      </trkpt>
      <trkpt lat="43.43239" lon="6.15548">
        <ele>245</ele>
        <time>2017-03-29T14:09:53Z</time>
      </trkpt>
      <trkpt lat="43.43241" lon="6.15541">
        <ele>243.60000610352</ele>
        <time>2017-03-29T14:09:56Z</time>
      </trkpt>
      <trkpt lat="43.43242" lon="6.15538">
        <ele>243.39999389648</ele>
        <time>2017-03-29T14:09:57Z</time>
      </trkpt>
      <trkpt lat="43.43245" lon="6.15526">
        <ele>242.39999389648</ele>
        <time>2017-03-29T14:10:00Z</time>
      </trkpt>
      <trkpt lat="43.43246" lon="6.15522">
        <ele>242</ele>
        <time>2017-03-29T14:10:01Z</time>
      </trkpt>
      <trkpt lat="43.43246" lon="6.15518">
        <ele>241.19999694824</ele>
        <time>2017-03-29T14:10:02Z</time>
      </trkpt>
      <trkpt lat="43.43248" lon="6.1551">
        <ele>240</ele>
        <time>2017-03-29T14:10:04Z</time>
      </trkpt>
      <trkpt lat="43.43249" lon="6.15499">
        <ele>238.80000305176</ele>
        <time>2017-03-29T14:10:07Z</time>
      </trkpt>
      <trkpt lat="43.4325" lon="6.15493">
        <ele>237.39999389648</ele>
        <time>2017-03-29T14:10:09Z</time>
      </trkpt>
      <trkpt lat="43.4325" lon="6.15485">
        <ele>236</ele>
        <time>2017-03-29T14:10:11Z</time>
      </trkpt>
      <trkpt lat="43.4325" lon="6.15478">
        <ele>234.80000305176</ele>
        <time>2017-03-29T14:10:13Z</time>
      </trkpt>
      <trkpt lat="43.43248" lon="6.15469">
        <ele>233.60000610352</ele>
        <time>2017-03-29T14:10:16Z</time>
      </trkpt>
      <trkpt lat="43.43248" lon="6.15465">
        <ele>232</ele>
        <time>2017-03-29T14:10:18Z</time>
      </trkpt>
      <trkpt lat="43.43249" lon="6.15464">
        <ele>231</ele>
        <time>2017-03-29T14:10:21Z</time>
      </trkpt>
      <trkpt lat="43.43249" lon="6.15463">
        <ele>230.80000305176</ele>
        <time>2017-03-29T14:10:23Z</time>
      </trkpt>
      <trkpt lat="43.43252" lon="6.15462">
        <ele>230.60000610352</ele>
        <time>2017-03-29T14:10:31Z</time>
      </trkpt>
      <trkpt lat="43.43253" lon="6.15461">
        <ele>229.80000305176</ele>
        <time>2017-03-29T14:10:35Z</time>
      </trkpt>
      <trkpt lat="43.43252" lon="6.15461">
        <ele>229.19999694824</ele>
        <time>2017-03-29T14:10:41Z</time>
      </trkpt>
      <trkpt lat="43.43251" lon="6.15458">
        <ele>229.19999694824</ele>
        <time>2017-03-29T14:10:51Z</time>
      </trkpt>
      <trkpt lat="43.43251" lon="6.15457">
        <ele>229.60000610352</ele>
        <time>2017-03-29T14:10:59Z</time>
      </trkpt>
      <trkpt lat="43.43251" lon="6.15456">
        <ele>229.60000610352</ele>
        <time>2017-03-29T14:11:01Z</time>
      </trkpt>
      <trkpt lat="43.43252" lon="6.15452">
        <ele>229.39999389648</ele>
        <time>2017-03-29T14:11:03Z</time>
      </trkpt>
      <trkpt lat="43.43253" lon="6.15446">
        <ele>229</ele>
        <time>2017-03-29T14:11:05Z</time>
      </trkpt>
      <trkpt lat="43.43254" lon="6.15442">
        <ele>228.60000610352</ele>
        <time>2017-03-29T14:11:06Z</time>
      </trkpt>
      <trkpt lat="43.43254" lon="6.15435">
        <ele>227.39999389648</ele>
        <time>2017-03-29T14:11:09Z</time>
      </trkpt>
      <trkpt lat="43.43257" lon="6.15436">
        <ele>226.19999694824</ele>
        <time>2017-03-29T14:11:11Z</time>
      </trkpt>
      <trkpt lat="43.4327" lon="6.15444">
        <ele>223.60000610352</ele>
        <time>2017-03-29T14:11:18Z</time>
      </trkpt>
      <trkpt lat="43.43274" lon="6.15439">
        <ele>222.60000610352</ele>
        <time>2017-03-29T14:11:20Z</time>
      </trkpt>
      <trkpt lat="43.43274" lon="6.15436">
        <ele>222</ele>
        <time>2017-03-29T14:11:21Z</time>
      </trkpt>
      <trkpt lat="43.43275" lon="6.15431">
        <ele>221</ele>
        <time>2017-03-29T14:11:23Z</time>
      </trkpt>
      <trkpt lat="43.43276" lon="6.15422">
        <ele>219.80000305176</ele>
        <time>2017-03-29T14:11:25Z</time>
      </trkpt>
      <trkpt lat="43.43274" lon="6.15413">
        <ele>218.60000610352</ele>
        <time>2017-03-29T14:11:27Z</time>
      </trkpt>
      <trkpt lat="43.43273" lon="6.15404">
        <ele>217.80000305176</ele>
        <time>2017-03-29T14:11:30Z</time>
      </trkpt>
      <trkpt lat="43.43274" lon="6.154">
        <ele>217.60000610352</ele>
        <time>2017-03-29T14:11:31Z</time>
      </trkpt>
      <trkpt lat="43.43277" lon="6.1539">
        <ele>216.60000610352</ele>
        <time>2017-03-29T14:11:34Z</time>
      </trkpt>
      <trkpt lat="43.43282" lon="6.15379">
        <ele>214</ele>
        <time>2017-03-29T14:11:38Z</time>
      </trkpt>
      <trkpt lat="43.43283" lon="6.15372">
        <ele>212.80000305176</ele>
        <time>2017-03-29T14:11:40Z</time>
      </trkpt>
      <trkpt lat="43.43284" lon="6.15365">
        <ele>211.80000305176</ele>
        <time>2017-03-29T14:11:42Z</time>
      </trkpt>
      <trkpt lat="43.43285" lon="6.15356">
        <ele>210</ele>
        <time>2017-03-29T14:11:44Z</time>
      </trkpt>
      <trkpt lat="43.43284" lon="6.15348">
        <ele>209</ele>
        <time>2017-03-29T14:11:46Z</time>
      </trkpt>
      <trkpt lat="43.43283" lon="6.15339">
        <ele>208.39999389648</ele>
        <time>2017-03-29T14:11:48Z</time>
      </trkpt>
      <trkpt lat="43.43282" lon="6.15325">
        <ele>207.80000305176</ele>
        <time>2017-03-29T14:11:51Z</time>
      </trkpt>
      <trkpt lat="43.43282" lon="6.15317">
        <ele>206.80000305176</ele>
        <time>2017-03-29T14:11:53Z</time>
      </trkpt>
      <trkpt lat="43.43281" lon="6.15302">
        <ele>205.39999389648</ele>
        <time>2017-03-29T14:11:57Z</time>
      </trkpt>
      <trkpt lat="43.43282" lon="6.15299">
        <ele>204.80000305176</ele>
        <time>2017-03-29T14:11:58Z</time>
      </trkpt>
      <trkpt lat="43.43283" lon="6.15298">
        <ele>204</ele>
        <time>2017-03-29T14:11:59Z</time>
      </trkpt>
      <trkpt lat="43.43287" lon="6.153">
        <ele>202.39999389648</ele>
        <time>2017-03-29T14:12:01Z</time>
      </trkpt>
      <trkpt lat="43.43288" lon="6.15301">
        <ele>201.80000305176</ele>
        <time>2017-03-29T14:12:02Z</time>
      </trkpt>
      <trkpt lat="43.4329" lon="6.15302">
        <ele>201.39999389648</ele>
        <time>2017-03-29T14:12:03Z</time>
      </trkpt>
      <trkpt lat="43.43293" lon="6.15305">
        <ele>201</ele>
        <time>2017-03-29T14:12:05Z</time>
      </trkpt>
      <trkpt lat="43.43298" lon="6.15314">
        <ele>200.39999389648</ele>
        <time>2017-03-29T14:12:08Z</time>
      </trkpt>
      <trkpt lat="43.43302" lon="6.15322">
        <ele>198.80000305176</ele>
        <time>2017-03-29T14:12:11Z</time>
      </trkpt>
      <trkpt lat="43.43314" lon="6.15315">
        <ele>197.39999389648</ele>
        <time>2017-03-29T14:12:16Z</time>
      </trkpt>
      <trkpt lat="43.43322" lon="6.15315">
        <ele>196.19999694824</ele>
        <time>2017-03-29T14:12:19Z</time>
      </trkpt>
      <trkpt lat="43.43327" lon="6.15312">
        <ele>195.19999694824</ele>
        <time>2017-03-29T14:12:21Z</time>
      </trkpt>
      <trkpt lat="43.4333" lon="6.1531">
        <ele>194.80000305176</ele>
        <time>2017-03-29T14:12:22Z</time>
      </trkpt>
      <trkpt lat="43.43338" lon="6.15306">
        <ele>193.80000305176</ele>
        <time>2017-03-29T14:12:26Z</time>
      </trkpt>
      <trkpt lat="43.43345" lon="6.15307">
        <ele>193.19999694824</ele>
        <time>2017-03-29T14:12:29Z</time>
      </trkpt>
      <trkpt lat="43.43348" lon="6.15308">
        <ele>193</ele>
        <time>2017-03-29T14:12:30Z</time>
      </trkpt>
      <trkpt lat="43.43356" lon="6.1531">
        <ele>191.39999389648</ele>
        <time>2017-03-29T14:12:33Z</time>
      </trkpt>
      <trkpt lat="43.43377" lon="6.15325">
        <ele>189.80000305176</ele>
        <time>2017-03-29T14:12:41Z</time>
      </trkpt>
      <trkpt lat="43.43383" lon="6.15325">
        <ele>189</ele>
        <time>2017-03-29T14:12:43Z</time>
      </trkpt>
      <trkpt lat="43.43384" lon="6.15323">
        <ele>188.60000610352</ele>
        <time>2017-03-29T14:12:44Z</time>
      </trkpt>
      <trkpt lat="43.43384" lon="6.1532">
        <ele>187.80000305176</ele>
        <time>2017-03-29T14:12:46Z</time>
      </trkpt>
      <trkpt lat="43.43383" lon="6.1532">
        <ele>187.60000610352</ele>
        <time>2017-03-29T14:12:48Z</time>
      </trkpt>
      <trkpt lat="43.43383" lon="6.15319">
        <ele>187.39999389648</ele>
        <time>2017-03-29T14:12:51Z</time>
      </trkpt>
      <trkpt lat="43.43383" lon="6.15317">
        <ele>187.19999694824</ele>
        <time>2017-03-29T14:12:52Z</time>
      </trkpt>
      <trkpt lat="43.43383" lon="6.15311">
        <ele>187.19999694824</ele>
        <time>2017-03-29T14:12:54Z</time>
      </trkpt>
      <trkpt lat="43.43381" lon="6.15287">
        <ele>186.80000305176</ele>
        <time>2017-03-29T14:13:01Z</time>
      </trkpt>
      <trkpt lat="43.43379" lon="6.15274">
        <ele>186.80000305176</ele>
        <time>2017-03-29T14:13:04Z</time>
      </trkpt>
      <trkpt lat="43.43378" lon="6.15261">
        <ele>187</ele>
        <time>2017-03-29T14:13:07Z</time>
      </trkpt>
      <trkpt lat="43.43376" lon="6.15245">
        <ele>187.60000610352</ele>
        <time>2017-03-29T14:13:11Z</time>
      </trkpt>
      <trkpt lat="43.43374" lon="6.15234">
        <ele>188.19999694824</ele>
        <time>2017-03-29T14:13:14Z</time>
      </trkpt>
      <trkpt lat="43.43373" lon="6.15227">
        <ele>188.39999389648</ele>
        <time>2017-03-29T14:13:16Z</time>
      </trkpt>
      <trkpt lat="43.43372" lon="6.15221">
        <ele>188.80000305176</ele>
        <time>2017-03-29T14:13:18Z</time>
      </trkpt>
      <trkpt lat="43.4337" lon="6.1521">
        <ele>189.60000610352</ele>
        <time>2017-03-29T14:13:21Z</time>
      </trkpt>
      <trkpt lat="43.43363" lon="6.15177">
        <ele>189.39999389648</ele>
        <time>2017-03-29T14:13:28Z</time>
      </trkpt>
      <trkpt lat="43.43359" lon="6.15161">
        <ele>188.80000305176</ele>
        <time>2017-03-29T14:13:31Z</time>
      </trkpt>
      <trkpt lat="43.43352" lon="6.15136">
        <ele>187.60000610352</ele>
        <time>2017-03-29T14:13:35Z</time>
      </trkpt>
      <trkpt lat="43.43343" lon="6.15107">
        <ele>186.80000305176</ele>
        <time>2017-03-29T14:13:40Z</time>
      </trkpt>
      <trkpt lat="43.43343" lon="6.15101">
        <ele>186.80000305176</ele>
        <time>2017-03-29T14:13:41Z</time>
      </trkpt>
      <trkpt lat="43.43341" lon="6.1509">
        <ele>186.80000305176</ele>
        <time>2017-03-29T14:13:43Z</time>
      </trkpt>
      <trkpt lat="43.4334" lon="6.15084">
        <ele>186.80000305176</ele>
        <time>2017-03-29T14:13:44Z</time>
      </trkpt>
      <trkpt lat="43.43337" lon="6.15078">
        <ele>186.80000305176</ele>
        <time>2017-03-29T14:13:45Z</time>
      </trkpt>
      <trkpt lat="43.43331" lon="6.15068">
        <ele>186.60000610352</ele>
        <time>2017-03-29T14:13:47Z</time>
      </trkpt>
      <trkpt lat="43.43328" lon="6.15056">
        <ele>186.60000610352</ele>
        <time>2017-03-29T14:13:49Z</time>
      </trkpt>
      <trkpt lat="43.43327" lon="6.15044">
        <ele>186.60000610352</ele>
        <time>2017-03-29T14:13:51Z</time>
      </trkpt>
      <trkpt lat="43.43317" lon="6.15023">
        <ele>187.39999389648</ele>
        <time>2017-03-29T14:13:56Z</time>
      </trkpt>
      <trkpt lat="43.43312" lon="6.15021">
        <ele>187.39999389648</ele>
        <time>2017-03-29T14:13:57Z</time>
      </trkpt>
      <trkpt lat="43.43309" lon="6.15018">
        <ele>187.39999389648</ele>
        <time>2017-03-29T14:13:58Z</time>
      </trkpt>
      <trkpt lat="43.43304" lon="6.15003">
        <ele>186.19999694824</ele>
        <time>2017-03-29T14:14:00Z</time>
      </trkpt>
      <trkpt lat="43.433" lon="6.14983">
        <ele>184.39999389648</ele>
        <time>2017-03-29T14:14:02Z</time>
      </trkpt>
      <trkpt lat="43.43298" lon="6.14974">
        <ele>183.60000610352</ele>
        <time>2017-03-29T14:14:03Z</time>
      </trkpt>
      <trkpt lat="43.43296" lon="6.14964">
        <ele>183</ele>
        <time>2017-03-29T14:14:04Z</time>
      </trkpt>
      <trkpt lat="43.43295" lon="6.14954">
        <ele>182.19999694824</ele>
        <time>2017-03-29T14:14:05Z</time>
      </trkpt>
      <trkpt lat="43.43292" lon="6.14938">
        <ele>182</ele>
        <time>2017-03-29T14:14:07Z</time>
      </trkpt>
      <trkpt lat="43.43283" lon="6.14913">
        <ele>181.60000610352</ele>
        <time>2017-03-29T14:14:11Z</time>
      </trkpt>
      <trkpt lat="43.43279" lon="6.14899">
        <ele>181.39999389648</ele>
        <time>2017-03-29T14:14:13Z</time>
      </trkpt>
      <trkpt lat="43.43275" lon="6.14887">
        <ele>181.19999694824</ele>
        <time>2017-03-29T14:14:15Z</time>
      </trkpt>
      <trkpt lat="43.43265" lon="6.14864">
        <ele>180.80000305176</ele>
        <time>2017-03-29T14:14:19Z</time>
      </trkpt>
      <trkpt lat="43.43251" lon="6.1483">
        <ele>180.39999389648</ele>
        <time>2017-03-29T14:14:25Z</time>
      </trkpt>
      <trkpt lat="43.43248" lon="6.14818">
        <ele>180</ele>
        <time>2017-03-29T14:14:27Z</time>
      </trkpt>
      <trkpt lat="43.43243" lon="6.14798">
        <ele>180.19999694824</ele>
        <time>2017-03-29T14:14:31Z</time>
      </trkpt>
      <trkpt lat="43.43245" lon="6.14782">
        <ele>181</ele>
        <time>2017-03-29T14:14:34Z</time>
      </trkpt>
      <trkpt lat="43.43247" lon="6.14761">
        <ele>180.60000610352</ele>
        <time>2017-03-29T14:14:37Z</time>
      </trkpt>
      <trkpt lat="43.43246" lon="6.14747">
        <ele>180.19999694824</ele>
        <time>2017-03-29T14:14:39Z</time>
      </trkpt>
      <trkpt lat="43.43245" lon="6.14741">
        <ele>180</ele>
        <time>2017-03-29T14:14:40Z</time>
      </trkpt>
      <trkpt lat="43.43243" lon="6.14737">
        <ele>180</ele>
        <time>2017-03-29T14:14:41Z</time>
      </trkpt>
      <trkpt lat="43.4324" lon="6.1473">
        <ele>180</ele>
        <time>2017-03-29T14:14:43Z</time>
      </trkpt>
      <trkpt lat="43.43235" lon="6.14716">
        <ele>181.39999389648</ele>
        <time>2017-03-29T14:14:48Z</time>
      </trkpt>
      <trkpt lat="43.43233" lon="6.14711">
        <ele>182</ele>
        <time>2017-03-29T14:14:50Z</time>
      </trkpt>
      <trkpt lat="43.43233" lon="6.14709">
        <ele>182</ele>
        <time>2017-03-29T14:14:51Z</time>
      </trkpt>
      <trkpt lat="43.43231" lon="6.14691">
        <ele>182.39999389648</ele>
        <time>2017-03-29T14:14:56Z</time>
      </trkpt>
      <trkpt lat="43.43229" lon="6.14671">
        <ele>182.39999389648</ele>
        <time>2017-03-29T14:15:01Z</time>
      </trkpt>
      <trkpt lat="43.43227" lon="6.14658">
        <ele>182.19999694824</ele>
        <time>2017-03-29T14:15:04Z</time>
      </trkpt>
      <trkpt lat="43.43225" lon="6.14649">
        <ele>182.19999694824</ele>
        <time>2017-03-29T14:15:06Z</time>
      </trkpt>
      <trkpt lat="43.43224" lon="6.14645">
        <ele>182.19999694824</ele>
        <time>2017-03-29T14:15:07Z</time>
      </trkpt>
      <trkpt lat="43.43219" lon="6.14636">
        <ele>182.19999694824</ele>
        <time>2017-03-29T14:15:10Z</time>
      </trkpt>
      <trkpt lat="43.43211" lon="6.14619">
        <ele>183.80000305176</ele>
        <time>2017-03-29T14:15:17Z</time>
      </trkpt>
      <trkpt lat="43.43206" lon="6.14611">
        <ele>184.60000610352</ele>
        <time>2017-03-29T14:15:21Z</time>
      </trkpt>
      <trkpt lat="43.43203" lon="6.14606">
        <ele>184.80000305176</ele>
        <time>2017-03-29T14:15:23Z</time>
      </trkpt>
      <trkpt lat="43.43198" lon="6.1459">
        <ele>186</ele>
        <time>2017-03-29T14:15:30Z</time>
      </trkpt>
      <trkpt lat="43.43197" lon="6.14588">
        <ele>186</ele>
        <time>2017-03-29T14:15:31Z</time>
      </trkpt>
      <trkpt lat="43.43193" lon="6.14579">
        <ele>186.19999694824</ele>
        <time>2017-03-29T14:15:36Z</time>
      </trkpt>
      <trkpt lat="43.43189" lon="6.1457">
        <ele>186.39999389648</ele>
        <time>2017-03-29T14:15:40Z</time>
      </trkpt>
      <trkpt lat="43.43187" lon="6.14567">
        <ele>186.39999389648</ele>
        <time>2017-03-29T14:15:41Z</time>
      </trkpt>
      <trkpt lat="43.43185" lon="6.14559">
        <ele>186.39999389648</ele>
        <time>2017-03-29T14:15:43Z</time>
      </trkpt>
      <trkpt lat="43.43174" lon="6.14529">
        <ele>185.60000610352</ele>
        <time>2017-03-29T14:15:50Z</time>
      </trkpt>
      <trkpt lat="43.43174" lon="6.14516">
        <ele>185.39999389648</ele>
        <time>2017-03-29T14:15:52Z</time>
      </trkpt>
      <trkpt lat="43.43172" lon="6.14509">
        <ele>184.80000305176</ele>
        <time>2017-03-29T14:15:53Z</time>
      </trkpt>
      <trkpt lat="43.4317" lon="6.14501">
        <ele>184</ele>
        <time>2017-03-29T14:15:54Z</time>
      </trkpt>
      <trkpt lat="43.43167" lon="6.14495">
        <ele>183.60000610352</ele>
        <time>2017-03-29T14:15:55Z</time>
      </trkpt>
      <trkpt lat="43.43164" lon="6.14489">
        <ele>183.19999694824</ele>
        <time>2017-03-29T14:15:56Z</time>
      </trkpt>
      <trkpt lat="43.43155" lon="6.14481">
        <ele>182.60000610352</ele>
        <time>2017-03-29T14:15:58Z</time>
      </trkpt>
      <trkpt lat="43.4315" lon="6.14478">
        <ele>182.19999694824</ele>
        <time>2017-03-29T14:15:59Z</time>
      </trkpt>
      <trkpt lat="43.43142" lon="6.1447">
        <ele>181.80000305176</ele>
        <time>2017-03-29T14:16:01Z</time>
      </trkpt>
      <trkpt lat="43.43138" lon="6.14466">
        <ele>181.60000610352</ele>
        <time>2017-03-29T14:16:02Z</time>
      </trkpt>
      <trkpt lat="43.43133" lon="6.14454">
        <ele>181.19999694824</ele>
        <time>2017-03-29T14:16:04Z</time>
      </trkpt>
      <trkpt lat="43.43119" lon="6.14418">
        <ele>181</ele>
        <time>2017-03-29T14:16:11Z</time>
      </trkpt>
      <trkpt lat="43.43117" lon="6.14403">
        <ele>181.39999389648</ele>
        <time>2017-03-29T14:16:14Z</time>
      </trkpt>
      <trkpt lat="43.43115" lon="6.14394">
        <ele>181.39999389648</ele>
        <time>2017-03-29T14:16:16Z</time>
      </trkpt>
      <trkpt lat="43.4311" lon="6.14367">
        <ele>181</ele>
        <time>2017-03-29T14:16:21Z</time>
      </trkpt>
      <trkpt lat="43.43109" lon="6.14348">
        <ele>181.19999694824</ele>
        <time>2017-03-29T14:16:24Z</time>
      </trkpt>
      <trkpt lat="43.43111" lon="6.14333">
        <ele>181.19999694824</ele>
        <time>2017-03-29T14:16:26Z</time>
      </trkpt>
      <trkpt lat="43.43119" lon="6.143">
        <ele>181</ele>
        <time>2017-03-29T14:16:31Z</time>
      </trkpt>
      <trkpt lat="43.43126" lon="6.14277">
        <ele>181</ele>
        <time>2017-03-29T14:16:35Z</time>
      </trkpt>
      <trkpt lat="43.4313" lon="6.1425">
        <ele>181.19999694824</ele>
        <time>2017-03-29T14:16:40Z</time>
      </trkpt>
      <trkpt lat="43.43131" lon="6.14246">
        <ele>181.19999694824</ele>
        <time>2017-03-29T14:16:41Z</time>
      </trkpt>
      <trkpt lat="43.4313" lon="6.14235">
        <ele>181.60000610352</ele>
        <time>2017-03-29T14:16:48Z</time>
      </trkpt>
      <trkpt lat="43.4313" lon="6.14235">
        <ele>181.60000610352</ele>
        <time>2017-03-29T14:16:51Z</time>
      </trkpt>
      <trkpt lat="43.4313" lon="6.14235">
        <ele>181.60000610352</ele>
        <time>2017-03-29T14:17:01Z</time>
      </trkpt>
      <trkpt lat="43.4313" lon="6.14234">
        <ele>181.60000610352</ele>
        <time>2017-03-29T14:17:11Z</time>
      </trkpt>
      <trkpt lat="43.4313" lon="6.14234">
        <ele>181.19999694824</ele>
        <time>2017-03-29T14:17:31Z</time>
      </trkpt>
      <trkpt lat="43.4313" lon="6.14234">
        <ele>181.19999694824</ele>
        <time>2017-03-29T14:17:35Z</time>
      </trkpt>
      <trkpt lat="43.43133" lon="6.14231">
        <ele>181</ele>
        <time>2017-03-29T14:17:39Z</time>
      </trkpt>
      <trkpt lat="43.43133" lon="6.14232">
        <ele>181</ele>
        <time>2017-03-29T14:17:40Z</time>
      </trkpt>
      <trkpt lat="43.43134" lon="6.14233">
        <ele>181</ele>
        <time>2017-03-29T14:17:41Z</time>
      </trkpt>
      <trkpt lat="43.43141" lon="6.14236">
        <ele>181.39999389648</ele>
        <time>2017-03-29T14:17:45Z</time>
      </trkpt>
      <trkpt lat="43.43149" lon="6.14241">
        <ele>181.80000305176</ele>
        <time>2017-03-29T14:17:51Z</time>
      </trkpt>
      <trkpt lat="43.43156" lon="6.14243">
        <ele>182.19999694824</ele>
        <time>2017-03-29T14:17:56Z</time>
      </trkpt>
      <trkpt lat="43.43162" lon="6.14245">
        <ele>182.19999694824</ele>
        <time>2017-03-29T14:17:59Z</time>
      </trkpt>
      <trkpt lat="43.43166" lon="6.14247">
        <ele>182.19999694824</ele>
        <time>2017-03-29T14:18:01Z</time>
      </trkpt>
      <trkpt lat="43.43169" lon="6.14249">
        <ele>182.19999694824</ele>
        <time>2017-03-29T14:18:02Z</time>
      </trkpt>
      <trkpt lat="43.43171" lon="6.1425">
        <ele>182</ele>
        <time>2017-03-29T14:18:03Z</time>
      </trkpt>
      <trkpt lat="43.43179" lon="6.1425">
        <ele>181.60000610352</ele>
        <time>2017-03-29T14:18:05Z</time>
      </trkpt>
      <trkpt lat="43.43186" lon="6.14244">
        <ele>181</ele>
        <time>2017-03-29T14:18:07Z</time>
      </trkpt>
      <trkpt lat="43.43193" lon="6.14225">
        <ele>180.80000305176</ele>
        <time>2017-03-29T14:18:11Z</time>
      </trkpt>
      <trkpt lat="43.43216" lon="6.1422">
        <ele>182</ele>
        <time>2017-03-29T14:18:21Z</time>
      </trkpt>
      <trkpt lat="43.43218" lon="6.1422">
        <ele>182</ele>
        <time>2017-03-29T14:18:22Z</time>
      </trkpt>
      <trkpt lat="43.43224" lon="6.14223">
        <ele>182.80000305176</ele>
        <time>2017-03-29T14:18:31Z</time>
      </trkpt>
      <trkpt lat="43.43225" lon="6.14223">
        <ele>182.80000305176</ele>
        <time>2017-03-29T14:18:34Z</time>
      </trkpt>
      <trkpt lat="43.43225" lon="6.14223">
        <ele>182.80000305176</ele>
        <time>2017-03-29T14:18:41Z</time>
      </trkpt>
      <trkpt lat="43.43225" lon="6.14222">
        <ele>182.80000305176</ele>
        <time>2017-03-29T14:18:42Z</time>
      </trkpt>
      <trkpt lat="43.43229" lon="6.14218">
        <ele>182.60000610352</ele>
        <time>2017-03-29T14:18:45Z</time>
      </trkpt>
      <trkpt lat="43.4324" lon="6.14198">
        <ele>182.39999389648</ele>
        <time>2017-03-29T14:18:51Z</time>
      </trkpt>
      <trkpt lat="43.43258" lon="6.14152">
        <ele>182.39999389648</ele>
        <time>2017-03-29T14:19:01Z</time>
      </trkpt>
      <trkpt lat="43.43274" lon="6.14099">
        <ele>182.39999389648</ele>
        <time>2017-03-29T14:19:11Z</time>
      </trkpt>
      <trkpt lat="43.43279" lon="6.14039">
        <ele>182.60000610352</ele>
        <time>2017-03-29T14:19:21Z</time>
      </trkpt>
      <trkpt lat="43.43273" lon="6.13979">
        <ele>182.80000305176</ele>
        <time>2017-03-29T14:19:31Z</time>
      </trkpt>
      <trkpt lat="43.43272" lon="6.13973">
        <ele>183</ele>
        <time>2017-03-29T14:19:32Z</time>
      </trkpt>
      <trkpt lat="43.43266" lon="6.13952">
        <ele>183.19999694824</ele>
        <time>2017-03-29T14:19:36Z</time>
      </trkpt>
      <trkpt lat="43.4326" lon="6.13937">
        <ele>183.19999694824</ele>
        <time>2017-03-29T14:19:39Z</time>
      </trkpt>
      <trkpt lat="43.43254" lon="6.13925">
        <ele>183</ele>
        <time>2017-03-29T14:19:42Z</time>
      </trkpt>
      <trkpt lat="43.4325" lon="6.13917">
        <ele>183</ele>
        <time>2017-03-29T14:19:44Z</time>
      </trkpt>
      <trkpt lat="43.43235" lon="6.1389">
        <ele>183.39999389648</ele>
        <time>2017-03-29T14:19:51Z</time>
      </trkpt>
      <trkpt lat="43.4323" lon="6.13882">
        <ele>183.39999389648</ele>
        <time>2017-03-29T14:19:53Z</time>
      </trkpt>
      <trkpt lat="43.43215" lon="6.13855">
        <ele>183.19999694824</ele>
        <time>2017-03-29T14:19:59Z</time>
      </trkpt>
      <trkpt lat="43.43209" lon="6.13846">
        <ele>183.19999694824</ele>
        <time>2017-03-29T14:20:01Z</time>
      </trkpt>
      <trkpt lat="43.43185" lon="6.13801">
        <ele>183.60000610352</ele>
        <time>2017-03-29T14:20:11Z</time>
      </trkpt>
      <trkpt lat="43.43161" lon="6.13759">
        <ele>183.60000610352</ele>
        <time>2017-03-29T14:20:21Z</time>
      </trkpt>
      <trkpt lat="43.43146" lon="6.13732">
        <ele>183.80000305176</ele>
        <time>2017-03-29T14:20:28Z</time>
      </trkpt>
      <trkpt lat="43.4314" lon="6.1372">
        <ele>183.80000305176</ele>
        <time>2017-03-29T14:20:31Z</time>
      </trkpt>
      <trkpt lat="43.4312" lon="6.13683">
        <ele>184</ele>
        <time>2017-03-29T14:20:41Z</time>
      </trkpt>
      <trkpt lat="43.43106" lon="6.13652">
        <ele>184.19999694824</ele>
        <time>2017-03-29T14:20:49Z</time>
      </trkpt>
      <trkpt lat="43.43096" lon="6.13623">
        <ele>184.19999694824</ele>
        <time>2017-03-29T14:20:56Z</time>
      </trkpt>
      <trkpt lat="43.43089" lon="6.13601">
        <ele>184.39999389648</ele>
        <time>2017-03-29T14:21:01Z</time>
      </trkpt>
      <trkpt lat="43.43079" lon="6.13555">
        <ele>184.60000610352</ele>
        <time>2017-03-29T14:21:11Z</time>
      </trkpt>
      <trkpt lat="43.43076" lon="6.13516">
        <ele>184.60000610352</ele>
        <time>2017-03-29T14:21:19Z</time>
      </trkpt>
      <trkpt lat="43.43078" lon="6.13507">
        <ele>184.60000610352</ele>
        <time>2017-03-29T14:21:21Z</time>
      </trkpt>
      <trkpt lat="43.4308" lon="6.13497">
        <ele>184.60000610352</ele>
        <time>2017-03-29T14:21:23Z</time>
      </trkpt>
      <trkpt lat="43.43094" lon="6.13456">
        <ele>184.39999389648</ele>
        <time>2017-03-29T14:21:31Z</time>
      </trkpt>
      <trkpt lat="43.43105" lon="6.13427">
        <ele>185</ele>
        <time>2017-03-29T14:21:37Z</time>
      </trkpt>
      <trkpt lat="43.4311" lon="6.13408">
        <ele>185.19999694824</ele>
        <time>2017-03-29T14:21:41Z</time>
      </trkpt>
      <trkpt lat="43.43121" lon="6.13367">
        <ele>185</ele>
        <time>2017-03-29T14:21:49Z</time>
      </trkpt>
      <trkpt lat="43.43122" lon="6.13356">
        <ele>185</ele>
        <time>2017-03-29T14:21:51Z</time>
      </trkpt>
      <trkpt lat="43.43127" lon="6.13328">
        <ele>184.80000305176</ele>
        <time>2017-03-29T14:21:56Z</time>
      </trkpt>
      <trkpt lat="43.4313" lon="6.13299">
        <ele>184.60000610352</ele>
        <time>2017-03-29T14:22:01Z</time>
      </trkpt>
      <trkpt lat="43.4313" lon="6.13259">
        <ele>184.39999389648</ele>
        <time>2017-03-29T14:22:08Z</time>
      </trkpt>
      <trkpt lat="43.43124" lon="6.13215">
        <ele>184.39999389648</ele>
        <time>2017-03-29T14:22:16Z</time>
      </trkpt>
      <trkpt lat="43.43117" lon="6.13188">
        <ele>184</ele>
        <time>2017-03-29T14:22:21Z</time>
      </trkpt>
      <trkpt lat="43.43108" lon="6.13154">
        <ele>184.19999694824</ele>
        <time>2017-03-29T14:22:28Z</time>
      </trkpt>
      <trkpt lat="43.43105" lon="6.13139">
        <ele>184.19999694824</ele>
        <time>2017-03-29T14:22:31Z</time>
      </trkpt>
      <trkpt lat="43.43091" lon="6.13088">
        <ele>184.60000610352</ele>
        <time>2017-03-29T14:22:41Z</time>
      </trkpt>
      <trkpt lat="43.43086" lon="6.13066">
        <ele>184.39999389648</ele>
        <time>2017-03-29T14:22:45Z</time>
      </trkpt>
      <trkpt lat="43.43081" lon="6.13045">
        <ele>184.39999389648</ele>
        <time>2017-03-29T14:22:49Z</time>
      </trkpt>
      <trkpt lat="43.43078" lon="6.13036">
        <ele>184.60000610352</ele>
        <time>2017-03-29T14:22:51Z</time>
      </trkpt>
      <trkpt lat="43.43067" lon="6.12991">
        <ele>184.19999694824</ele>
        <time>2017-03-29T14:23:00Z</time>
      </trkpt>
      <trkpt lat="43.43065" lon="6.12986">
        <ele>184.19999694824</ele>
        <time>2017-03-29T14:23:01Z</time>
      </trkpt>
      <trkpt lat="43.43053" lon="6.12936">
        <ele>184.19999694824</ele>
        <time>2017-03-29T14:23:11Z</time>
      </trkpt>
      <trkpt lat="43.43052" lon="6.12931">
        <ele>184.39999389648</ele>
        <time>2017-03-29T14:23:12Z</time>
      </trkpt>
      <trkpt lat="43.4304" lon="6.12889">
        <ele>184.60000610352</ele>
        <time>2017-03-29T14:23:21Z</time>
      </trkpt>
      <trkpt lat="43.43034" lon="6.12863">
        <ele>184.60000610352</ele>
        <time>2017-03-29T14:23:26Z</time>
      </trkpt>
      <trkpt lat="43.43028" lon="6.12836">
        <ele>184.60000610352</ele>
        <time>2017-03-29T14:23:31Z</time>
      </trkpt>
      <trkpt lat="43.43021" lon="6.12782">
        <ele>184.80000305176</ele>
        <time>2017-03-29T14:23:40Z</time>
      </trkpt>
      <trkpt lat="43.43021" lon="6.12776">
        <ele>184.80000305176</ele>
        <time>2017-03-29T14:23:41Z</time>
      </trkpt>
      <trkpt lat="43.43022" lon="6.12746">
        <ele>184.80000305176</ele>
        <time>2017-03-29T14:23:46Z</time>
      </trkpt>
      <trkpt lat="43.43022" lon="6.12716">
        <ele>184.80000305176</ele>
        <time>2017-03-29T14:23:51Z</time>
      </trkpt>
      <trkpt lat="43.43023" lon="6.12687">
        <ele>184.80000305176</ele>
        <time>2017-03-29T14:23:56Z</time>
      </trkpt>
      <trkpt lat="43.43024" lon="6.12663">
        <ele>185</ele>
        <time>2017-03-29T14:24:00Z</time>
      </trkpt>
      <trkpt lat="43.43024" lon="6.1264">
        <ele>185.39999389648</ele>
        <time>2017-03-29T14:24:04Z</time>
      </trkpt>
      <trkpt lat="43.43025" lon="6.12598">
        <ele>185.39999389648</ele>
        <time>2017-03-29T14:24:11Z</time>
      </trkpt>
      <trkpt lat="43.43023" lon="6.12571">
        <ele>185.60000610352</ele>
        <time>2017-03-29T14:24:16Z</time>
      </trkpt>
      <trkpt lat="43.43019" lon="6.12544">
        <ele>185.60000610352</ele>
        <time>2017-03-29T14:24:21Z</time>
      </trkpt>
      <trkpt lat="43.43014" lon="6.12515">
        <ele>186.19999694824</ele>
        <time>2017-03-29T14:24:27Z</time>
      </trkpt>
      <trkpt lat="43.4301" lon="6.12496">
        <ele>186.19999694824</ele>
        <time>2017-03-29T14:24:31Z</time>
      </trkpt>
      <trkpt lat="43.43008" lon="6.12482">
        <ele>186.39999389648</ele>
        <time>2017-03-29T14:24:34Z</time>
      </trkpt>
      <trkpt lat="43.43005" lon="6.12463">
        <ele>186.80000305176</ele>
        <time>2017-03-29T14:24:38Z</time>
      </trkpt>
      <trkpt lat="43.43001" lon="6.1245">
        <ele>187.19999694824</ele>
        <time>2017-03-29T14:24:41Z</time>
      </trkpt>
      <trkpt lat="43.42995" lon="6.12429">
        <ele>188</ele>
        <time>2017-03-29T14:24:46Z</time>
      </trkpt>
      <trkpt lat="43.42993" lon="6.1242">
        <ele>188.19999694824</ele>
        <time>2017-03-29T14:24:48Z</time>
      </trkpt>
      <trkpt lat="43.4299" lon="6.12408">
        <ele>188.60000610352</ele>
        <time>2017-03-29T14:24:51Z</time>
      </trkpt>
      <trkpt lat="43.42988" lon="6.124">
        <ele>188.80000305176</ele>
        <time>2017-03-29T14:24:53Z</time>
      </trkpt>
      <trkpt lat="43.42987" lon="6.12397">
        <ele>188.80000305176</ele>
        <time>2017-03-29T14:24:54Z</time>
      </trkpt>
      <trkpt lat="43.42985" lon="6.12389">
        <ele>189.39999389648</ele>
        <time>2017-03-29T14:24:56Z</time>
      </trkpt>
      <trkpt lat="43.42981" lon="6.12372">
        <ele>190</ele>
        <time>2017-03-29T14:25:00Z</time>
      </trkpt>
      <trkpt lat="43.42979" lon="6.12368">
        <ele>189.80000305176</ele>
        <time>2017-03-29T14:25:01Z</time>
      </trkpt>
      <trkpt lat="43.42973" lon="6.12336">
        <ele>189.60000610352</ele>
        <time>2017-03-29T14:25:08Z</time>
      </trkpt>
      <trkpt lat="43.42966" lon="6.12325">
        <ele>189.60000610352</ele>
        <time>2017-03-29T14:25:11Z</time>
      </trkpt>
      <trkpt lat="43.42954" lon="6.12319">
        <ele>189.39999389648</ele>
        <time>2017-03-29T14:25:15Z</time>
      </trkpt>
      <trkpt lat="43.42934" lon="6.12319">
        <ele>189.19999694824</ele>
        <time>2017-03-29T14:25:21Z</time>
      </trkpt>
      <trkpt lat="43.42913" lon="6.12321">
        <ele>188.80000305176</ele>
        <time>2017-03-29T14:25:26Z</time>
      </trkpt>
      <trkpt lat="43.42905" lon="6.12325">
        <ele>188.80000305176</ele>
        <time>2017-03-29T14:25:28Z</time>
      </trkpt>
      <trkpt lat="43.42894" lon="6.12331">
        <ele>188.60000610352</ele>
        <time>2017-03-29T14:25:31Z</time>
      </trkpt>
      <trkpt lat="43.42876" lon="6.12347">
        <ele>188.39999389648</ele>
        <time>2017-03-29T14:25:37Z</time>
      </trkpt>
      <trkpt lat="43.42863" lon="6.12365">
        <ele>188</ele>
        <time>2017-03-29T14:25:41Z</time>
      </trkpt>
      <trkpt lat="43.42831" lon="6.12416">
        <ele>187.80000305176</ele>
        <time>2017-03-29T14:25:51Z</time>
      </trkpt>
      <trkpt lat="43.42815" lon="6.1244">
        <ele>187.19999694824</ele>
        <time>2017-03-29T14:25:56Z</time>
      </trkpt>
      <trkpt lat="43.42804" lon="6.12451">
        <ele>186.80000305176</ele>
        <time>2017-03-29T14:25:59Z</time>
      </trkpt>
      <trkpt lat="43.42796" lon="6.12458">
        <ele>186.39999389648</ele>
        <time>2017-03-29T14:26:01Z</time>
      </trkpt>
      <trkpt lat="43.4275" lon="6.12474">
        <ele>187</ele>
        <time>2017-03-29T14:26:11Z</time>
      </trkpt>
      <trkpt lat="43.42737" lon="6.12476">
        <ele>187.19999694824</ele>
        <time>2017-03-29T14:26:14Z</time>
      </trkpt>
      <trkpt lat="43.42725" lon="6.12477">
        <ele>187.19999694824</ele>
        <time>2017-03-29T14:26:17Z</time>
      </trkpt>
      <trkpt lat="43.4271" lon="6.12478">
        <ele>187.39999389648</ele>
        <time>2017-03-29T14:26:21Z</time>
      </trkpt>
      <trkpt lat="43.42703" lon="6.12478">
        <ele>187.60000610352</ele>
        <time>2017-03-29T14:26:23Z</time>
      </trkpt>
      <trkpt lat="43.42685" lon="6.12479">
        <ele>188.19999694824</ele>
        <time>2017-03-29T14:26:28Z</time>
      </trkpt>
      <trkpt lat="43.42669" lon="6.12477">
        <ele>188.39999389648</ele>
        <time>2017-03-29T14:26:33Z</time>
      </trkpt>
      <trkpt lat="43.42649" lon="6.12459">
        <ele>189.39999389648</ele>
        <time>2017-03-29T14:26:40Z</time>
      </trkpt>
      <trkpt lat="43.42631" lon="6.12435">
        <ele>189.39999389648</ele>
        <time>2017-03-29T14:26:46Z</time>
      </trkpt>
      <trkpt lat="43.42612" lon="6.12411">
        <ele>189.39999389648</ele>
        <time>2017-03-29T14:26:51Z</time>
      </trkpt>
      <trkpt lat="43.4259" lon="6.1238">
        <ele>189.19999694824</ele>
        <time>2017-03-29T14:26:57Z</time>
      </trkpt>
      <trkpt lat="43.42578" lon="6.12357">
        <ele>188.80000305176</ele>
        <time>2017-03-29T14:27:01Z</time>
      </trkpt>
      <trkpt lat="43.42566" lon="6.12334">
        <ele>188.80000305176</ele>
        <time>2017-03-29T14:27:05Z</time>
      </trkpt>
      <trkpt lat="43.42558" lon="6.12318">
        <ele>189</ele>
        <time>2017-03-29T14:27:08Z</time>
      </trkpt>
      <trkpt lat="43.42551" lon="6.12304">
        <ele>188.80000305176</ele>
        <time>2017-03-29T14:27:11Z</time>
      </trkpt>
      <trkpt lat="43.4254" lon="6.12281">
        <ele>188.39999389648</ele>
        <time>2017-03-29T14:27:16Z</time>
      </trkpt>
      <trkpt lat="43.42529" lon="6.12256">
        <ele>188.39999389648</ele>
        <time>2017-03-29T14:27:21Z</time>
      </trkpt>
      <trkpt lat="43.42507" lon="6.12208">
        <ele>188.80000305176</ele>
        <time>2017-03-29T14:27:31Z</time>
      </trkpt>
      <trkpt lat="43.42486" lon="6.12161">
        <ele>189</ele>
        <time>2017-03-29T14:27:41Z</time>
      </trkpt>
      <trkpt lat="43.42457" lon="6.12124">
        <ele>189</ele>
        <time>2017-03-29T14:27:51Z</time>
      </trkpt>
      <trkpt lat="43.42429" lon="6.12085">
        <ele>189.19999694824</ele>
        <time>2017-03-29T14:28:01Z</time>
      </trkpt>
      <trkpt lat="43.42407" lon="6.12041">
        <ele>189.39999389648</ele>
        <time>2017-03-29T14:28:11Z</time>
      </trkpt>
      <trkpt lat="43.42393" lon="6.11993">
        <ele>190</ele>
        <time>2017-03-29T14:28:21Z</time>
      </trkpt>
      <trkpt lat="43.4238" lon="6.11944">
        <ele>190.60000610352</ele>
        <time>2017-03-29T14:28:31Z</time>
      </trkpt>
      <trkpt lat="43.42368" lon="6.11895">
        <ele>191.19999694824</ele>
        <time>2017-03-29T14:28:41Z</time>
      </trkpt>
      <trkpt lat="43.42362" lon="6.11872">
        <ele>191.60000610352</ele>
        <time>2017-03-29T14:28:46Z</time>
      </trkpt>
      <trkpt lat="43.42356" lon="6.11852">
        <ele>192.39999389648</ele>
        <time>2017-03-29T14:28:51Z</time>
      </trkpt>
      <trkpt lat="43.42353" lon="6.11844">
        <ele>192.60000610352</ele>
        <time>2017-03-29T14:28:53Z</time>
      </trkpt>
      <trkpt lat="43.42342" lon="6.11812">
        <ele>193.19999694824</ele>
        <time>2017-03-29T14:29:01Z</time>
      </trkpt>
      <trkpt lat="43.42321" lon="6.11777">
        <ele>192.39999389648</ele>
        <time>2017-03-29T14:29:11Z</time>
      </trkpt>
      <trkpt lat="43.42299" lon="6.1175">
        <ele>192</ele>
        <time>2017-03-29T14:29:19Z</time>
      </trkpt>
      <trkpt lat="43.42295" lon="6.11743">
        <ele>192</ele>
        <time>2017-03-29T14:29:21Z</time>
      </trkpt>
      <trkpt lat="43.42266" lon="6.11709">
        <ele>192</ele>
        <time>2017-03-29T14:29:31Z</time>
      </trkpt>
      <trkpt lat="43.42246" lon="6.11682">
        <ele>191.60000610352</ele>
        <time>2017-03-29T14:29:38Z</time>
      </trkpt>
      <trkpt lat="43.42236" lon="6.11667">
        <ele>191.80000305176</ele>
        <time>2017-03-29T14:29:42Z</time>
      </trkpt>
      <trkpt lat="43.42225" lon="6.11651">
        <ele>191.80000305176</ele>
        <time>2017-03-29T14:29:46Z</time>
      </trkpt>
      <trkpt lat="43.42217" lon="6.11639">
        <ele>191.60000610352</ele>
        <time>2017-03-29T14:29:49Z</time>
      </trkpt>
      <trkpt lat="43.42213" lon="6.11631">
        <ele>191.80000305176</ele>
        <time>2017-03-29T14:29:51Z</time>
      </trkpt>
      <trkpt lat="43.42191" lon="6.11592">
        <ele>191.80000305176</ele>
        <time>2017-03-29T14:30:01Z</time>
      </trkpt>
      <trkpt lat="43.42165" lon="6.11547">
        <ele>192.19999694824</ele>
        <time>2017-03-29T14:30:11Z</time>
      </trkpt>
      <trkpt lat="43.42138" lon="6.11503">
        <ele>192.39999389648</ele>
        <time>2017-03-29T14:30:21Z</time>
      </trkpt>
      <trkpt lat="43.42113" lon="6.1146">
        <ele>192</ele>
        <time>2017-03-29T14:30:31Z</time>
      </trkpt>
      <trkpt lat="43.42089" lon="6.11416">
        <ele>191.39999389648</ele>
        <time>2017-03-29T14:30:41Z</time>
      </trkpt>
      <trkpt lat="43.42077" lon="6.11395">
        <ele>191.19999694824</ele>
        <time>2017-03-29T14:30:46Z</time>
      </trkpt>
      <trkpt lat="43.42064" lon="6.11371">
        <ele>191</ele>
        <time>2017-03-29T14:30:51Z</time>
      </trkpt>
      <trkpt lat="43.42058" lon="6.11361">
        <ele>191.19999694824</ele>
        <time>2017-03-29T14:30:53Z</time>
      </trkpt>
      <trkpt lat="43.4204" lon="6.11329">
        <ele>191.19999694824</ele>
        <time>2017-03-29T14:30:59Z</time>
      </trkpt>
      <trkpt lat="43.42035" lon="6.11319">
        <ele>191</ele>
        <time>2017-03-29T14:31:01Z</time>
      </trkpt>
      <trkpt lat="43.42015" lon="6.11286">
        <ele>190.60000610352</ele>
        <time>2017-03-29T14:31:08Z</time>
      </trkpt>
      <trkpt lat="43.42005" lon="6.11273">
        <ele>190.60000610352</ele>
        <time>2017-03-29T14:31:11Z</time>
      </trkpt>
      <trkpt lat="43.41981" lon="6.11239">
        <ele>190.80000305176</ele>
        <time>2017-03-29T14:31:19Z</time>
      </trkpt>
      <trkpt lat="43.41975" lon="6.11232">
        <ele>190.80000305176</ele>
        <time>2017-03-29T14:31:21Z</time>
      </trkpt>
      <trkpt lat="43.41947" lon="6.11186">
        <ele>190.80000305176</ele>
        <time>2017-03-29T14:31:31Z</time>
      </trkpt>
      <trkpt lat="43.41942" lon="6.11176">
        <ele>190.80000305176</ele>
        <time>2017-03-29T14:31:33Z</time>
      </trkpt>
      <trkpt lat="43.41931" lon="6.1115">
        <ele>190.80000305176</ele>
        <time>2017-03-29T14:31:38Z</time>
      </trkpt>
      <trkpt lat="43.41926" lon="6.11134">
        <ele>190.80000305176</ele>
        <time>2017-03-29T14:31:41Z</time>
      </trkpt>
      <trkpt lat="43.41923" lon="6.11079">
        <ele>191.39999389648</ele>
        <time>2017-03-29T14:31:51Z</time>
      </trkpt>
      <trkpt lat="43.41925" lon="6.11051">
        <ele>191.60000610352</ele>
        <time>2017-03-29T14:31:56Z</time>
      </trkpt>
      <trkpt lat="43.41928" lon="6.11024">
        <ele>192.39999389648</ele>
        <time>2017-03-29T14:32:01Z</time>
      </trkpt>
      <trkpt lat="43.41929" lon="6.11009">
        <ele>192.60000610352</ele>
        <time>2017-03-29T14:32:04Z</time>
      </trkpt>
      <trkpt lat="43.41929" lon="6.10989">
        <ele>193</ele>
        <time>2017-03-29T14:32:08Z</time>
      </trkpt>
      <trkpt lat="43.41927" lon="6.10974">
        <ele>193.39999389648</ele>
        <time>2017-03-29T14:32:11Z</time>
      </trkpt>
      <trkpt lat="43.41915" lon="6.1093">
        <ele>192.80000305176</ele>
        <time>2017-03-29T14:32:21Z</time>
      </trkpt>
      <trkpt lat="43.41906" lon="6.10877">
        <ele>193</ele>
        <time>2017-03-29T14:32:31Z</time>
      </trkpt>
      <trkpt lat="43.4191" lon="6.10824">
        <ele>193</ele>
        <time>2017-03-29T14:32:41Z</time>
      </trkpt>
      <trkpt lat="43.41916" lon="6.10774">
        <ele>192.60000610352</ele>
        <time>2017-03-29T14:32:50Z</time>
      </trkpt>
      <trkpt lat="43.41917" lon="6.10769">
        <ele>192.80000305176</ele>
        <time>2017-03-29T14:32:51Z</time>
      </trkpt>
      <trkpt lat="43.41925" lon="6.10723">
        <ele>193.19999694824</ele>
        <time>2017-03-29T14:33:01Z</time>
      </trkpt>
      <trkpt lat="43.41943" lon="6.10677">
        <ele>193.19999694824</ele>
        <time>2017-03-29T14:33:11Z</time>
      </trkpt>
      <trkpt lat="43.41961" lon="6.10624">
        <ele>193.19999694824</ele>
        <time>2017-03-29T14:33:21Z</time>
      </trkpt>
      <trkpt lat="43.41976" lon="6.10575">
        <ele>193.80000305176</ele>
        <time>2017-03-29T14:33:30Z</time>
      </trkpt>
      <trkpt lat="43.41978" lon="6.1057">
        <ele>193.80000305176</ele>
        <time>2017-03-29T14:33:31Z</time>
      </trkpt>
      <trkpt lat="43.41988" lon="6.10527">
        <ele>194.80000305176</ele>
        <time>2017-03-29T14:33:40Z</time>
      </trkpt>
      <trkpt lat="43.41991" lon="6.10468">
        <ele>195.19999694824</ele>
        <time>2017-03-29T14:33:51Z</time>
      </trkpt>
      <trkpt lat="43.41996" lon="6.10414">
        <ele>195.39999389648</ele>
        <time>2017-03-29T14:34:01Z</time>
      </trkpt>
      <trkpt lat="43.42001" lon="6.10382">
        <ele>195.80000305176</ele>
        <time>2017-03-29T14:34:07Z</time>
      </trkpt>
      <trkpt lat="43.42004" lon="6.1036">
        <ele>195.60000610352</ele>
        <time>2017-03-29T14:34:11Z</time>
      </trkpt>
      <trkpt lat="43.42012" lon="6.10305">
        <ele>195.39999389648</ele>
        <time>2017-03-29T14:34:21Z</time>
      </trkpt>
      <trkpt lat="43.4202" lon="6.10253">
        <ele>196.80000305176</ele>
        <time>2017-03-29T14:34:31Z</time>
      </trkpt>
      <trkpt lat="43.42021" lon="6.10248">
        <ele>196.80000305176</ele>
        <time>2017-03-29T14:34:32Z</time>
      </trkpt>
      <trkpt lat="43.42028" lon="6.10204">
        <ele>197.39999389648</ele>
        <time>2017-03-29T14:34:41Z</time>
      </trkpt>
      <trkpt lat="43.42034" lon="6.10152">
        <ele>197.39999389648</ele>
        <time>2017-03-29T14:34:51Z</time>
      </trkpt>
      <trkpt lat="43.42037" lon="6.10132">
        <ele>198</ele>
        <time>2017-03-29T14:34:55Z</time>
      </trkpt>
      <trkpt lat="43.42041" lon="6.10103">
        <ele>198.19999694824</ele>
        <time>2017-03-29T14:35:01Z</time>
      </trkpt>
      <trkpt lat="43.42048" lon="6.10053">
        <ele>198</ele>
        <time>2017-03-29T14:35:11Z</time>
      </trkpt>
      <trkpt lat="43.42052" lon="6.10029">
        <ele>198.39999389648</ele>
        <time>2017-03-29T14:35:16Z</time>
      </trkpt>
      <trkpt lat="43.42056" lon="6.10004">
        <ele>199</ele>
        <time>2017-03-29T14:35:21Z</time>
      </trkpt>
      <trkpt lat="43.42066" lon="6.09953">
        <ele>199.19999694824</ele>
        <time>2017-03-29T14:35:31Z</time>
      </trkpt>
      <trkpt lat="43.42076" lon="6.09924">
        <ele>198.80000305176</ele>
        <time>2017-03-29T14:35:37Z</time>
      </trkpt>
      <trkpt lat="43.42083" lon="6.09904">
        <ele>198.60000610352</ele>
        <time>2017-03-29T14:35:41Z</time>
      </trkpt>
      <trkpt lat="43.42096" lon="6.09854">
        <ele>198.19999694824</ele>
        <time>2017-03-29T14:35:50Z</time>
      </trkpt>
      <trkpt lat="43.42096" lon="6.09842">
        <ele>197.80000305176</ele>
        <time>2017-03-29T14:35:52Z</time>
      </trkpt>
      <trkpt lat="43.42094" lon="6.09789">
        <ele>197.80000305176</ele>
        <time>2017-03-29T14:36:01Z</time>
      </trkpt>
      <trkpt lat="43.42093" lon="6.09777">
        <ele>197.80000305176</ele>
        <time>2017-03-29T14:36:03Z</time>
      </trkpt>
      <trkpt lat="43.4208" lon="6.09733">
        <ele>197.60000610352</ele>
        <time>2017-03-29T14:36:11Z</time>
      </trkpt>
      <trkpt lat="43.42051" lon="6.09693">
        <ele>197.39999389648</ele>
        <time>2017-03-29T14:36:21Z</time>
      </trkpt>
      <trkpt lat="43.4201" lon="6.09669">
        <ele>197.19999694824</ele>
        <time>2017-03-29T14:36:31Z</time>
      </trkpt>
      <trkpt lat="43.41996" lon="6.09665">
        <ele>196.60000610352</ele>
        <time>2017-03-29T14:36:34Z</time>
      </trkpt>
      <trkpt lat="43.41966" lon="6.09664">
        <ele>196.39999389648</ele>
        <time>2017-03-29T14:36:41Z</time>
      </trkpt>
      <trkpt lat="43.41923" lon="6.09655">
        <ele>196.60000610352</ele>
        <time>2017-03-29T14:36:51Z</time>
      </trkpt>
      <trkpt lat="43.41877" lon="6.0965">
        <ele>197.80000305176</ele>
        <time>2017-03-29T14:37:01Z</time>
      </trkpt>
      <trkpt lat="43.41832" lon="6.0964">
        <ele>197.19999694824</ele>
        <time>2017-03-29T14:37:11Z</time>
      </trkpt>
      <trkpt lat="43.41821" lon="6.0963">
        <ele>197</ele>
        <time>2017-03-29T14:37:14Z</time>
      </trkpt>
      <trkpt lat="43.4181" lon="6.09612">
        <ele>196.80000305176</ele>
        <time>2017-03-29T14:37:18Z</time>
      </trkpt>
      <trkpt lat="43.41803" lon="6.09596">
        <ele>196.80000305176</ele>
        <time>2017-03-29T14:37:21Z</time>
      </trkpt>
      <trkpt lat="43.41779" lon="6.09542">
        <ele>197</ele>
        <time>2017-03-29T14:37:31Z</time>
      </trkpt>
      <trkpt lat="43.41772" lon="6.09525">
        <ele>197</ele>
        <time>2017-03-29T14:37:34Z</time>
      </trkpt>
      <trkpt lat="43.41762" lon="6.0949">
        <ele>197.19999694824</ele>
        <time>2017-03-29T14:37:40Z</time>
      </trkpt>
      <trkpt lat="43.41761" lon="6.09484">
        <ele>197.19999694824</ele>
        <time>2017-03-29T14:37:41Z</time>
      </trkpt>
      <trkpt lat="43.41747" lon="6.09422">
        <ele>197</ele>
        <time>2017-03-29T14:37:51Z</time>
      </trkpt>
      <trkpt lat="43.41733" lon="6.0936">
        <ele>197</ele>
        <time>2017-03-29T14:38:01Z</time>
      </trkpt>
      <trkpt lat="43.41727" lon="6.09298">
        <ele>196.80000305176</ele>
        <time>2017-03-29T14:38:11Z</time>
      </trkpt>
      <trkpt lat="43.41726" lon="6.09238">
        <ele>197.39999389648</ele>
        <time>2017-03-29T14:38:21Z</time>
      </trkpt>
      <trkpt lat="43.41725" lon="6.09181">
        <ele>197.19999694824</ele>
        <time>2017-03-29T14:38:31Z</time>
      </trkpt>
      <trkpt lat="43.41726" lon="6.09103">
        <ele>197.80000305176</ele>
        <time>2017-03-29T14:38:44Z</time>
      </trkpt>
      <trkpt lat="43.41727" lon="6.0906">
        <ele>197.39999389648</ele>
        <time>2017-03-29T14:38:51Z</time>
      </trkpt>
      <trkpt lat="43.41733" lon="6.08998">
        <ele>197.80000305176</ele>
        <time>2017-03-29T14:39:01Z</time>
      </trkpt>
      <trkpt lat="43.4174" lon="6.08938">
        <ele>197.80000305176</ele>
        <time>2017-03-29T14:39:11Z</time>
      </trkpt>
      <trkpt lat="43.41738" lon="6.08886">
        <ele>198</ele>
        <time>2017-03-29T14:39:20Z</time>
      </trkpt>
      <trkpt lat="43.41736" lon="6.0888">
        <ele>197.80000305176</ele>
        <time>2017-03-29T14:39:21Z</time>
      </trkpt>
      <trkpt lat="43.41728" lon="6.08859">
        <ele>197.80000305176</ele>
        <time>2017-03-29T14:39:25Z</time>
      </trkpt>
      <trkpt lat="43.41711" lon="6.0883">
        <ele>197.80000305176</ele>
        <time>2017-03-29T14:39:31Z</time>
      </trkpt>
      <trkpt lat="43.41703" lon="6.08816">
        <ele>197.80000305176</ele>
        <time>2017-03-29T14:39:34Z</time>
      </trkpt>
      <trkpt lat="43.41685" lon="6.08782">
        <ele>197.80000305176</ele>
        <time>2017-03-29T14:39:41Z</time>
      </trkpt>
      <trkpt lat="43.41658" lon="6.08732">
        <ele>198.19999694824</ele>
        <time>2017-03-29T14:39:51Z</time>
      </trkpt>
      <trkpt lat="43.41632" lon="6.08682">
        <ele>198.60000610352</ele>
        <time>2017-03-29T14:40:01Z</time>
      </trkpt>
      <trkpt lat="43.41621" lon="6.08661">
        <ele>198.80000305176</ele>
        <time>2017-03-29T14:40:05Z</time>
      </trkpt>
      <trkpt lat="43.41615" lon="6.08645">
        <ele>198.60000610352</ele>
        <time>2017-03-29T14:40:08Z</time>
      </trkpt>
      <trkpt lat="43.41612" lon="6.08628">
        <ele>198.60000610352</ele>
        <time>2017-03-29T14:40:11Z</time>
      </trkpt>
      <trkpt lat="43.41609" lon="6.08612">
        <ele>198.80000305176</ele>
        <time>2017-03-29T14:40:14Z</time>
      </trkpt>
      <trkpt lat="43.41602" lon="6.08571">
        <ele>199.39999389648</ele>
        <time>2017-03-29T14:40:21Z</time>
      </trkpt>
      <trkpt lat="43.41594" lon="6.0851">
        <ele>199.80000305176</ele>
        <time>2017-03-29T14:40:31Z</time>
      </trkpt>
      <trkpt lat="43.41591" lon="6.08493">
        <ele>199.80000305176</ele>
        <time>2017-03-29T14:40:34Z</time>
      </trkpt>
      <trkpt lat="43.4159" lon="6.08482">
        <ele>199.80000305176</ele>
        <time>2017-03-29T14:40:36Z</time>
      </trkpt>
      <trkpt lat="43.41589" lon="6.08471">
        <ele>200</ele>
        <time>2017-03-29T14:40:38Z</time>
      </trkpt>
      <trkpt lat="43.41587" lon="6.08454">
        <ele>199.80000305176</ele>
        <time>2017-03-29T14:40:41Z</time>
      </trkpt>
      <trkpt lat="43.41577" lon="6.08395">
        <ele>199.80000305176</ele>
        <time>2017-03-29T14:40:51Z</time>
      </trkpt>
      <trkpt lat="43.4157" lon="6.08359">
        <ele>199.80000305176</ele>
        <time>2017-03-29T14:40:57Z</time>
      </trkpt>
      <trkpt lat="43.41565" lon="6.08337">
        <ele>199.80000305176</ele>
        <time>2017-03-29T14:41:01Z</time>
      </trkpt>
      <trkpt lat="43.41553" lon="6.08277">
        <ele>199.39999389648</ele>
        <time>2017-03-29T14:41:11Z</time>
      </trkpt>
      <trkpt lat="43.41535" lon="6.08227">
        <ele>199.60000610352</ele>
        <time>2017-03-29T14:41:21Z</time>
      </trkpt>
      <trkpt lat="43.41514" lon="6.08184">
        <ele>200</ele>
        <time>2017-03-29T14:41:31Z</time>
      </trkpt>
      <trkpt lat="43.41505" lon="6.08168">
        <ele>200.39999389648</ele>
        <time>2017-03-29T14:41:35Z</time>
      </trkpt>
      <trkpt lat="43.41489" lon="6.08141">
        <ele>200</ele>
        <time>2017-03-29T14:41:41Z</time>
      </trkpt>
      <trkpt lat="43.4148" lon="6.08127">
        <ele>199.80000305176</ele>
        <time>2017-03-29T14:41:44Z</time>
      </trkpt>
      <trkpt lat="43.41462" lon="6.08095">
        <ele>199.60000610352</ele>
        <time>2017-03-29T14:41:51Z</time>
      </trkpt>
      <trkpt lat="43.41431" lon="6.08045">
        <ele>200</ele>
        <time>2017-03-29T14:42:01Z</time>
      </trkpt>
      <trkpt lat="43.41402" lon="6.07994">
        <ele>199.80000305176</ele>
        <time>2017-03-29T14:42:11Z</time>
      </trkpt>
      <trkpt lat="43.41374" lon="6.07952">
        <ele>200.19999694824</ele>
        <time>2017-03-29T14:42:21Z</time>
      </trkpt>
      <trkpt lat="43.41346" lon="6.07927">
        <ele>201</ele>
        <time>2017-03-29T14:42:30Z</time>
      </trkpt>
      <trkpt lat="43.41343" lon="6.07924">
        <ele>201</ele>
        <time>2017-03-29T14:42:31Z</time>
      </trkpt>
      <trkpt lat="43.41333" lon="6.0789">
        <ele>201</ele>
        <time>2017-03-29T14:42:38Z</time>
      </trkpt>
      <trkpt lat="43.41328" lon="6.07873">
        <ele>201</ele>
        <time>2017-03-29T14:42:41Z</time>
      </trkpt>
      <trkpt lat="43.41318" lon="6.07838">
        <ele>201</ele>
        <time>2017-03-29T14:42:47Z</time>
      </trkpt>
      <trkpt lat="43.41312" lon="6.07814">
        <ele>200.80000305176</ele>
        <time>2017-03-29T14:42:51Z</time>
      </trkpt>
      <trkpt lat="43.41297" lon="6.07756">
        <ele>200.80000305176</ele>
        <time>2017-03-29T14:43:01Z</time>
      </trkpt>
      <trkpt lat="43.41293" lon="6.07702">
        <ele>201.39999389648</ele>
        <time>2017-03-29T14:43:11Z</time>
      </trkpt>
      <trkpt lat="43.41294" lon="6.07691">
        <ele>201.39999389648</ele>
        <time>2017-03-29T14:43:13Z</time>
      </trkpt>
      <trkpt lat="43.41317" lon="6.07612">
        <ele>202</ele>
        <time>2017-03-29T14:43:28Z</time>
      </trkpt>
      <trkpt lat="43.41322" lon="6.07596">
        <ele>202.19999694824</ele>
        <time>2017-03-29T14:43:31Z</time>
      </trkpt>
      <trkpt lat="43.41336" lon="6.07542">
        <ele>202.19999694824</ele>
        <time>2017-03-29T14:43:41Z</time>
      </trkpt>
      <trkpt lat="43.41348" lon="6.07489">
        <ele>203</ele>
        <time>2017-03-29T14:43:51Z</time>
      </trkpt>
      <trkpt lat="43.4135" lon="6.07477">
        <ele>203</ele>
        <time>2017-03-29T14:43:53Z</time>
      </trkpt>
      <trkpt lat="43.41358" lon="6.07433">
        <ele>203.39999389648</ele>
        <time>2017-03-29T14:44:01Z</time>
      </trkpt>
      <trkpt lat="43.41369" lon="6.07379">
        <ele>204</ele>
        <time>2017-03-29T14:44:11Z</time>
      </trkpt>
      <trkpt lat="43.41381" lon="6.07329">
        <ele>205</ele>
        <time>2017-03-29T14:44:21Z</time>
      </trkpt>
      <trkpt lat="43.41382" lon="6.07325">
        <ele>205.19999694824</ele>
        <time>2017-03-29T14:44:22Z</time>
      </trkpt>
      <trkpt lat="43.41393" lon="6.07283">
        <ele>205.39999389648</ele>
        <time>2017-03-29T14:44:31Z</time>
      </trkpt>
      <trkpt lat="43.41408" lon="6.07235">
        <ele>205.80000305176</ele>
        <time>2017-03-29T14:44:41Z</time>
      </trkpt>
      <trkpt lat="43.41424" lon="6.07187">
        <ele>206</ele>
        <time>2017-03-29T14:44:51Z</time>
      </trkpt>
      <trkpt lat="43.41441" lon="6.07136">
        <ele>206</ele>
        <time>2017-03-29T14:45:01Z</time>
      </trkpt>
      <trkpt lat="43.41444" lon="6.07126">
        <ele>206.19999694824</ele>
        <time>2017-03-29T14:45:03Z</time>
      </trkpt>
      <trkpt lat="43.41459" lon="6.07089">
        <ele>206.60000610352</ele>
        <time>2017-03-29T14:45:11Z</time>
      </trkpt>
      <trkpt lat="43.41474" lon="6.07075">
        <ele>207.39999389648</ele>
        <time>2017-03-29T14:45:19Z</time>
      </trkpt>
      <trkpt lat="43.41478" lon="6.07075">
        <ele>207.80000305176</ele>
        <time>2017-03-29T14:45:21Z</time>
      </trkpt>
      <trkpt lat="43.41502" lon="6.07083">
        <ele>207.80000305176</ele>
        <time>2017-03-29T14:45:30Z</time>
      </trkpt>
      <trkpt lat="43.41505" lon="6.07083">
        <ele>207.80000305176</ele>
        <time>2017-03-29T14:45:31Z</time>
      </trkpt>
      <trkpt lat="43.41532" lon="6.0708">
        <ele>208.19999694824</ele>
        <time>2017-03-29T14:45:41Z</time>
      </trkpt>
      <trkpt lat="43.41541" lon="6.0708">
        <ele>208.60000610352</ele>
        <time>2017-03-29T14:45:45Z</time>
      </trkpt>
      <trkpt lat="43.41544" lon="6.07083">
        <ele>208.60000610352</ele>
        <time>2017-03-29T14:45:47Z</time>
      </trkpt>
      <trkpt lat="43.41546" lon="6.07093">
        <ele>208.80000305176</ele>
        <time>2017-03-29T14:45:51Z</time>
      </trkpt>
      <trkpt lat="43.4155" lon="6.07117">
        <ele>209.19999694824</ele>
        <time>2017-03-29T14:45:58Z</time>
      </trkpt>
      <trkpt lat="43.41555" lon="6.0712">
        <ele>209.19999694824</ele>
        <time>2017-03-29T14:46:00Z</time>
      </trkpt>
      <trkpt lat="43.41558" lon="6.07119">
        <ele>209.19999694824</ele>
        <time>2017-03-29T14:46:01Z</time>
      </trkpt>
      <trkpt lat="43.41583" lon="6.07109">
        <ele>209</ele>
        <time>2017-03-29T14:46:11Z</time>
      </trkpt>
      <trkpt lat="43.41587" lon="6.07106">
        <ele>209.19999694824</ele>
        <time>2017-03-29T14:46:13Z</time>
      </trkpt>
      <trkpt lat="43.41587" lon="6.07095">
        <ele>209.39999389648</ele>
        <time>2017-03-29T14:46:17Z</time>
      </trkpt>
      <trkpt lat="43.41587" lon="6.07092">
        <ele>209.60000610352</ele>
        <time>2017-03-29T14:46:18Z</time>
      </trkpt>
      <trkpt lat="43.41586" lon="6.07082">
        <ele>209.60000610352</ele>
        <time>2017-03-29T14:46:21Z</time>
      </trkpt>
      <trkpt lat="43.41582" lon="6.07047">
        <ele>209.80000305176</ele>
        <time>2017-03-29T14:46:31Z</time>
      </trkpt>
      <trkpt lat="43.41582" lon="6.07041">
        <ele>210</ele>
        <time>2017-03-29T14:46:36Z</time>
      </trkpt>
      <trkpt lat="43.41582" lon="6.07041">
        <ele>210.39999389648</ele>
        <time>2017-03-29T14:46:41Z</time>
      </trkpt>
      <trkpt lat="43.41582" lon="6.07041">
        <ele>210.60000610352</ele>
        <time>2017-03-29T14:46:43Z</time>
      </trkpt>
      <trkpt lat="43.41582" lon="6.0704">
        <ele>210.80000305176</ele>
        <time>2017-03-29T14:46:51Z</time>
      </trkpt>
      <trkpt lat="43.41583" lon="6.0704">
        <ele>210.80000305176</ele>
        <time>2017-03-29T14:47:01Z</time>
      </trkpt>
      <trkpt lat="43.41583" lon="6.0704">
        <ele>210.39999389648</ele>
        <time>2017-03-29T14:47:11Z</time>
      </trkpt>
      <trkpt lat="43.41583" lon="6.07041">
        <ele>210.39999389648</ele>
        <time>2017-03-29T14:47:21Z</time>
      </trkpt>
      <trkpt lat="43.41583" lon="6.07041">
        <ele>210.39999389648</ele>
        <time>2017-03-29T14:47:27Z</time>
      </trkpt>
    </trkseg>
  </trk>
</gpx>